﻿<?xml version="1.0" encoding="utf-8"?><gpx creator="Garmin Desktop App" version="1.1" xsi:schemaLocation="http://www.topografix.com/GPX/1/1 http://www.topografix.com/GPX/1/1/gpx.xsd http://www.garmin.com/xmlschemas/WaypointExtension/v1 http://www8.garmin.com/xmlschemas/WaypointExtensionv1.xsd http://www.garmin.com/xmlschemas/TrackPointExtension/v1 http://www.garmin.com/xmlschemas/TrackPointExtensionv1.xsd http://www.garmin.com/xmlschemas/GpxExtensions/v3 http://www8.garmin.com/xmlschemas/GpxExtensionsv3.xsd http://www.garmin.com/xmlschemas/ActivityExtension/v1 http://www8.garmin.com/xmlschemas/ActivityExtensionv1.xsd http://www.garmin.com/xmlschemas/AdventuresExtensions/v1 http://www8.garmin.com/xmlschemas/AdventuresExtensionv1.xsd http://www.garmin.com/xmlschemas/PressureExtension/v1 http://www.garmin.com/xmlschemas/PressureExtensionv1.xsd http://www.garmin.com/xmlschemas/TripExtensions/v1 http://www.garmin.com/xmlschemas/TripExtensionsv1.xsd http://www.garmin.com/xmlschemas/TripMetaDataExtensions/v1 http://www.garmin.com/xmlschemas/TripMetaDataExtensionsv1.xsd http://www.garmin.com/xmlschemas/ViaPointTransportationModeExtensions/v1 http://www.garmin.com/xmlschemas/ViaPointTransportationModeExtensionsv1.xsd http://www.garmin.com/xmlschemas/CreationTimeExtension/v1 http://www.garmin.com/xmlschemas/CreationTimeExtensionsv1.xsd http://www.garmin.com/xmlschemas/AccelerationExtension/v1 http://www.garmin.com/xmlschemas/AccelerationExtensionv1.xsd http://www.garmin.com/xmlschemas/PowerExtension/v1 http://www.garmin.com/xmlschemas/PowerExtensionv1.xsd http://www.garmin.com/xmlschemas/VideoExtension/v1 http://www.garmin.com/xmlschemas/VideoExtensionv1.xsd" xmlns="http://www.topografix.com/GPX/1/1" xmlns:xsi="http://www.w3.org/2001/XMLSchema-instance" xmlns:wptx1="http://www.garmin.com/xmlschemas/WaypointExtension/v1" xmlns:gpxtrx="http://www.garmin.com/xmlschemas/GpxExtensions/v3" xmlns:gpxtpx="http://www.garmin.com/xmlschemas/TrackPointExtension/v1" xmlns:gpxx="http://www.garmin.com/xmlschemas/GpxExtensions/v3" xmlns:trp="http://www.garmin.com/xmlschemas/TripExtensions/v1" xmlns:adv="http://www.garmin.com/xmlschemas/AdventuresExtensions/v1" xmlns:prs="http://www.garmin.com/xmlschemas/PressureExtension/v1" xmlns:tmd="http://www.garmin.com/xmlschemas/TripMetaDataExtensions/v1" xmlns:vptm="http://www.garmin.com/xmlschemas/ViaPointTransportationModeExtensions/v1" xmlns:ctx="http://www.garmin.com/xmlschemas/CreationTimeExtension/v1" xmlns:gpxacc="http://www.garmin.com/xmlschemas/AccelerationExtension/v1" xmlns:gpxpx="http://www.garmin.com/xmlschemas/PowerExtension/v1" xmlns:vidx1="http://www.garmin.com/xmlschemas/VideoExtension/v1">

  <metadata>
    <link href="http://www.garmin.com">
      <text>Garmin International</text>
    </link>
    <time>2026-04-07T16:14:19Z</time>
    <bounds maxlat="50.442902985960245" maxlon="7.761619035154581" minlat="50.367367034777999" minlon="7.641540979966521" />
  </metadata>

  <trk>
    <name>Oelim_E05_E08_WD_48K</name>
    <extensions>
      <gpxx:TrackExtension>
        <gpxx:DisplayColor>DarkGray</gpxx:DisplayColor>
      </gpxx:TrackExtension>
    </extensions>
    <trkseg>
      <trkpt lat="50.368348974734545" lon="7.753651030361652">
        <ele>340.31445100000002</ele>
        <time>2026-04-07T08:01:03Z</time>
      </trkpt>
      <trkpt lat="50.368350986391306" lon="7.753652036190033">
        <ele>340.31445100000002</ele>
        <time>2026-04-07T08:01:04Z</time>
      </trkpt>
      <trkpt lat="50.368365989997983" lon="7.75364600121975">
        <ele>340.31445100000002</ele>
        <time>2026-04-07T08:02:31Z</time>
      </trkpt>
      <trkpt lat="50.368152000010014" lon="7.753255991265178">
        <ele>340.31445100000002</ele>
        <time>2026-04-07T08:02:44Z</time>
      </trkpt>
      <trkpt lat="50.368117969483137" lon="7.753158006817102">
        <ele>340.31445100000002</ele>
        <time>2026-04-07T08:02:46Z</time>
      </trkpt>
      <trkpt lat="50.367956031113863" lon="7.752901017665863">
        <ele>340.31445100000002</ele>
        <time>2026-04-07T08:02:51Z</time>
      </trkpt>
      <trkpt lat="50.36764900200069" lon="7.752418974414468">
        <ele>338.87940200000003</ele>
        <time>2026-04-07T08:02:59Z</time>
      </trkpt>
      <trkpt lat="50.367587981745601" lon="7.752267010509968">
        <ele>338.14002299999999</ele>
        <time>2026-04-07T08:03:01Z</time>
      </trkpt>
      <trkpt lat="50.367423025891185" lon="7.751682959496975">
        <ele>335.51244400000002</ele>
        <time>2026-04-07T08:03:08Z</time>
      </trkpt>
      <trkpt lat="50.367367034777999" lon="7.75078902952373">
        <ele>331.80879099999999</ele>
        <time>2026-04-07T08:03:19Z</time>
      </trkpt>
      <trkpt lat="50.367369968444109" lon="7.750543020665646">
        <ele>330.79787700000003</ele>
        <time>2026-04-07T08:03:22Z</time>
      </trkpt>
      <trkpt lat="50.367396958172321" lon="7.75023004040122">
        <ele>329.49989499999998</ele>
        <time>2026-04-07T08:03:26Z</time>
      </trkpt>
      <trkpt lat="50.367465019226074" lon="7.749830977991223">
        <ele>327.97035</ele>
        <time>2026-04-07T08:03:32Z</time>
      </trkpt>
      <trkpt lat="50.367555040866137" lon="7.749625034630299">
        <ele>327.11834700000003</ele>
        <time>2026-04-07T08:03:56Z</time>
      </trkpt>
      <trkpt lat="50.367580018937588" lon="7.749583041295409">
        <ele>326.92502999999999</ele>
        <time>2026-04-07T08:03:58Z</time>
      </trkpt>
      <trkpt lat="50.367952007800341" lon="7.749596033245325">
        <ele>324.91592100000003</ele>
        <time>2026-04-07T08:04:08Z</time>
      </trkpt>
      <trkpt lat="50.368225006386638" lon="7.749708015471697">
        <ele>323.42632600000002</ele>
        <time>2026-04-07T08:04:14Z</time>
      </trkpt>
      <trkpt lat="50.368648041039705" lon="7.750068018212915">
        <ele>320.88107100000002</ele>
        <time>2026-04-07T08:04:25Z</time>
      </trkpt>
      <trkpt lat="50.368840992450714" lon="7.750230962410569">
        <ele>319.71896700000002</ele>
        <time>2026-04-07T08:04:47Z</time>
      </trkpt>
      <trkpt lat="50.369285987690091" lon="7.750513013452292">
        <ele>316.94742100000002</ele>
        <time>2026-04-07T08:05:01Z</time>
      </trkpt>
      <trkpt lat="50.369513975456357" lon="7.750772014260292">
        <ele>315.28763400000003</ele>
        <time>2026-04-07T08:05:07Z</time>
      </trkpt>
      <trkpt lat="50.369628975167871" lon="7.750959014520049">
        <ele>314.31113299999998</ele>
        <time>2026-04-07T08:05:11Z</time>
      </trkpt>
      <trkpt lat="50.369679015129805" lon="7.75102699175477">
        <ele>313.921942</ele>
        <time>2026-04-07T08:05:13Z</time>
      </trkpt>
      <trkpt lat="50.369732994586229" lon="7.750675035640597">
        <ele>311.95429000000001</ele>
        <time>2026-04-07T08:05:22Z</time>
      </trkpt>
      <trkpt lat="50.369658982381225" lon="7.750491974875331">
        <ele>311.14167200000003</ele>
        <time>2026-04-07T08:05:25Z</time>
      </trkpt>
      <trkpt lat="50.369597962126136" lon="7.750153010711074">
        <ele>309.80830500000002</ele>
        <time>2026-04-07T08:05:30Z</time>
      </trkpt>
      <trkpt lat="50.369626963511109" lon="7.749878000468016">
        <ele>308.75841000000003</ele>
        <time>2026-04-07T08:05:34Z</time>
      </trkpt>
      <trkpt lat="50.369678009301424" lon="7.749648001044989">
        <ele>307.703304</ele>
        <time>2026-04-07T08:05:39Z</time>
      </trkpt>
      <trkpt lat="50.369355976581573" lon="7.749689994379878">
        <ele>305.39790799999997</ele>
        <time>2026-04-07T08:05:52Z</time>
      </trkpt>
      <trkpt lat="50.369339967146516" lon="7.749708015471697">
        <ele>305.26313900000002</ele>
        <time>2026-04-07T08:06:48Z</time>
      </trkpt>
      <trkpt lat="50.369380032643676" lon="7.7496940176934">
        <ele>304.95261199999999</ele>
        <time>2026-04-07T08:15:43Z</time>
      </trkpt>
      <trkpt lat="50.369467036798596" lon="7.749684965237975">
        <ele>304.35562499999997</ele>
        <time>2026-04-07T08:15:48Z</time>
      </trkpt>
      <trkpt lat="50.369928041473031" lon="7.749464018270373">
        <ele>300.99935799999997</ele>
        <time>2026-04-07T08:16:06Z</time>
      </trkpt>
      <trkpt lat="50.370074976235628" lon="7.749276012182236">
        <ele>299.69471600000003</ele>
        <time>2026-04-07T08:16:11Z</time>
      </trkpt>
      <trkpt lat="50.370095008984208" lon="7.74922102689743">
        <ele>299.41849100000002</ele>
        <time>2026-04-07T08:16:12Z</time>
      </trkpt>
      <trkpt lat="50.37009802646935" lon="7.748753987252712">
        <ele>297.36518100000001</ele>
        <time>2026-04-07T08:16:19Z</time>
      </trkpt>
      <trkpt lat="50.370065001770854" lon="7.748386021703482">
        <ele>295.54886599999998</ele>
        <time>2026-04-07T08:16:25Z</time>
      </trkpt>
      <trkpt lat="50.370308998972178" lon="7.748179994523525">
        <ele>292.49536899999998</ele>
        <time>2026-04-07T08:16:34Z</time>
      </trkpt>
      <trkpt lat="50.370634971186519" lon="7.748364983126521">
        <ele>289.36017199999998</ele>
        <time>2026-04-07T08:16:42Z</time>
      </trkpt>
      <trkpt lat="50.370893971994519" lon="7.748633958399296">
        <ele>286.560495</ele>
        <time>2026-04-07T08:16:49Z</time>
      </trkpt>
      <trkpt lat="50.371053982526064" lon="7.749204011633992">
        <ele>282.94663100000002</ele>
        <time>2026-04-07T08:16:57Z</time>
      </trkpt>
      <trkpt lat="50.371069991961122" lon="7.749957041814923">
        <ele>278.865951</ele>
        <time>2026-04-07T08:17:06Z</time>
      </trkpt>
      <trkpt lat="50.371041996404529" lon="7.750519970431924">
        <ele>276.16529800000001</ele>
        <time>2026-04-07T08:17:13Z</time>
      </trkpt>
      <trkpt lat="50.371092958375812" lon="7.750832028687">
        <ele>274.61769399999997</ele>
        <time>2026-04-07T08:17:17Z</time>
      </trkpt>
      <trkpt lat="50.371427983045578" lon="7.751193959265947">
        <ele>271.43980800000003</ele>
        <time>2026-04-07T08:17:25Z</time>
      </trkpt>
      <trkpt lat="50.371783962473273" lon="7.750967983156443">
        <ele>268.47247199999998</ele>
        <time>2026-04-07T08:17:31Z</time>
      </trkpt>
      <trkpt lat="50.372105995193124" lon="7.750504966825247">
        <ele>265.392247</ele>
        <time>2026-04-07T08:17:37Z</time>
      </trkpt>
      <trkpt lat="50.372459040954709" lon="7.749999035149813">
        <ele>262.27387700000003</ele>
        <time>2026-04-07T08:17:44Z</time>
      </trkpt>
      <trkpt lat="50.37293303757906" lon="7.749370979145169">
        <ele>258.22784000000001</ele>
        <time>2026-04-07T08:17:53Z</time>
      </trkpt>
      <trkpt lat="50.373035967350006" lon="7.749223960563541">
        <ele>257.31975899999998</ele>
        <time>2026-04-07T08:17:55Z</time>
      </trkpt>
      <trkpt lat="50.373189020901918" lon="7.748852977529168">
        <ele>255.47422399999999</ele>
        <time>2026-04-07T08:17:59Z</time>
      </trkpt>
      <trkpt lat="50.373412985354662" lon="7.748222993686795">
        <ele>251.56424200000001</ele>
        <time>2026-04-07T08:18:05Z</time>
      </trkpt>
      <trkpt lat="50.373652037233114" lon="7.747725024819374">
        <ele>248.023158</ele>
        <time>2026-04-07T08:18:10Z</time>
      </trkpt>
      <trkpt lat="50.37398798391223" lon="7.747175004333258">
        <ele>243.69556800000001</ele>
        <time>2026-04-07T08:18:16Z</time>
      </trkpt>
      <trkpt lat="50.374532975256443" lon="7.746865963563323">
        <ele>238.48928699999999</ele>
        <time>2026-04-07T08:18:24Z</time>
      </trkpt>
      <trkpt lat="50.374592989683151" lon="7.746844002977014">
        <ele>237.95740000000001</ele>
        <time>2026-04-07T08:18:25Z</time>
      </trkpt>
      <trkpt lat="50.374747971072793" lon="7.746763033792377">
        <ele>236.54709700000001</ele>
        <time>2026-04-07T08:18:28Z</time>
      </trkpt>
      <trkpt lat="50.375158013775945" lon="7.746655996888876">
        <ele>232.95688799999999</ele>
        <time>2026-04-07T08:18:36Z</time>
      </trkpt>
      <trkpt lat="50.375452972948551" lon="7.746586007997394">
        <ele>230.37596600000001</ele>
        <time>2026-04-07T08:18:41Z</time>
      </trkpt>
      <trkpt lat="50.375762013718486" lon="7.746563963592053">
        <ele>227.70477199999999</ele>
        <time>2026-04-07T08:18:46Z</time>
      </trkpt>
      <trkpt lat="50.375976003706455" lon="7.746719028800726">
        <ele>225.65309999999999</ele>
        <time>2026-04-07T08:18:50Z</time>
      </trkpt>
      <trkpt lat="50.376224024221301" lon="7.746928995475173">
        <ele>223.20828299999999</ele>
        <time>2026-04-07T08:18:55Z</time>
      </trkpt>
      <trkpt lat="50.376366013661027" lon="7.746609980240464">
        <ele>219.97525099999999</ele>
        <time>2026-04-07T08:19:03Z</time>
      </trkpt>
      <trkpt lat="50.376292001456022" lon="7.74640697054565">
        <ele>218.61569600000001</ele>
        <time>2026-04-07T08:19:06Z</time>
      </trkpt>
      <trkpt lat="50.376269035041332" lon="7.746345028281212">
        <ele>218.198645</ele>
        <time>2026-04-07T08:19:07Z</time>
      </trkpt>
      <trkpt lat="50.376386968418956" lon="7.745981002226472">
        <ele>215.009387</ele>
        <time>2026-04-07T08:19:16Z</time>
      </trkpt>
      <trkpt lat="50.376420998945832" lon="7.746006986126304">
        <ele>214.664501</ele>
        <time>2026-04-07T08:19:17Z</time>
      </trkpt>
      <trkpt lat="50.376512026414275" lon="7.746077980846167">
        <ele>213.737796</ele>
        <time>2026-04-07T08:19:19Z</time>
      </trkpt>
      <trkpt lat="50.376855013892055" lon="7.746265986934304">
        <ele>210.42497900000001</ele>
        <time>2026-04-07T08:19:25Z</time>
      </trkpt>
      <trkpt lat="50.377184003591537" lon="7.7464509755373">
        <ele>207.23685499999999</ele>
        <time>2026-04-07T08:19:31Z</time>
      </trkpt>
      <trkpt lat="50.377516010776162" lon="7.74664300493896">
        <ele>204.09829999999999</ele>
        <time>2026-04-07T08:19:37Z</time>
      </trkpt>
      <trkpt lat="50.377897974103689" lon="7.746866969391704">
        <ele>200.48707099999999</ele>
        <time>2026-04-07T08:19:45Z</time>
      </trkpt>
      <trkpt lat="50.378133002668619" lon="7.74674903601408">
        <ele>198.24513899999999</ele>
        <time>2026-04-07T08:19:50Z</time>
      </trkpt>
      <trkpt lat="50.378431985154748" lon="7.746482994407415">
        <ele>195.201955</ele>
        <time>2026-04-07T08:20:01Z</time>
      </trkpt>
      <trkpt lat="50.37843500263989" lon="7.746467990800738">
        <ele>195.113223</ele>
        <time>2026-04-07T08:20:02Z</time>
      </trkpt>
      <trkpt lat="50.378275997936726" lon="7.745914030820131">
        <ele>191.65811500000001</ele>
        <time>2026-04-07T08:20:12Z</time>
      </trkpt>
      <trkpt lat="50.378183964639902" lon="7.745680008083582">
        <ele>190.693343</ele>
        <time>2026-04-07T08:20:15Z</time>
      </trkpt>
      <trkpt lat="50.378047004342079" lon="7.74543802253902">
        <ele>189.94030799999999</ele>
        <time>2026-04-07T08:20:18Z</time>
      </trkpt>
      <trkpt lat="50.377825973555446" lon="7.745109032839537">
        <ele>188.82894899999999</ele>
        <time>2026-04-07T08:20:22Z</time>
      </trkpt>
      <trkpt lat="50.377458008006215" lon="7.74475296959281">
        <ele>187.25131999999999</ele>
        <time>2026-04-07T08:20:27Z</time>
      </trkpt>
      <trkpt lat="50.376514960080385" lon="7.744014021009207">
        <ele>183.609556</ele>
        <time>2026-04-07T08:20:40Z</time>
      </trkpt>
      <trkpt lat="50.376081028953195" lon="7.743686037138104">
        <ele>182.16772399999999</ele>
        <time>2026-04-07T08:20:46Z</time>
      </trkpt>
      <trkpt lat="50.375471999868751" lon="7.743186978623271">
        <ele>180.11054300000001</ele>
        <time>2026-04-07T08:20:54Z</time>
      </trkpt>
      <trkpt lat="50.374613022431731" lon="7.742321966215968">
        <ele>177.031824</ele>
        <time>2026-04-07T08:21:08Z</time>
      </trkpt>
      <trkpt lat="50.374044980853796" lon="7.741578994318843">
        <ele>174.79521199999999</ele>
        <time>2026-04-07T08:21:18Z</time>
      </trkpt>
      <trkpt lat="50.373346013948321" lon="7.740720016881824">
        <ele>172.33136200000001</ele>
        <time>2026-04-07T08:21:31Z</time>
      </trkpt>
      <trkpt lat="50.37332103587687" lon="7.740237973630428">
        <ele>171.448376</ele>
        <time>2026-04-07T08:21:36Z</time>
      </trkpt>
      <trkpt lat="50.373457996174693" lon="7.739758025854826">
        <ele>170.57620600000001</ele>
        <time>2026-04-07T08:21:41Z</time>
      </trkpt>
      <trkpt lat="50.373483980074525" lon="7.73922803811729">
        <ele>169.675613</ele>
        <time>2026-04-07T08:21:48Z</time>
      </trkpt>
      <trkpt lat="50.373685983940959" lon="7.738513983786106">
        <ele>169.65231399999999</ele>
        <time>2026-04-07T08:22:16Z</time>
      </trkpt>
      <trkpt lat="50.374262994155288" lon="7.737686019390822">
        <ele>171.48488800000001</ele>
        <time>2026-04-07T08:22:56Z</time>
      </trkpt>
      <trkpt lat="50.374372964724898" lon="7.737628016620874">
        <ele>171.78227100000001</ele>
        <time>2026-04-07T08:23:25Z</time>
      </trkpt>
      <trkpt lat="50.375138986855745" lon="7.737310007214546">
        <ele>174.187243</ele>
        <time>2026-04-07T08:24:43Z</time>
      </trkpt>
      <trkpt lat="50.375675009563565" lon="7.737074978649616">
        <ele>177.33889300000001</ele>
        <time>2026-04-07T08:25:11Z</time>
      </trkpt>
      <trkpt lat="50.376155963167548" lon="7.736794017255306">
        <ele>180.256889</ele>
        <time>2026-04-07T08:25:39Z</time>
      </trkpt>
      <trkpt lat="50.376570029184222" lon="7.73661196231842">
        <ele>182.69463200000001</ele>
        <time>2026-04-07T08:25:59Z</time>
      </trkpt>
      <trkpt lat="50.3768250066787" lon="7.736500985920429">
        <ele>184.63204500000001</ele>
        <time>2026-04-07T08:26:12Z</time>
      </trkpt>
      <trkpt lat="50.377013012766838" lon="7.736461004242301">
        <ele>186.29487</ele>
        <time>2026-04-07T08:26:22Z</time>
      </trkpt>
      <trkpt lat="50.376905975863338" lon="7.736272998154163">
        <ele>189.10898399999999</ele>
        <time>2026-04-07T08:26:42Z</time>
      </trkpt>
      <trkpt lat="50.376745965331793" lon="7.736268974840641">
        <ele>190.51020299999999</ele>
        <time>2026-04-07T08:26:52Z</time>
      </trkpt>
      <trkpt lat="50.376501968130469" lon="7.736279033124447">
        <ele>192.643584</ele>
        <time>2026-04-07T08:27:06Z</time>
      </trkpt>
      <trkpt lat="50.376151017844677" lon="7.736249025911093">
        <ele>195.73460800000001</ele>
        <time>2026-04-07T08:27:25Z</time>
      </trkpt>
      <trkpt lat="50.375868966802955" lon="7.736170990392566">
        <ele>198.23922999999999</ele>
        <time>2026-04-07T08:27:42Z</time>
      </trkpt>
      <trkpt lat="50.375734018161893" lon="7.736131008714438">
        <ele>199.396334</ele>
        <time>2026-04-07T08:27:49Z</time>
      </trkpt>
      <trkpt lat="50.375637961551547" lon="7.736095972359181">
        <ele>200.152547</ele>
        <time>2026-04-07T08:27:55Z</time>
      </trkpt>
      <trkpt lat="50.375705016776919" lon="7.735914001241326">
        <ele>201.520039</ele>
        <time>2026-04-07T08:28:06Z</time>
      </trkpt>
      <trkpt lat="50.376057978719473" lon="7.736011985689402">
        <ele>204.28275099999999</ele>
        <time>2026-04-07T08:28:32Z</time>
      </trkpt>
      <trkpt lat="50.376275992020965" lon="7.736016009002924">
        <ele>205.95910900000001</ele>
        <time>2026-04-07T08:28:42Z</time>
      </trkpt>
      <trkpt lat="50.376294013112783" lon="7.735998993739486">
        <ele>206.12032600000001</ele>
        <time>2026-04-07T08:28:43Z</time>
      </trkpt>
      <trkpt lat="50.376448994502425" lon="7.735906960442662">
        <ele>207.39613199999999</ele>
        <time>2026-04-07T08:28:51Z</time>
      </trkpt>
      <trkpt lat="50.37654597312212" lon="7.735753990709782">
        <ele>208.51850099999999</ele>
        <time>2026-04-07T08:29:00Z</time>
      </trkpt>
      <trkpt lat="50.376945035532117" lon="7.735666986554861">
        <ele>211.63026199999999</ele>
        <time>2026-04-07T08:29:25Z</time>
      </trkpt>
      <trkpt lat="50.377206970006227" lon="7.735628010705113">
        <ele>213.613846</ele>
        <time>2026-04-07T08:29:40Z</time>
      </trkpt>
      <trkpt lat="50.377419032156467" lon="7.735576964914799">
        <ele>215.18141900000001</ele>
        <time>2026-04-07T08:29:52Z</time>
      </trkpt>
      <trkpt lat="50.377789009362459" lon="7.735263984650374">
        <ele>218.33951099999999</ele>
        <time>2026-04-07T08:30:15Z</time>
      </trkpt>
      <trkpt lat="50.377884982153773" lon="7.735074972733855">
        <ele>219.45942099999999</ele>
        <time>2026-04-07T08:30:23Z</time>
      </trkpt>
      <trkpt lat="50.377980032935739" lon="7.734398972243071">
        <ele>222.727383</ele>
        <time>2026-04-07T08:30:47Z</time>
      </trkpt>
      <trkpt lat="50.378044992685318" lon="7.734194034710527">
        <ele>223.78806299999999</ele>
        <time>2026-04-07T08:30:54Z</time>
      </trkpt>
      <trkpt lat="50.378143982961774" lon="7.734047016128898">
        <ele>224.777514</ele>
        <time>2026-04-07T08:31:00Z</time>
      </trkpt>
      <trkpt lat="50.378144988790154" lon="7.734018014743924">
        <ele>224.911922</ele>
        <time>2026-04-07T08:31:01Z</time>
      </trkpt>
      <trkpt lat="50.378217995166779" lon="7.733866972848773">
        <ele>225.78937400000001</ele>
        <time>2026-04-07T08:31:08Z</time>
      </trkpt>
      <trkpt lat="50.37830600515008" lon="7.733689025044441">
        <ele>226.95993999999999</ele>
        <time>2026-04-07T08:31:16Z</time>
      </trkpt>
      <trkpt lat="50.378431985154748" lon="7.73327998816967">
        <ele>229.38281799999999</ele>
        <time>2026-04-07T08:31:33Z</time>
      </trkpt>
      <trkpt lat="50.378599036484957" lon="7.732617985457182">
        <ele>233.172506</ele>
        <time>2026-04-07T08:31:58Z</time>
      </trkpt>
      <trkpt lat="50.378609010949731" lon="7.73259099572897">
        <ele>233.337591</ele>
        <time>2026-04-07T08:31:59Z</time>
      </trkpt>
      <trkpt lat="50.378761980682611" lon="7.732066037133336">
        <ele>236.39263800000001</ele>
        <time>2026-04-07T08:32:20Z</time>
      </trkpt>
      <trkpt lat="50.378881003707647" lon="7.731709973886609">
        <ele>238.52335400000001</ele>
        <time>2026-04-07T08:32:35Z</time>
      </trkpt>
      <trkpt lat="50.379040008410811" lon="7.731206975877285">
        <ele>241.88655499999999</ele>
        <time>2026-04-07T08:32:59Z</time>
      </trkpt>
      <trkpt lat="50.379035985097289" lon="7.731192978098989">
        <ele>242.011595</ele>
        <time>2026-04-07T08:33:28Z</time>
      </trkpt>
      <trkpt lat="50.379029028117657" lon="7.731147967278957">
        <ele>242.38913500000001</ele>
        <time>2026-04-07T08:33:30Z</time>
      </trkpt>
      <trkpt lat="50.378916040062904" lon="7.730824006721377">
        <ele>245.48601400000001</ele>
        <time>2026-04-07T08:33:46Z</time>
      </trkpt>
      <trkpt lat="50.378723004832864" lon="7.730598030611873">
        <ele>248.57797400000001</ele>
        <time>2026-04-07T08:34:03Z</time>
      </trkpt>
      <trkpt lat="50.378712024539709" lon="7.730585960671306">
        <ele>248.749245</ele>
        <time>2026-04-07T08:34:04Z</time>
      </trkpt>
      <trkpt lat="50.378451012074947" lon="7.730296030640602">
        <ele>252.841917</ele>
        <time>2026-04-07T08:34:27Z</time>
      </trkpt>
      <trkpt lat="50.378437014296651" lon="7.730283960700035">
        <ele>253.04584399999999</ele>
        <time>2026-04-07T08:34:28Z</time>
      </trkpt>
      <trkpt lat="50.378309022635221" lon="7.730170972645283">
        <ele>254.92342500000001</ele>
        <time>2026-04-07T08:34:38Z</time>
      </trkpt>
      <trkpt lat="50.378078017383814" lon="7.729937033727765">
        <ele>258.43982899999997</ele>
        <time>2026-04-07T08:34:58Z</time>
      </trkpt>
      <trkpt lat="50.377968968823552" lon="7.729853969067335">
        <ele>259.99144000000001</ele>
        <time>2026-04-07T08:35:06Z</time>
      </trkpt>
      <trkpt lat="50.377796972170472" lon="7.729689013212919">
        <ele>262.58362299999999</ele>
        <time>2026-04-07T08:35:21Z</time>
      </trkpt>
      <trkpt lat="50.377722959965467" lon="7.729620030149818">
        <ele>263.68608999999998</ele>
        <time>2026-04-07T08:35:28Z</time>
      </trkpt>
      <trkpt lat="50.377616006880999" lon="7.729520034044981">
        <ele>265.08257700000001</ele>
        <time>2026-04-07T08:35:37Z</time>
      </trkpt>
      <trkpt lat="50.377620030194521" lon="7.729516010731459">
        <ele>265.32814999999999</ele>
        <time>2026-04-07T08:36:43Z</time>
      </trkpt>
      <trkpt lat="50.377414003014565" lon="7.729344014078379">
        <ele>267.92967099999998</ele>
        <time>2026-04-07T08:40:31Z</time>
      </trkpt>
      <trkpt lat="50.377133041620255" lon="7.729054000228643">
        <ele>271.73921000000001</ele>
        <time>2026-04-07T08:40:55Z</time>
      </trkpt>
      <trkpt lat="50.37712499499321" lon="7.729037990793586">
        <ele>271.88237199999998</ele>
        <time>2026-04-07T08:40:56Z</time>
      </trkpt>
      <trkpt lat="50.376979988068342" lon="7.728749988600612">
        <ele>274.46855199999999</ele>
        <time>2026-04-07T08:41:12Z</time>
      </trkpt>
      <trkpt lat="50.376861970871687" lon="7.728486964479089">
        <ele>276.73992199999998</ele>
        <time>2026-04-07T08:41:26Z</time>
      </trkpt>
      <trkpt lat="50.376747976988554" lon="7.728195022791624">
        <ele>279.159156</ele>
        <time>2026-04-07T08:41:40Z</time>
      </trkpt>
      <trkpt lat="50.376638006418943" lon="7.727872990071774">
        <ele>281.733114</ele>
        <time>2026-04-07T08:41:55Z</time>
      </trkpt>
      <trkpt lat="50.376584026962519" lon="7.727746004238725">
        <ele>282.80796199999997</ele>
        <time>2026-04-07T08:42:02Z</time>
      </trkpt>
      <trkpt lat="50.376519989222288" lon="7.727652965113521">
        <ele>283.73154899999997</ele>
        <time>2026-04-07T08:42:08Z</time>
      </trkpt>
      <trkpt lat="50.376335000619292" lon="7.727409973740578">
        <ele>284.82199400000002</ele>
        <time>2026-04-07T08:42:25Z</time>
      </trkpt>
      <trkpt lat="50.376053033396602" lon="7.726420992985368">
        <ele>287.94924300000002</ele>
        <time>2026-04-07T08:43:02Z</time>
      </trkpt>
      <trkpt lat="50.375840971246362" lon="7.725391024723649">
        <ele>291.04259500000001</ele>
        <time>2026-04-07T08:43:34Z</time>
      </trkpt>
      <trkpt lat="50.375880030915141" lon="7.724848967045546">
        <ele>292.08552300000002</ele>
        <time>2026-04-07T08:44:06Z</time>
      </trkpt>
      <trkpt lat="50.375779028981924" lon="7.724068025127053">
        <ele>293.09324700000002</ele>
        <time>2026-04-07T08:44:26Z</time>
      </trkpt>
      <trkpt lat="50.376125033944845" lon="7.723376015201211">
        <ele>294.14060799999999</ele>
        <time>2026-04-07T08:44:47Z</time>
      </trkpt>
      <trkpt lat="50.376645969226956" lon="7.722575962543488">
        <ele>297.15864499999998</ele>
        <time>2026-04-07T08:45:21Z</time>
      </trkpt>
      <trkpt lat="50.376704977825284" lon="7.722480995580554">
        <ele>297.90140600000001</ele>
        <time>2026-04-07T08:45:25Z</time>
      </trkpt>
      <trkpt lat="50.37697403691709" lon="7.722104983404279">
        <ele>301.06195000000002</ele>
        <time>2026-04-07T08:45:42Z</time>
      </trkpt>
      <trkpt lat="50.377292968332767" lon="7.721664011478424">
        <ele>304.80597799999998</ele>
        <time>2026-04-07T08:46:05Z</time>
      </trkpt>
      <trkpt lat="50.377302020788193" lon="7.721641967073083">
        <ele>304.95198799999997</ele>
        <time>2026-04-07T08:46:06Z</time>
      </trkpt>
      <trkpt lat="50.377405034378171" lon="7.721282970160246">
        <ele>307.17140599999999</ele>
        <time>2026-04-07T08:46:22Z</time>
      </trkpt>
      <trkpt lat="50.377473011612892" lon="7.720917016267777">
        <ele>309.31194599999998</ele>
        <time>2026-04-07T08:46:38Z</time>
      </trkpt>
      <trkpt lat="50.377564039081335" lon="7.72013196721673">
        <ele>312.67495700000001</ele>
        <time>2026-04-07T08:47:10Z</time>
      </trkpt>
      <trkpt lat="50.377625981345773" lon="7.719278018921614">
        <ele>315.71923199999998</ele>
        <time>2026-04-07T08:47:39Z</time>
      </trkpt>
      <trkpt lat="50.377596979960799" lon="7.718202034011483">
        <ele>319.50232399999999</ele>
        <time>2026-04-07T08:48:03Z</time>
      </trkpt>
      <trkpt lat="50.377596979960799" lon="7.718150988221169">
        <ele>319.68137000000002</ele>
        <time>2026-04-07T08:48:04Z</time>
      </trkpt>
      <trkpt lat="50.377583988010883" lon="7.715503983199596">
        <ele>319.23556100000002</ele>
        <time>2026-04-07T08:48:49Z</time>
      </trkpt>
      <trkpt lat="50.377580970525742" lon="7.715144986286759">
        <ele>319.008645</ele>
        <time>2026-04-07T08:48:53Z</time>
      </trkpt>
      <trkpt lat="50.377680966630578" lon="7.714838040992618">
        <ele>318.28992199999999</ele>
        <time>2026-04-07T08:48:57Z</time>
      </trkpt>
      <trkpt lat="50.377720026299357" lon="7.714766040444374">
        <ele>318.03797500000002</ele>
        <time>2026-04-07T08:48:58Z</time>
      </trkpt>
      <trkpt lat="50.377955976873636" lon="7.714443001896143">
        <ele>316.72643699999998</ele>
        <time>2026-04-07T08:49:03Z</time>
      </trkpt>
      <trkpt lat="50.378008028492332" lon="7.714378964155912">
        <ele>316.44997999999998</ele>
        <time>2026-04-07T08:49:04Z</time>
      </trkpt>
      <trkpt lat="50.378337018191814" lon="7.714021978899837">
        <ele>314.77622300000002</ele>
        <time>2026-04-07T08:49:10Z</time>
      </trkpt>
      <trkpt lat="50.378772038966417" lon="7.713865991681814">
        <ele>312.88539100000003</ele>
        <time>2026-04-07T08:49:16Z</time>
      </trkpt>
      <trkpt lat="50.380487982183695" lon="7.713918965309858">
        <ele>311.843345</ele>
        <time>2026-04-07T08:49:53Z</time>
      </trkpt>
      <trkpt lat="50.381230032071471" lon="7.713509006425738">
        <ele>313.40335800000003</ele>
        <time>2026-04-07T08:50:16Z</time>
      </trkpt>
      <trkpt lat="50.381577964872122" lon="7.71329602226615">
        <ele>314.90123199999999</ele>
        <time>2026-04-07T08:50:28Z</time>
      </trkpt>
      <trkpt lat="50.38236896507442" lon="7.712584985420108">
        <ele>318.66987599999999</ele>
        <time>2026-04-07T08:50:59Z</time>
      </trkpt>
      <trkpt lat="50.382599970325828" lon="7.711978973820806">
        <ele>319.52414900000002</ele>
        <time>2026-04-07T08:51:12Z</time>
      </trkpt>
      <trkpt lat="50.383627004921436" lon="7.709845025092363">
        <ele>321.22963499999997</ele>
        <time>2026-04-07T08:51:55Z</time>
      </trkpt>
      <trkpt lat="50.38402103818953" lon="7.709529027342796">
        <ele>321.52335199999999</ele>
        <time>2026-04-07T08:52:11Z</time>
      </trkpt>
      <trkpt lat="50.38417199626565" lon="7.70968995988369">
        <ele>321.65020399999997</ele>
        <time>2026-04-07T08:52:17Z</time>
      </trkpt>
      <trkpt lat="50.385303972288966" lon="7.711472036316991">
        <ele>323.81302299999999</ele>
        <time>2026-04-07T08:52:53Z</time>
      </trkpt>
      <trkpt lat="50.386132020503283" lon="7.713203988969326">
        <ele>326.975819</ele>
        <time>2026-04-07T08:53:35Z</time>
      </trkpt>
      <trkpt lat="50.386918997392058" lon="7.714639976620674">
        <ele>330.05331799999999</ele>
        <time>2026-04-07T08:54:10Z</time>
      </trkpt>
      <trkpt lat="50.387999005615711" lon="7.715970017015934">
        <ele>333.45951700000001</ele>
        <time>2026-04-07T08:54:50Z</time>
      </trkpt>
      <trkpt lat="50.388991003856063" lon="7.717221016064286">
        <ele>336.59821099999999</ele>
        <time>2026-04-07T08:55:27Z</time>
      </trkpt>
      <trkpt lat="50.389961041510105" lon="7.718614004552364">
        <ele>339.63783799999999</ele>
        <time>2026-04-07T08:56:04Z</time>
      </trkpt>
      <trkpt lat="50.38999498821795" lon="7.718652980402112">
        <ele>339.608992</ele>
        <time>2026-04-07T08:56:05Z</time>
      </trkpt>
      <trkpt lat="50.39080903865397" lon="7.720014033839107">
        <ele>338.77426200000002</ele>
        <time>2026-04-07T08:56:36Z</time>
      </trkpt>
      <trkpt lat="50.390934012830257" lon="7.720103971660137">
        <ele>338.680071</ele>
        <time>2026-04-07T08:56:40Z</time>
      </trkpt>
      <trkpt lat="50.391301978379488" lon="7.720806039869785">
        <ele>338.12635</ele>
        <time>2026-04-07T08:57:04Z</time>
      </trkpt>
      <trkpt lat="50.391323016956449" lon="7.720783995464444">
        <ele>338.09712100000002</ele>
        <time>2026-04-07T09:05:34Z</time>
      </trkpt>
      <trkpt lat="50.391357969492674" lon="7.720762034878135">
        <ele>338.05343599999998</ele>
        <time>2026-04-07T09:05:36Z</time>
      </trkpt>
      <trkpt lat="50.392058026045561" lon="7.720290971919894">
        <ele>337.17121800000001</ele>
        <time>2026-04-07T09:05:57Z</time>
      </trkpt>
      <trkpt lat="50.392218036577106" lon="7.720403959974647">
        <ele>336.95072599999997</ele>
        <time>2026-04-07T09:06:04Z</time>
      </trkpt>
      <trkpt lat="50.392291964963078" lon="7.72051502019167">
        <ele>336.83217400000001</ele>
        <time>2026-04-07T09:06:09Z</time>
      </trkpt>
      <trkpt lat="50.392535040155053" lon="7.720477972179651">
        <ele>336.54388999999998</ele>
        <time>2026-04-07T09:06:20Z</time>
      </trkpt>
      <trkpt lat="50.393740022554994" lon="7.720599006861448">
        <ele>338.348975</ele>
        <time>2026-04-07T09:07:04Z</time>
      </trkpt>
      <trkpt lat="50.394997978582978" lon="7.721154978498817">
        <ele>341.04313999999999</ele>
        <time>2026-04-07T09:07:48Z</time>
      </trkpt>
      <trkpt lat="50.396288959309459" lon="7.721574995666742">
        <ele>344.10377</ele>
        <time>2026-04-07T09:08:30Z</time>
      </trkpt>
      <trkpt lat="50.397418001666665" lon="7.722257031127811">
        <ele>346.84560699999997</ele>
        <time>2026-04-07T09:09:07Z</time>
      </trkpt>
      <trkpt lat="50.397641966119409" lon="7.723014000803232">
        <ele>348.088954</ele>
        <time>2026-04-07T09:09:48Z</time>
      </trkpt>
      <trkpt lat="50.397611036896706" lon="7.723218016326428">
        <ele>348.37515300000001</ele>
        <time>2026-04-07T09:10:09Z</time>
      </trkpt>
      <trkpt lat="50.397137040272355" lon="7.72462198510766">
        <ele>350.59092600000002</ele>
        <time>2026-04-07T09:10:46Z</time>
      </trkpt>
      <trkpt lat="50.396494986489415" lon="7.726352009922266">
        <ele>353.91114700000003</ele>
        <time>2026-04-07T09:11:32Z</time>
      </trkpt>
      <trkpt lat="50.395760983228683" lon="7.727191960439086">
        <ele>356.52891199999999</ele>
        <time>2026-04-07T09:12:06Z</time>
      </trkpt>
      <trkpt lat="50.395685965195298" lon="7.727320035919547">
        <ele>356.84828099999999</ele>
        <time>2026-04-07T09:12:09Z</time>
      </trkpt>
      <trkpt lat="50.395458983257413" lon="7.72801598533988">
        <ele>357.27256699999998</ele>
        <time>2026-04-07T09:12:24Z</time>
      </trkpt>
      <trkpt lat="50.395371979102492" lon="7.728428039699793">
        <ele>357.50004100000001</ele>
        <time>2026-04-07T09:12:35Z</time>
      </trkpt>
      <trkpt lat="50.395454037934542" lon="7.728717969730496">
        <ele>357.66897999999998</ele>
        <time>2026-04-07T09:12:43Z</time>
      </trkpt>
      <trkpt lat="50.395736005157232" lon="7.729373015463352">
        <ele>358.083394</ele>
        <time>2026-04-07T09:12:53Z</time>
      </trkpt>
      <trkpt lat="50.395872965455055" lon="7.729687001556158">
        <ele>358.28313700000001</ele>
        <time>2026-04-07T09:12:58Z</time>
      </trkpt>
      <trkpt lat="50.396670000627637" lon="7.731103040277958">
        <ele>355.62091400000003</ele>
        <time>2026-04-07T09:13:31Z</time>
      </trkpt>
      <trkpt lat="50.396908968687057" lon="7.731262966990471">
        <ele>355.00834200000003</ele>
        <time>2026-04-07T09:13:37Z</time>
      </trkpt>
      <trkpt lat="50.396950962021947" lon="7.731282999739051">
        <ele>354.90544299999999</ele>
        <time>2026-04-07T09:13:38Z</time>
      </trkpt>
      <trkpt lat="50.397156989201903" lon="7.731553986668587">
        <ele>354.262632</ele>
        <time>2026-04-07T09:13:45Z</time>
      </trkpt>
      <trkpt lat="50.397243993356824" lon="7.731764037162066">
        <ele>354.329724</ele>
        <time>2026-04-07T09:13:49Z</time>
      </trkpt>
      <trkpt lat="50.397479021921754" lon="7.73248303681612">
        <ele>355.53470099999998</ele>
        <time>2026-04-07T09:14:14Z</time>
      </trkpt>
      <trkpt lat="50.397972967475653" lon="7.733366992324591">
        <ele>357.29566199999999</ele>
        <time>2026-04-07T09:15:15Z</time>
      </trkpt>
      <trkpt lat="50.39835199713707" lon="7.734454041346908">
        <ele>360.43473499999999</ele>
        <time>2026-04-07T09:15:48Z</time>
      </trkpt>
      <trkpt lat="50.398593982681632" lon="7.735222997143865">
        <ele>363.63543199999998</ele>
        <time>2026-04-07T09:16:11Z</time>
      </trkpt>
      <trkpt lat="50.39869599044323" lon="7.735561961308122">
        <ele>365.034201</ele>
        <time>2026-04-07T09:16:21Z</time>
      </trkpt>
      <trkpt lat="50.398962032049894" lon="7.73643996566534">
        <ele>368.677076</ele>
        <time>2026-04-07T09:16:49Z</time>
      </trkpt>
      <trkpt lat="50.399102009832859" lon="7.737200036644936">
        <ele>371.27777800000001</ele>
        <time>2026-04-07T09:17:12Z</time>
      </trkpt>
      <trkpt lat="50.399226984009147" lon="7.737929010763764">
        <ele>373.748988</ele>
        <time>2026-04-07T09:17:33Z</time>
      </trkpt>
      <trkpt lat="50.399246010929346" lon="7.738339975476265">
        <ele>375.10474799999997</ele>
        <time>2026-04-07T09:17:44Z</time>
      </trkpt>
      <trkpt lat="50.399161018431187" lon="7.739501958712935">
        <ele>378.11640399999999</ele>
        <time>2026-04-07T09:18:16Z</time>
      </trkpt>
      <trkpt lat="50.399440973997116" lon="7.741592992097139">
        <ele>379.05662699999999</ele>
        <time>2026-04-07T09:19:02Z</time>
      </trkpt>
      <trkpt lat="50.399686982855201" lon="7.744018966332078">
        <ele>381.095662</ele>
        <time>2026-04-07T09:19:52Z</time>
      </trkpt>
      <trkpt lat="50.399972973391414" lon="7.74556802585721">
        <ele>383.98036999999999</ele>
        <time>2026-04-07T09:20:33Z</time>
      </trkpt>
      <trkpt lat="50.399975990876555" lon="7.745605995878577">
        <ele>384.06881499999997</ele>
        <time>2026-04-07T09:21:45Z</time>
      </trkpt>
      <trkpt lat="50.39998697116971" lon="7.746777031570673">
        <ele>386.78729199999998</ele>
        <time>2026-04-07T09:22:58Z</time>
      </trkpt>
      <trkpt lat="50.399910025298595" lon="7.747632991522551">
        <ele>388.408638</ele>
        <time>2026-04-07T09:23:25Z</time>
      </trkpt>
      <trkpt lat="50.399981020018458" lon="7.747948989272118">
        <ele>388.65442300000001</ele>
        <time>2026-04-07T09:23:35Z</time>
      </trkpt>
      <trkpt lat="50.400094008073211" lon="7.748538991436362">
        <ele>389.10495200000003</ele>
        <time>2026-04-07T09:23:51Z</time>
      </trkpt>
      <trkpt lat="50.400089984759688" lon="7.748720962554216">
        <ele>389.24116099999998</ele>
        <time>2026-04-07T09:23:59Z</time>
      </trkpt>
      <trkpt lat="50.400407994166017" lon="7.749098986387253">
        <ele>389.69640099999998</ele>
        <time>2026-04-07T09:24:37Z</time>
      </trkpt>
      <trkpt lat="50.400904035195708" lon="7.749664010480046">
        <ele>390.17734400000001</ele>
        <time>2026-04-07T09:25:03Z</time>
      </trkpt>
      <trkpt lat="50.401003025472164" lon="7.749741040170193">
        <ele>390.083146</ele>
        <time>2026-04-07T09:25:07Z</time>
      </trkpt>
      <trkpt lat="50.401180973276496" lon="7.749976990744472">
        <ele>389.88341400000002</ele>
        <time>2026-04-07T09:25:18Z</time>
      </trkpt>
      <trkpt lat="50.402076998725533" lon="7.750951973721385">
        <ele>388.942319</ele>
        <time>2026-04-07T09:26:08Z</time>
      </trkpt>
      <trkpt lat="50.402180012315512" lon="7.750994972884655">
        <ele>388.85256600000002</ele>
        <time>2026-04-07T09:26:13Z</time>
      </trkpt>
      <trkpt lat="50.402299035340548" lon="7.751173004508019">
        <ele>389.09294899999998</ele>
        <time>2026-04-07T09:26:19Z</time>
      </trkpt>
      <trkpt lat="50.402400037273765" lon="7.751335026696324">
        <ele>390.08708200000001</ele>
        <time>2026-04-07T09:26:25Z</time>
      </trkpt>
      <trkpt lat="50.402405988425016" lon="7.751360004767776">
        <ele>390.204272</ele>
        <time>2026-04-07T09:26:26Z</time>
      </trkpt>
      <trkpt lat="50.402415040880442" lon="7.751385988667607">
        <ele>390.334068</ele>
        <time>2026-04-07T09:26:27Z</time>
      </trkpt>
      <trkpt lat="50.40269298478961" lon="7.752073975279927">
        <ele>393.92031200000002</ele>
        <time>2026-04-07T09:26:56Z</time>
      </trkpt>
      <trkpt lat="50.402942011132836" lon="7.75248602963984">
        <ele>396.43193500000001</ele>
        <time>2026-04-07T09:27:17Z</time>
      </trkpt>
      <trkpt lat="50.402942011132836" lon="7.752511007711291">
        <ele>396.541607</ele>
        <time>2026-04-07T09:27:18Z</time>
      </trkpt>
      <trkpt lat="50.402913009747863" lon="7.752634976059198">
        <ele>397.12104299999999</ele>
        <time>2026-04-07T09:27:23Z</time>
      </trkpt>
      <trkpt lat="50.402747970074415" lon="7.75332204066217">
        <ele>400.34225199999997</ele>
        <time>2026-04-07T09:27:54Z</time>
      </trkpt>
      <trkpt lat="50.402801027521491" lon="7.753459000959992">
        <ele>401.07084200000003</ele>
        <time>2026-04-07T09:28:01Z</time>
      </trkpt>
      <trkpt lat="50.403004959225655" lon="7.75394800119102">
        <ele>403.31210199999998</ele>
        <time>2026-04-07T09:28:43Z</time>
      </trkpt>
      <trkpt lat="50.403290027752519" lon="7.754716034978628">
        <ele>406.68062200000003</ele>
        <time>2026-04-07T09:29:14Z</time>
      </trkpt>
      <trkpt lat="50.403548022732139" lon="7.755431011319161">
        <ele>409.79403500000001</ele>
        <time>2026-04-07T09:29:44Z</time>
      </trkpt>
      <trkpt lat="50.403825966641307" lon="7.756171971559525">
        <ele>413.13714199999998</ele>
        <time>2026-04-07T09:30:15Z</time>
      </trkpt>
      <trkpt lat="50.403882041573524" lon="7.756315972656012">
        <ele>413.82022999999998</ele>
        <time>2026-04-07T09:30:21Z</time>
      </trkpt>
      <trkpt lat="50.404141964390874" lon="7.75702198036015">
        <ele>417.12523299999998</ele>
        <time>2026-04-07T09:30:50Z</time>
      </trkpt>
      <trkpt lat="50.404271967709064" lon="7.757323980331421">
        <ele>418.60092700000001</ele>
        <time>2026-04-07T09:31:03Z</time>
      </trkpt>
      <trkpt lat="50.404543038457632" lon="7.758090002462268">
        <ele>422.149722</ele>
        <time>2026-04-07T09:31:35Z</time>
      </trkpt>
      <trkpt lat="50.404941011220217" lon="7.759162969887257">
        <ele>425.36830900000001</ele>
        <time>2026-04-07T09:32:16Z</time>
      </trkpt>
      <trkpt lat="50.405391035601497" lon="7.760355966165662">
        <ele>428.40531199999998</ele>
        <time>2026-04-07T09:32:56Z</time>
      </trkpt>
      <trkpt lat="50.405831001698971" lon="7.761619035154581">
        <ele>430.37586399999998</ele>
        <time>2026-04-07T09:33:36Z</time>
      </trkpt>
      <trkpt lat="50.406019007787108" lon="7.761549968272448">
        <ele>430.67791099999999</ele>
        <time>2026-04-07T09:33:47Z</time>
      </trkpt>
      <trkpt lat="50.406088996678591" lon="7.761507974937558">
        <ele>430.79281300000002</ele>
        <time>2026-04-07T09:34:58Z</time>
      </trkpt>
      <trkpt lat="50.406834986060858" lon="7.760947979986668">
        <ele>432.06193100000002</ele>
        <time>2026-04-07T09:35:29Z</time>
      </trkpt>
      <trkpt lat="50.408154968172312" lon="7.75871898047626">
        <ele>430.09748200000001</ele>
        <time>2026-04-07T09:36:20Z</time>
      </trkpt>
      <trkpt lat="50.408598035573959" lon="7.756931958720088">
        <ele>429.15311100000002</ele>
        <time>2026-04-07T09:36:54Z</time>
      </trkpt>
      <trkpt lat="50.40873097255826" lon="7.755524972453713">
        <ele>428.98133999999999</ele>
        <time>2026-04-07T09:37:14Z</time>
      </trkpt>
      <trkpt lat="50.408715968951583" lon="7.755305031314492">
        <ele>429.03902599999998</ele>
        <time>2026-04-07T09:37:17Z</time>
      </trkpt>
      <trkpt lat="50.408508013933897" lon="7.752793980762363">
        <ele>429.57640300000003</ele>
        <time>2026-04-07T09:37:50Z</time>
      </trkpt>
      <trkpt lat="50.408617984503508" lon="7.751994011923671">
        <ele>429.63073600000001</ele>
        <time>2026-04-07T09:38:01Z</time>
      </trkpt>
      <trkpt lat="50.409556003287435" lon="7.749212980270386">
        <ele>427.57601599999998</ele>
        <time>2026-04-07T09:38:44Z</time>
      </trkpt>
      <trkpt lat="50.409681983292103" lon="7.748231962323189">
        <ele>426.36571700000002</ele>
        <time>2026-04-07T09:38:58Z</time>
      </trkpt>
      <trkpt lat="50.409744009375572" lon="7.747015999630094">
        <ele>425.170388</ele>
        <time>2026-04-07T09:39:14Z</time>
      </trkpt>
      <trkpt lat="50.409864960238338" lon="7.746462039649487">
        <ele>424.59853700000002</ele>
        <time>2026-04-07T09:39:23Z</time>
      </trkpt>
      <trkpt lat="50.41044800542295" lon="7.744203032925725">
        <ele>422.58435800000001</ele>
        <time>2026-04-07T09:39:55Z</time>
      </trkpt>
      <trkpt lat="50.410512965172529" lon="7.743673967197537">
        <ele>422.19892499999997</ele>
        <time>2026-04-07T09:40:02Z</time>
      </trkpt>
      <trkpt lat="50.410616984590888" lon="7.742828987538815">
        <ele>421.58317799999998</ele>
        <time>2026-04-07T09:40:14Z</time>
      </trkpt>
      <trkpt lat="50.410885037854314" lon="7.742138989269733">
        <ele>422.00681300000002</ele>
        <time>2026-04-07T09:40:28Z</time>
      </trkpt>
      <trkpt lat="50.412141988053918" lon="7.739236000925303">
        <ele>424.59773300000001</ele>
        <time>2026-04-07T09:41:20Z</time>
      </trkpt>
      <trkpt lat="50.4122310038656" lon="7.738920003175736">
        <ele>424.934642</ele>
        <time>2026-04-07T09:41:25Z</time>
      </trkpt>
      <trkpt lat="50.412258999422193" lon="7.738712970167399">
        <ele>425.14099900000002</ele>
        <time>2026-04-07T09:41:28Z</time>
      </trkpt>
      <trkpt lat="50.412384979426861" lon="7.737766988575459">
        <ele>426.01637799999997</ele>
        <time>2026-04-07T09:41:42Z</time>
      </trkpt>
      <trkpt lat="50.412397971376777" lon="7.737632039934397">
        <ele>426.09640999999999</ele>
        <time>2026-04-07T09:41:44Z</time>
      </trkpt>
      <trkpt lat="50.412515988573432" lon="7.73667398840189">
        <ele>426.66845599999999</ele>
        <time>2026-04-07T09:41:59Z</time>
      </trkpt>
      <trkpt lat="50.412537027150393" lon="7.736481036990881">
        <ele>426.7833</ele>
        <time>2026-04-07T09:42:02Z</time>
      </trkpt>
      <trkpt lat="50.412806002423167" lon="7.734444988891482">
        <ele>425.54576700000001</ele>
        <time>2026-04-07T09:42:31Z</time>
      </trkpt>
      <trkpt lat="50.412867022678256" lon="7.734104013070464">
        <ele>424.572812</ele>
        <time>2026-04-07T09:42:35Z</time>
      </trkpt>
      <trkpt lat="50.412892000749707" lon="7.733807964250445">
        <ele>423.75433399999997</ele>
        <time>2026-04-07T09:42:38Z</time>
      </trkpt>
      <trkpt lat="50.412905998528004" lon="7.733719032257795">
        <ele>423.50304799999998</ele>
        <time>2026-04-07T09:42:39Z</time>
      </trkpt>
      <trkpt lat="50.412972969934344" lon="7.733169011771679">
        <ele>421.96707500000002</ele>
        <time>2026-04-07T09:42:45Z</time>
      </trkpt>
      <trkpt lat="50.412976993247867" lon="7.732820995151997">
        <ele>421.01279399999999</ele>
        <time>2026-04-07T09:42:49Z</time>
      </trkpt>
      <trkpt lat="50.412981016561389" lon="7.732574986293912">
        <ele>420.33825100000001</ele>
        <time>2026-04-07T09:42:52Z</time>
      </trkpt>
      <trkpt lat="50.412937011569738" lon="7.731460025534034">
        <ele>417.286226</ele>
        <time>2026-04-07T09:43:04Z</time>
      </trkpt>
      <trkpt lat="50.412923013791442" lon="7.731177974492312">
        <ele>416.51409000000001</ele>
        <time>2026-04-07T09:43:07Z</time>
      </trkpt>
      <trkpt lat="50.41289602406323" lon="7.730425028130412">
        <ele>414.45499999999998</ele>
        <time>2026-04-07T09:43:15Z</time>
      </trkpt>
      <trkpt lat="50.412873979657888" lon="7.729953965172172">
        <ele>413.16576600000002</ele>
        <time>2026-04-07T09:43:20Z</time>
      </trkpt>
      <trkpt lat="50.412868028506637" lon="7.729484997689724">
        <ele>411.91356200000001</ele>
        <time>2026-04-07T09:43:25Z</time>
      </trkpt>
      <trkpt lat="50.412839027121663" lon="7.729028016328812">
        <ele>410.807728</ele>
        <time>2026-04-07T09:43:30Z</time>
      </trkpt>
      <trkpt lat="50.412814971059561" lon="7.728847973048687">
        <ele>410.36496099999999</ele>
        <time>2026-04-07T09:43:32Z</time>
      </trkpt>
      <trkpt lat="50.412564016878605" lon="7.728266017511487">
        <ele>408.662395</ele>
        <time>2026-04-07T09:43:40Z</time>
      </trkpt>
      <trkpt lat="50.412174006924033" lon="7.727566966786981">
        <ele>406.42529100000002</ele>
        <time>2026-04-07T09:43:51Z</time>
      </trkpt>
      <trkpt lat="50.411734962835908" lon="7.726828018203378">
        <ele>403.57449300000002</ele>
        <time>2026-04-07T09:44:01Z</time>
      </trkpt>
      <trkpt lat="50.411704033613205" lon="7.726760040968657">
        <ele>403.31043299999999</ele>
        <time>2026-04-07T09:44:02Z</time>
      </trkpt>
      <trkpt lat="50.41158702224493" lon="7.726548984646797">
        <ele>402.427074</ele>
        <time>2026-04-07T09:44:05Z</time>
      </trkpt>
      <trkpt lat="50.411419970914721" lon="7.726237010210753">
        <ele>401.140197</ele>
        <time>2026-04-07T09:44:10Z</time>
      </trkpt>
      <trkpt lat="50.411023003980517" lon="7.725239982828498">
        <ele>397.416068</ele>
        <time>2026-04-07T09:44:24Z</time>
      </trkpt>
      <trkpt lat="50.411000037565827" lon="7.725163036957383">
        <ele>397.14748700000001</ele>
        <time>2026-04-07T09:44:25Z</time>
      </trkpt>
      <trkpt lat="50.410847989842296" lon="7.72462097927928">
        <ele>395.32973600000003</ele>
        <time>2026-04-07T09:44:32Z</time>
      </trkpt>
      <trkpt lat="50.410774983465672" lon="7.724241027608514">
        <ele>394.13375300000001</ele>
        <time>2026-04-07T09:44:37Z</time>
      </trkpt>
      <trkpt lat="50.410739025101066" lon="7.724008010700345">
        <ele>393.41141699999997</ele>
        <time>2026-04-07T09:44:40Z</time>
      </trkpt>
      <trkpt lat="50.410699965432286" lon="7.723518004640937">
        <ele>391.92364199999997</ele>
        <time>2026-04-07T09:44:46Z</time>
      </trkpt>
      <trkpt lat="50.410674987360835" lon="7.722984999418259">
        <ele>390.31317799999999</ele>
        <time>2026-04-07T09:44:52Z</time>
      </trkpt>
      <trkpt lat="50.410690996795893" lon="7.721940027549863">
        <ele>387.098727</ele>
        <time>2026-04-07T09:45:05Z</time>
      </trkpt>
      <trkpt lat="50.410684961825609" lon="7.721675997599959">
        <ele>386.23271699999998</ele>
        <time>2026-04-07T09:45:34Z</time>
      </trkpt>
      <trkpt lat="50.410675993189216" lon="7.721178028732538">
        <ele>384.60806200000002</ele>
        <time>2026-04-07T09:45:44Z</time>
      </trkpt>
      <trkpt lat="50.411364985629916" lon="7.720664972439408">
        <ele>380.24976299999997</ele>
        <time>2026-04-07T09:46:02Z</time>
      </trkpt>
      <trkpt lat="50.41141401976347" lon="7.72064502350986">
        <ele>379.990835</ele>
        <time>2026-04-07T09:46:03Z</time>
      </trkpt>
      <trkpt lat="50.411810986697674" lon="7.720266999676824">
        <ele>377.88799799999998</ele>
        <time>2026-04-07T09:46:12Z</time>
      </trkpt>
      <trkpt lat="50.412097983062267" lon="7.719890987500548">
        <ele>376.46037899999999</ele>
        <time>2026-04-07T09:46:19Z</time>
      </trkpt>
      <trkpt lat="50.412176018580794" lon="7.719781016930938">
        <ele>376.06012199999998</ele>
        <time>2026-04-07T09:46:21Z</time>
      </trkpt>
      <trkpt lat="50.411786008626223" lon="7.719331998378038">
        <ele>372.77417000000003</ele>
        <time>2026-04-07T09:46:37Z</time>
      </trkpt>
      <trkpt lat="50.411733034998178" lon="7.719363011419773">
        <ele>372.558291</ele>
        <time>2026-04-07T09:46:38Z</time>
      </trkpt>
      <trkpt lat="50.411150995641947" lon="7.719337027519941">
        <ele>370.40756299999998</ele>
        <time>2026-04-07T09:46:49Z</time>
      </trkpt>
      <trkpt lat="50.410887971520424" lon="7.719198977574706">
        <ele>369.428766</ele>
        <time>2026-04-07T09:46:54Z</time>
      </trkpt>
      <trkpt lat="50.409917011857033" lon="7.718949029222131">
        <ele>365.944841</ele>
        <time>2026-04-07T09:47:15Z</time>
      </trkpt>
      <trkpt lat="50.409676032140851" lon="7.718924973160029">
        <ele>365.16048000000001</ele>
        <time>2026-04-07T09:47:20Z</time>
      </trkpt>
      <trkpt lat="50.408652015030384" lon="7.718710983172059">
        <ele>362.112709</ele>
        <time>2026-04-07T09:47:39Z</time>
      </trkpt>
      <trkpt lat="50.408600969240069" lon="7.71869296208024">
        <ele>361.95862699999998</ele>
        <time>2026-04-07T09:47:40Z</time>
      </trkpt>
      <trkpt lat="50.408264016732574" lon="7.718589026480913">
        <ele>360.94620800000001</ele>
        <time>2026-04-07T09:47:47Z</time>
      </trkpt>
      <trkpt lat="50.407406967133284" lon="7.719373991712928">
        <ele>361.23387700000001</ele>
        <time>2026-04-07T09:48:16Z</time>
      </trkpt>
      <trkpt lat="50.407302025705576" lon="7.719368962571025">
        <ele>361.36482000000001</ele>
        <time>2026-04-07T09:48:21Z</time>
      </trkpt>
      <trkpt lat="50.407202029600739" lon="7.71929201669991">
        <ele>361.50272999999999</ele>
        <time>2026-04-07T09:48:27Z</time>
      </trkpt>
      <trkpt lat="50.407128017395735" lon="7.718866970390081">
        <ele>361.855864</ele>
        <time>2026-04-07T09:48:39Z</time>
      </trkpt>
      <trkpt lat="50.407034978270531" lon="7.717331992462277">
        <ele>362.961884</ele>
        <time>2026-04-07T09:49:19Z</time>
      </trkpt>
      <trkpt lat="50.406748987734318" lon="7.716663032770157">
        <ele>363.468862</ele>
        <time>2026-04-07T09:49:56Z</time>
      </trkpt>
      <trkpt lat="50.406015990301967" lon="7.715150015428662">
        <ele>363.06663800000001</ele>
        <time>2026-04-07T09:50:34Z</time>
      </trkpt>
      <trkpt lat="50.405108984559774" lon="7.713310020044446">
        <ele>359.87460099999998</ele>
        <time>2026-04-07T09:51:15Z</time>
      </trkpt>
      <trkpt lat="50.40477798320353" lon="7.712411982938647">
        <ele>359.253623</ele>
        <time>2026-04-07T09:51:33Z</time>
      </trkpt>
      <trkpt lat="50.404747975990176" lon="7.711727013811469">
        <ele>358.84469899999999</ele>
        <time>2026-04-07T09:51:45Z</time>
      </trkpt>
      <trkpt lat="50.404578996822238" lon="7.708994010463357">
        <ele>361.04472399999997</ele>
        <time>2026-04-07T09:52:37Z</time>
      </trkpt>
      <trkpt lat="50.404027970507741" lon="7.706886967644095">
        <ele>361.20775900000001</ele>
        <time>2026-04-07T09:53:21Z</time>
      </trkpt>
      <trkpt lat="50.40402696467936" lon="7.706834999844432">
        <ele>361.16993200000002</ele>
        <time>2026-04-07T09:53:22Z</time>
      </trkpt>
      <trkpt lat="50.404085973277688" lon="7.706326972693205">
        <ele>360.79211199999997</ele>
        <time>2026-04-07T09:53:33Z</time>
      </trkpt>
      <trkpt lat="50.404171971604228" lon="7.704898025840521">
        <ele>357.95326599999999</ele>
        <time>2026-04-07T09:54:03Z</time>
      </trkpt>
      <trkpt lat="50.404164008796215" lon="7.704857960343361">
        <ele>357.80219299999999</ele>
        <time>2026-04-07T09:55:10Z</time>
      </trkpt>
      <trkpt lat="50.404161997139454" lon="7.704830970615149">
        <ele>357.70424100000002</ele>
        <time>2026-04-07T09:55:28Z</time>
      </trkpt>
      <trkpt lat="50.404215976595879" lon="7.70414499565959">
        <ele>355.21280300000001</ele>
        <time>2026-04-07T09:55:39Z</time>
      </trkpt>
      <trkpt lat="50.404224023222923" lon="7.70390996709466">
        <ele>354.36390399999999</ele>
        <time>2026-04-07T09:55:42Z</time>
      </trkpt>
      <trkpt lat="50.40424196049571" lon="7.703409986570478">
        <ele>352.55458299999998</ele>
        <time>2026-04-07T09:55:48Z</time>
      </trkpt>
      <trkpt lat="50.404284037649632" lon="7.702982006594539">
        <ele>350.99381599999998</ele>
        <time>2026-04-07T09:55:53Z</time>
      </trkpt>
      <trkpt lat="50.404299963265657" lon="7.702902965247631">
        <ele>350.69510600000001</ele>
        <time>2026-04-07T09:55:54Z</time>
      </trkpt>
      <trkpt lat="50.404318990185857" lon="7.702739015221596">
        <ele>350.09443499999998</ele>
        <time>2026-04-07T09:55:56Z</time>
      </trkpt>
      <trkpt lat="50.404439019039273" lon="7.701422972604632">
        <ele>347.13756000000001</ele>
        <time>2026-04-07T09:56:12Z</time>
      </trkpt>
      <trkpt lat="50.404804972931743" lon="7.700787037611008">
        <ele>345.14302700000002</ele>
        <time>2026-04-07T09:56:23Z</time>
      </trkpt>
      <trkpt lat="50.404849983751774" lon="7.700757030397654">
        <ele>344.97387700000002</ele>
        <time>2026-04-07T09:56:24Z</time>
      </trkpt>
      <trkpt lat="50.40584902279079" lon="7.700196029618383">
        <ele>343.24888299999998</ele>
        <time>2026-04-07T09:56:52Z</time>
      </trkpt>
      <trkpt lat="50.406134007498622" lon="7.699997965246439">
        <ele>343.006708</ele>
        <time>2026-04-07T09:57:00Z</time>
      </trkpt>
      <trkpt lat="50.40628002025187" lon="7.700134003534913">
        <ele>342.87511799999999</ele>
        <time>2026-04-07T09:57:07Z</time>
      </trkpt>
      <trkpt lat="50.407101027667522" lon="7.700753007084131">
        <ele>341.72660500000001</ele>
        <time>2026-04-07T09:57:47Z</time>
      </trkpt>
      <trkpt lat="50.40746396407485" lon="7.700962973758578">
        <ele>340.89504299999999</ele>
        <time>2026-04-07T09:58:04Z</time>
      </trkpt>
      <trkpt lat="50.407660016790032" lon="7.700738003477454">
        <ele>340.35861899999998</ele>
        <time>2026-04-07T09:58:30Z</time>
      </trkpt>
      <trkpt lat="50.407704021781683" lon="7.700696010142565">
        <ele>340.24810100000002</ele>
        <time>2026-04-07T09:58:32Z</time>
      </trkpt>
      <trkpt lat="50.408853013068438" lon="7.699340991675854">
        <ele>338.20786500000003</ele>
        <time>2026-04-07T09:58:56Z</time>
      </trkpt>
      <trkpt lat="50.409327009692788" lon="7.698505986481905">
        <ele>337.817116</ele>
        <time>2026-04-07T09:59:18Z</time>
      </trkpt>
      <trkpt lat="50.409518033266068" lon="7.696695998311043">
        <ele>336.45730700000001</ele>
        <time>2026-04-07T09:59:54Z</time>
      </trkpt>
      <trkpt lat="50.409617023542523" lon="7.696383018046618">
        <ele>336.12415700000003</ele>
        <time>2026-04-07T09:59:59Z</time>
      </trkpt>
      <trkpt lat="50.40972095914185" lon="7.696078000590205">
        <ele>335.79462899999999</ele>
        <time>2026-04-07T10:00:04Z</time>
      </trkpt>
      <trkpt lat="50.409844005480409" lon="7.69578798674047">
        <ele>335.46274699999998</ele>
        <time>2026-04-07T10:00:09Z</time>
      </trkpt>
      <trkpt lat="50.409978032112122" lon="7.695561004802585">
        <ele>335.16789299999999</ele>
        <time>2026-04-07T10:00:14Z</time>
      </trkpt>
      <trkpt lat="50.410830974578857" lon="7.694367002695799">
        <ele>331.75514500000003</ele>
        <time>2026-04-07T10:00:47Z</time>
      </trkpt>
      <trkpt lat="50.411201035603881" lon="7.693706005811691">
        <ele>329.92496499999999</ele>
        <time>2026-04-07T10:01:01Z</time>
      </trkpt>
      <trkpt lat="50.411691041663289" lon="7.692944006994367">
        <ele>327.23395599999998</ele>
        <time>2026-04-07T10:01:19Z</time>
      </trkpt>
      <trkpt lat="50.411873012781143" lon="7.692705960944295">
        <ele>326.22112499999997</ele>
        <time>2026-04-07T10:01:24Z</time>
      </trkpt>
      <trkpt lat="50.412262016907334" lon="7.692417958751321">
        <ele>324.38012700000002</ele>
        <time>2026-04-07T10:01:32Z</time>
      </trkpt>
      <trkpt lat="50.412453040480614" lon="7.692321985960007">
        <ele>323.52314100000001</ele>
        <time>2026-04-07T10:01:36Z</time>
      </trkpt>
      <trkpt lat="50.412671975791454" lon="7.692250991240144">
        <ele>322.56759</ele>
        <time>2026-04-07T10:01:40Z</time>
      </trkpt>
      <trkpt lat="50.41289602406323" lon="7.692193994298577">
        <ele>321.59793400000001</ele>
        <time>2026-04-07T10:01:44Z</time>
      </trkpt>
      <trkpt lat="50.412950003519654" lon="7.692188965156674">
        <ele>321.36678999999998</ele>
        <time>2026-04-07T10:01:45Z</time>
      </trkpt>
      <trkpt lat="50.413055028766394" lon="7.692196005955339">
        <ele>321.11323299999998</ele>
        <time>2026-04-07T10:01:47Z</time>
      </trkpt>
      <trkpt lat="50.413286034017801" lon="7.692216960713267">
        <ele>320.58250399999997</ele>
        <time>2026-04-07T10:01:51Z</time>
      </trkpt>
      <trkpt lat="50.413819039240479" lon="7.692541005089879">
        <ele>319.26741399999997</ele>
        <time>2026-04-07T10:02:03Z</time>
      </trkpt>
      <trkpt lat="50.414269985631108" lon="7.69271501339972">
        <ele>318.19061099999999</ele>
        <time>2026-04-07T10:02:38Z</time>
      </trkpt>
      <trkpt lat="50.41442496702075" lon="7.692591967061162">
        <ele>317.78730999999999</ele>
        <time>2026-04-07T10:02:45Z</time>
      </trkpt>
      <trkpt lat="50.4147660266608" lon="7.692913999781013">
        <ele>317.02521000000002</ele>
        <time>2026-04-07T10:02:57Z</time>
      </trkpt>
      <trkpt lat="50.416424972936511" lon="7.694676965475082">
        <ele>314.16919899999999</ele>
        <time>2026-04-07T10:03:48Z</time>
      </trkpt>
      <trkpt lat="50.416925037279725" lon="7.694965973496437">
        <ele>312.99490100000003</ele>
        <time>2026-04-07T10:04:00Z</time>
      </trkpt>
      <trkpt lat="50.417010029777884" lon="7.694997992366552">
        <ele>312.80226199999998</ele>
        <time>2026-04-07T10:04:02Z</time>
      </trkpt>
      <trkpt lat="50.417307000607252" lon="7.695105029270053">
        <ele>312.13056399999999</ele>
        <time>2026-04-07T10:04:09Z</time>
      </trkpt>
      <trkpt lat="50.417491989210248" lon="7.695152973756194">
        <ele>311.71732400000002</ele>
        <time>2026-04-07T10:04:13Z</time>
      </trkpt>
      <trkpt lat="50.418298998847604" lon="7.695202007889748">
        <ele>309.98489699999999</ele>
        <time>2026-04-07T10:04:36Z</time>
      </trkpt>
      <trkpt lat="50.418781964108348" lon="7.695133024826646">
        <ele>308.96486900000002</ele>
        <time>2026-04-07T10:04:49Z</time>
      </trkpt>
      <trkpt lat="50.419131992384791" lon="7.695059012621641">
        <ele>308.22557499999999</ele>
        <time>2026-04-07T10:04:56Z</time>
      </trkpt>
      <trkpt lat="50.419268030673265" lon="7.695005033165216">
        <ele>307.931918</ele>
        <time>2026-04-07T10:04:59Z</time>
      </trkpt>
      <trkpt lat="50.420233961194754" lon="7.694394998252392">
        <ele>305.80981800000001</ele>
        <time>2026-04-07T10:05:17Z</time>
      </trkpt>
      <trkpt lat="50.420880038291216" lon="7.693545995280147">
        <ele>304.116603</ele>
        <time>2026-04-07T10:05:34Z</time>
      </trkpt>
      <trkpt lat="50.421111965551972" lon="7.693153973668814">
        <ele>303.61785800000001</ele>
        <time>2026-04-07T10:06:05Z</time>
      </trkpt>
      <trkpt lat="50.422346033155918" lon="7.691306015476584">
        <ele>303.32346999999999</ele>
        <time>2026-04-07T10:06:51Z</time>
      </trkpt>
      <trkpt lat="50.422772001475096" lon="7.691042991355062">
        <ele>303.37017600000001</ele>
        <time>2026-04-07T10:07:06Z</time>
      </trkpt>
      <trkpt lat="50.424504037946463" lon="7.690432034432888">
        <ele>303.30922800000002</ele>
        <time>2026-04-07T10:07:50Z</time>
      </trkpt>
      <trkpt lat="50.424588024616241" lon="7.690389035269618">
        <ele>303.27104800000001</ele>
        <time>2026-04-07T10:07:52Z</time>
      </trkpt>
      <trkpt lat="50.424878038465977" lon="7.690230030566454">
        <ele>303.13807600000001</ele>
        <time>2026-04-07T10:08:00Z</time>
      </trkpt>
      <trkpt lat="50.426270021125674" lon="7.689066035673022">
        <ele>301.23951399999999</ele>
        <time>2026-04-07T10:08:34Z</time>
      </trkpt>
      <trkpt lat="50.426753992214799" lon="7.688352987170219">
        <ele>299.68870099999998</ele>
        <time>2026-04-07T10:08:47Z</time>
      </trkpt>
      <trkpt lat="50.427055992186069" lon="7.6877720374614">
        <ele>298.57306799999998</ele>
        <time>2026-04-07T10:08:56Z</time>
      </trkpt>
      <trkpt lat="50.427717994898558" lon="7.686132034286857">
        <ele>300.43342999999999</ele>
        <time>2026-04-07T10:09:29Z</time>
      </trkpt>
      <trkpt lat="50.427797036245465" lon="7.685907986015081">
        <ele>300.68396799999999</ele>
        <time>2026-04-07T10:09:36Z</time>
      </trkpt>
      <trkpt lat="50.42778798379004" lon="7.685722997412086">
        <ele>300.86660699999999</ele>
        <time>2026-04-07T10:09:41Z</time>
      </trkpt>
      <trkpt lat="50.427650017663836" lon="7.685115979984403">
        <ele>300.79438699999997</ele>
        <time>2026-04-07T10:09:55Z</time>
      </trkpt>
      <trkpt lat="50.428056959062815" lon="7.685062000527978">
        <ele>298.86962199999999</ele>
        <time>2026-04-07T10:10:09Z</time>
      </trkpt>
      <trkpt lat="50.428877966478467" lon="7.684470992535353">
        <ele>295.60313500000001</ele>
        <time>2026-04-07T10:10:31Z</time>
      </trkpt>
      <trkpt lat="50.429198993369937" lon="7.6842509675771">
        <ele>294.29490299999998</ele>
        <time>2026-04-07T10:10:37Z</time>
      </trkpt>
      <trkpt lat="50.429499987512827" lon="7.684216015040875">
        <ele>293.09435000000002</ele>
        <time>2026-04-07T10:10:43Z</time>
      </trkpt>
      <trkpt lat="50.430335998535156" lon="7.683751992881298">
        <ele>289.591656</ele>
        <time>2026-04-07T10:11:01Z</time>
      </trkpt>
      <trkpt lat="50.430549988523126" lon="7.683664988726378">
        <ele>288.71840900000001</ele>
        <time>2026-04-07T10:11:06Z</time>
      </trkpt>
      <trkpt lat="50.430685020983219" lon="7.683604974299669">
        <ele>288.16413799999998</ele>
        <time>2026-04-07T10:11:36Z</time>
      </trkpt>
      <trkpt lat="50.431033037602901" lon="7.683444041758776">
        <ele>287.47722199999998</ele>
        <time>2026-04-07T10:11:47Z</time>
      </trkpt>
      <trkpt lat="50.431103026494384" lon="7.683690972626209">
        <ele>287.29322500000001</ele>
        <time>2026-04-07T10:12:00Z</time>
      </trkpt>
      <trkpt lat="50.431035971269011" lon="7.683966988697648">
        <ele>287.13025299999998</ele>
        <time>2026-04-07T10:12:10Z</time>
      </trkpt>
      <trkpt lat="50.43133202008903" lon="7.683914015069604">
        <ele>286.85366900000002</ele>
        <time>2026-04-07T10:12:20Z</time>
      </trkpt>
      <trkpt lat="50.432100975885987" lon="7.683579996228218">
        <ele>286.16674399999999</ele>
        <time>2026-04-07T10:12:43Z</time>
      </trkpt>
      <trkpt lat="50.432240031659603" lon="7.68343498930335">
        <ele>285.91563500000001</ele>
        <time>2026-04-07T10:12:47Z</time>
      </trkpt>
      <trkpt lat="50.432382021099329" lon="7.683271039277315">
        <ele>285.633443</ele>
        <time>2026-04-07T10:12:51Z</time>
      </trkpt>
      <trkpt lat="50.432699024677277" lon="7.682817997410893">
        <ele>284.94723399999998</ele>
        <time>2026-04-07T10:13:01Z</time>
      </trkpt>
      <trkpt lat="50.432909997180104" lon="7.682968033477664">
        <ele>284.561621</ele>
        <time>2026-04-07T10:13:09Z</time>
      </trkpt>
      <trkpt lat="50.433498993515968" lon="7.683629030361772">
        <ele>283.39537999999999</ele>
        <time>2026-04-07T10:13:34Z</time>
      </trkpt>
      <trkpt lat="50.433750031515956" lon="7.683373969048262">
        <ele>283.16316699999999</ele>
        <time>2026-04-07T10:13:44Z</time>
      </trkpt>
      <trkpt lat="50.434817969799042" lon="7.680676002055407">
        <ele>282.39945499999999</ele>
        <time>2026-04-07T10:14:36Z</time>
      </trkpt>
      <trkpt lat="50.434988038614392" lon="7.680226983502507">
        <ele>282.37436200000002</ele>
        <time>2026-04-07T10:14:44Z</time>
      </trkpt>
      <trkpt lat="50.435575023293495" lon="7.678180038928986">
        <ele>282.49537500000002</ele>
        <time>2026-04-07T10:15:47Z</time>
      </trkpt>
      <trkpt lat="50.435572005808353" lon="7.678175009787083">
        <ele>282.49733500000002</ele>
        <time>2026-04-07T10:15:57Z</time>
      </trkpt>
      <trkpt lat="50.436153039336205" lon="7.678166041150689">
        <ele>282.78315900000001</ele>
        <time>2026-04-07T10:16:23Z</time>
      </trkpt>
      <trkpt lat="50.436250017955899" lon="7.678249021992087">
        <ele>282.83266400000002</ele>
        <time>2026-04-07T10:16:26Z</time>
      </trkpt>
      <trkpt lat="50.436952002346516" lon="7.677601017057896">
        <ele>283.36416200000002</ele>
        <time>2026-04-07T10:16:47Z</time>
      </trkpt>
      <trkpt lat="50.437036994844675" lon="7.677318966016173">
        <ele>283.52174000000002</ele>
        <time>2026-04-07T10:16:53Z</time>
      </trkpt>
      <trkpt lat="50.437744008377194" lon="7.675045961514115">
        <ele>284.10621800000001</ele>
        <time>2026-04-07T10:17:38Z</time>
      </trkpt>
      <trkpt lat="50.437864037230611" lon="7.674551010131836">
        <ele>283.69049000000001</ele>
        <time>2026-04-07T10:17:46Z</time>
      </trkpt>
      <trkpt lat="50.438000997528434" lon="7.674142979085445">
        <ele>283.32722000000001</ele>
        <time>2026-04-07T10:17:53Z</time>
      </trkpt>
      <trkpt lat="50.438263015821576" lon="7.673193980008364">
        <ele>282.51431100000002</ele>
        <time>2026-04-07T10:18:12Z</time>
      </trkpt>
      <trkpt lat="50.438350019976497" lon="7.672894997522235">
        <ele>282.04540400000002</ele>
        <time>2026-04-07T10:18:17Z</time>
      </trkpt>
      <trkpt lat="50.438426965847611" lon="7.672584028914571">
        <ele>280.87829699999998</ele>
        <time>2026-04-07T10:18:22Z</time>
      </trkpt>
      <trkpt lat="50.438438029959798" lon="7.672444973140955">
        <ele>280.388621</ele>
        <time>2026-04-07T10:18:25Z</time>
      </trkpt>
      <trkpt lat="50.438297968357801" lon="7.672242969274521">
        <ele>279.20275099999998</ele>
        <time>2026-04-07T10:18:35Z</time>
      </trkpt>
      <trkpt lat="50.437834030017257" lon="7.671871986240149">
        <ele>276.28113000000002</ele>
        <time>2026-04-07T10:18:56Z</time>
      </trkpt>
      <trkpt lat="50.437732022255659" lon="7.671976005658507">
        <ele>275.52516200000002</ele>
        <time>2026-04-07T10:19:05Z</time>
      </trkpt>
      <trkpt lat="50.437740990892053" lon="7.671882966533303">
        <ele>274.97759500000001</ele>
        <time>2026-04-07T10:19:13Z</time>
      </trkpt>
      <trkpt lat="50.437577962875366" lon="7.671836027875543">
        <ele>273.893258</ele>
        <time>2026-04-07T10:19:22Z</time>
      </trkpt>
      <trkpt lat="50.437350980937481" lon="7.671715999022126">
        <ele>272.578506</ele>
        <time>2026-04-07T10:19:28Z</time>
      </trkpt>
      <trkpt lat="50.437173033133149" lon="7.671592030674219">
        <ele>272.10289899999998</ele>
        <time>2026-04-07T10:19:34Z</time>
      </trkpt>
      <trkpt lat="50.437180995941162" lon="7.671365970745683">
        <ele>271.79145899999997</ele>
        <time>2026-04-07T10:19:40Z</time>
      </trkpt>
      <trkpt lat="50.437625991180539" lon="7.669528992846608">
        <ele>269.28465999999997</ele>
        <time>2026-04-07T10:20:27Z</time>
      </trkpt>
      <trkpt lat="50.437646023929119" lon="7.669478030875325">
        <ele>269.20663999999999</ele>
        <time>2026-04-07T10:20:54Z</time>
      </trkpt>
      <trkpt lat="50.437677958980203" lon="7.669258005917072">
        <ele>268.91898200000003</ele>
        <time>2026-04-07T10:20:58Z</time>
      </trkpt>
      <trkpt lat="50.437815003097057" lon="7.668116977438331">
        <ele>272.07499899999999</ele>
        <time>2026-04-07T10:21:24Z</time>
      </trkpt>
      <trkpt lat="50.437969984486699" lon="7.667073011398315">
        <ele>275.19800400000003</ele>
        <time>2026-04-07T10:21:51Z</time>
      </trkpt>
      <trkpt lat="50.438005020841956" lon="7.666354011744261">
        <ele>277.19842</ele>
        <time>2026-04-07T10:22:08Z</time>
      </trkpt>
      <trkpt lat="50.437527000904083" lon="7.664270019158721">
        <ele>280.42504500000001</ele>
        <time>2026-04-07T10:22:47Z</time>
      </trkpt>
      <trkpt lat="50.436878995969892" lon="7.661336017772555">
        <ele>281.01824699999997</ele>
        <time>2026-04-07T10:23:35Z</time>
      </trkpt>
      <trkpt lat="50.436872960999608" lon="7.661298969760537">
        <ele>281.01581900000002</ele>
        <time>2026-04-07T10:23:36Z</time>
      </trkpt>
      <trkpt lat="50.437473021447659" lon="7.65986499376595">
        <ele>283.33475499999997</ele>
        <time>2026-04-07T10:24:08Z</time>
      </trkpt>
      <trkpt lat="50.438275001943111" lon="7.657904969528318">
        <ele>286.34785199999999</ele>
        <time>2026-04-07T10:24:49Z</time>
      </trkpt>
      <trkpt lat="50.438801972195506" lon="7.656786991283298">
        <ele>287.72795000000002</ele>
        <time>2026-04-07T10:25:12Z</time>
      </trkpt>
      <trkpt lat="50.439618034288287" lon="7.656551962718368">
        <ele>286.332629</ele>
        <time>2026-04-07T10:25:34Z</time>
      </trkpt>
      <trkpt lat="50.439687017351389" lon="7.656464036554098">
        <ele>286.06047899999999</ele>
        <time>2026-04-07T10:25:36Z</time>
      </trkpt>
      <trkpt lat="50.439966972917318" lon="7.656109984964132">
        <ele>284.96047099999998</ele>
        <time>2026-04-07T10:25:44Z</time>
      </trkpt>
      <trkpt lat="50.440083984285593" lon="7.656022980809212">
        <ele>284.56471800000003</ele>
        <time>2026-04-07T10:25:47Z</time>
      </trkpt>
      <trkpt lat="50.440438035875559" lon="7.655988028272986">
        <ele>283.47194999999999</ele>
        <time>2026-04-07T10:25:56Z</time>
      </trkpt>
      <trkpt lat="50.440554041415453" lon="7.656085006892681">
        <ele>283.034762</ele>
        <time>2026-04-07T10:26:23Z</time>
      </trkpt>
      <trkpt lat="50.441061984747648" lon="7.655758028849959">
        <ele>283.00865599999997</ele>
        <time>2026-04-07T10:26:42Z</time>
      </trkpt>
      <trkpt lat="50.44113096781075" lon="7.655677981674671">
        <ele>283.07807300000002</ele>
        <time>2026-04-07T10:26:44Z</time>
      </trkpt>
      <trkpt lat="50.441992962732911" lon="7.654764018952847">
        <ele>283.92045999999999</ele>
        <time>2026-04-07T10:27:09Z</time>
      </trkpt>
      <trkpt lat="50.442307032644749" lon="7.654391024261713">
        <ele>284.79344200000003</ele>
        <time>2026-04-07T10:27:28Z</time>
      </trkpt>
      <trkpt lat="50.442477017641068" lon="7.654266972094774">
        <ele>285.47106300000002</ele>
        <time>2026-04-07T10:27:37Z</time>
      </trkpt>
      <trkpt lat="50.442902985960245" lon="7.653818037360907">
        <ele>287.32946199999998</ele>
        <time>2026-04-07T10:28:06Z</time>
      </trkpt>
      <trkpt lat="50.442772982642055" lon="7.653406988829374">
        <ele>288.41416400000003</ele>
        <time>2026-04-07T10:28:15Z</time>
      </trkpt>
      <trkpt lat="50.442624036222696" lon="7.653067018836737">
        <ele>289.36154499999998</ele>
        <time>2026-04-07T10:28:21Z</time>
      </trkpt>
      <trkpt lat="50.441755000501871" lon="7.651426009833813">
        <ele>291.19500900000003</ele>
        <time>2026-04-07T10:28:52Z</time>
      </trkpt>
      <trkpt lat="50.441535981371999" lon="7.650875989347696">
        <ele>291.44738799999999</ele>
        <time>2026-04-07T10:29:02Z</time>
      </trkpt>
      <trkpt lat="50.440939022228122" lon="7.649288037791848">
        <ele>292.26906400000001</ele>
        <time>2026-04-07T10:29:35Z</time>
      </trkpt>
      <trkpt lat="50.440524034202099" lon="7.648741034790874">
        <ele>292.67238400000002</ele>
        <time>2026-04-07T10:29:48Z</time>
      </trkpt>
      <trkpt lat="50.439915005117655" lon="7.648362005129457">
        <ele>292.98962699999998</ele>
        <time>2026-04-07T10:30:03Z</time>
      </trkpt>
      <trkpt lat="50.439621973782778" lon="7.64819897711277">
        <ele>292.98962699999998</ele>
        <time>2026-04-07T10:30:11Z</time>
      </trkpt>
      <trkpt lat="50.439027026295662" lon="7.647822964936495">
        <ele>292.98962699999998</ele>
        <time>2026-04-07T10:30:30Z</time>
      </trkpt>
      <trkpt lat="50.439009005203843" lon="7.647791029885411">
        <ele>292.98962699999998</ele>
        <time>2026-04-07T10:31:16Z</time>
      </trkpt>
      <trkpt lat="50.439007999375463" lon="7.647792035713792">
        <ele>300.75061199999999</ele>
        <time>2026-04-07T10:58:22Z</time>
      </trkpt>
      <trkpt lat="50.439007999375463" lon="7.647793041542172">
        <ele>300.75061199999999</ele>
        <time>2026-04-07T10:58:23Z</time>
      </trkpt>
      <trkpt lat="50.438992995768785" lon="7.647803016006947">
        <ele>300.75061199999999</ele>
        <time>2026-04-07T10:59:46Z</time>
      </trkpt>
      <trkpt lat="50.43893801048398" lon="7.647809972986579">
        <ele>300.75061199999999</ele>
        <time>2026-04-07T10:59:52Z</time>
      </trkpt>
      <trkpt lat="50.438390001654625" lon="7.64727302826941">
        <ele>300.75061199999999</ele>
        <time>2026-04-07T11:00:13Z</time>
      </trkpt>
      <trkpt lat="50.438342979177833" lon="7.647172026336193">
        <ele>300.75061199999999</ele>
        <time>2026-04-07T11:00:15Z</time>
      </trkpt>
      <trkpt lat="50.437997980043292" lon="7.646236019209027">
        <ele>297.62895400000002</ele>
        <time>2026-04-07T11:00:34Z</time>
      </trkpt>
      <trkpt lat="50.437980964779854" lon="7.646182039752603">
        <ele>297.43058100000002</ele>
        <time>2026-04-07T11:00:35Z</time>
      </trkpt>
      <trkpt lat="50.437769992277026" lon="7.645670995116234">
        <ele>295.42185799999999</ele>
        <time>2026-04-07T11:00:44Z</time>
      </trkpt>
      <trkpt lat="50.437462041154504" lon="7.64486700296402">
        <ele>292.31854199999998</ele>
        <time>2026-04-07T11:01:00Z</time>
      </trkpt>
      <trkpt lat="50.43711201287806" lon="7.64411598443985">
        <ele>289.239238</ele>
        <time>2026-04-07T11:01:19Z</time>
      </trkpt>
      <trkpt lat="50.436915038153529" lon="7.643815996125341">
        <ele>287.821482</ele>
        <time>2026-04-07T11:01:26Z</time>
      </trkpt>
      <trkpt lat="50.436808001250029" lon="7.643632013350725">
        <ele>287.00140299999998</ele>
        <time>2026-04-07T11:01:30Z</time>
      </trkpt>
      <trkpt lat="50.436631981283426" lon="7.643375024199486">
        <ele>285.74592899999999</ele>
        <time>2026-04-07T11:01:36Z</time>
      </trkpt>
      <trkpt lat="50.436610020697117" lon="7.643324984237552">
        <ele>285.54663399999998</ele>
        <time>2026-04-07T11:01:37Z</time>
      </trkpt>
      <trkpt lat="50.436356971040368" lon="7.642980990931392">
        <ele>283.78134599999998</ele>
        <time>2026-04-07T11:01:53Z</time>
      </trkpt>
      <trkpt lat="50.436355965211987" lon="7.642964981496334">
        <ele>283.72862199999997</ele>
        <time>2026-04-07T11:03:25Z</time>
      </trkpt>
      <trkpt lat="50.436216993257403" lon="7.642673039808869">
        <ele>282.50647300000003</ele>
        <time>2026-04-07T11:03:33Z</time>
      </trkpt>
      <trkpt lat="50.436110962182283" lon="7.64256801456213">
        <ele>282.049328</ele>
        <time>2026-04-07T11:03:37Z</time>
      </trkpt>
      <trkpt lat="50.436052037402987" lon="7.642495008185506">
        <ele>281.88698699999998</ele>
        <time>2026-04-07T11:03:39Z</time>
      </trkpt>
      <trkpt lat="50.435817008838058" lon="7.642238019034267">
        <ele>281.26468299999999</ele>
        <time>2026-04-07T11:03:45Z</time>
      </trkpt>
      <trkpt lat="50.435179984197021" lon="7.641852032393217">
        <ele>279.78067299999998</ele>
        <time>2026-04-07T11:04:02Z</time>
      </trkpt>
      <trkpt lat="50.435050986707211" lon="7.641931995749474">
        <ele>279.47215799999998</ele>
        <time>2026-04-07T11:04:06Z</time>
      </trkpt>
      <trkpt lat="50.434994995594025" lon="7.642015982419252">
        <ele>279.30478900000003</ele>
        <time>2026-04-07T11:04:08Z</time>
      </trkpt>
      <trkpt lat="50.434737000614405" lon="7.642408004030585">
        <ele>278.52615500000002</ele>
        <time>2026-04-07T11:04:16Z</time>
      </trkpt>
      <trkpt lat="50.434622000902891" lon="7.642509005963802">
        <ele>278.18812700000001</ele>
        <time>2026-04-07T11:04:19Z</time>
      </trkpt>
      <trkpt lat="50.434537008404732" lon="7.642556028440595">
        <ele>277.83713999999998</ele>
        <time>2026-04-07T11:04:21Z</time>
      </trkpt>
      <trkpt lat="50.434316983446479" lon="7.642610007897019">
        <ele>276.96806199999997</ele>
        <time>2026-04-07T11:04:26Z</time>
      </trkpt>
      <trkpt lat="50.434117997065187" lon="7.642638003453612">
        <ele>276.18968699999999</ele>
        <time>2026-04-07T11:04:30Z</time>
      </trkpt>
      <trkpt lat="50.433936025947332" lon="7.64259098097682">
        <ele>275.46932800000002</ele>
        <time>2026-04-07T11:04:34Z</time>
      </trkpt>
      <trkpt lat="50.433728992938995" lon="7.642485033720732">
        <ele>274.620814</ele>
        <time>2026-04-07T11:04:38Z</time>
      </trkpt>
      <trkpt lat="50.43328600935638" lon="7.64222402125597">
        <ele>272.77679899999998</ele>
        <time>2026-04-07T11:04:47Z</time>
      </trkpt>
      <trkpt lat="50.433202022686601" lon="7.642154032364488">
        <ele>272.40637299999997</ele>
        <time>2026-04-07T11:04:49Z</time>
      </trkpt>
      <trkpt lat="50.433075958862901" lon="7.642027968540788">
        <ele>271.822517</ele>
        <time>2026-04-07T11:04:52Z</time>
      </trkpt>
      <trkpt lat="50.432994989678264" lon="7.641941970214248">
        <ele>271.44166799999999</ele>
        <time>2026-04-07T11:04:54Z</time>
      </trkpt>
      <trkpt lat="50.432927012443542" lon="7.641839040443301">
        <ele>271.08027199999998</ele>
        <time>2026-04-07T11:04:56Z</time>
      </trkpt>
      <trkpt lat="50.432619983330369" lon="7.641540979966521">
        <ele>269.71351099999998</ele>
        <time>2026-04-07T11:05:04Z</time>
      </trkpt>
      <trkpt lat="50.432366011664271" lon="7.64170803129673">
        <ele>268.15115500000002</ele>
        <time>2026-04-07T11:05:15Z</time>
      </trkpt>
      <trkpt lat="50.432382021099329" lon="7.641854966059327">
        <ele>267.79089900000002</ele>
        <time>2026-04-07T11:05:19Z</time>
      </trkpt>
      <trkpt lat="50.432393001392484" lon="7.641841974109411">
        <ele>267.73398600000002</ele>
        <time>2026-04-07T11:05:37Z</time>
      </trkpt>
      <trkpt lat="50.432420996949077" lon="7.642109021544457">
        <ele>267.06519600000001</ele>
        <time>2026-04-07T11:05:43Z</time>
      </trkpt>
      <trkpt lat="50.432433988898993" lon="7.642173981294036">
        <ele>266.90105499999999</ele>
        <time>2026-04-07T11:05:44Z</time>
      </trkpt>
      <trkpt lat="50.43247195892036" lon="7.642300967127085">
        <ele>266.56299799999999</ele>
        <time>2026-04-07T11:05:46Z</time>
      </trkpt>
      <trkpt lat="50.432721991091967" lon="7.643137983977795">
        <ele>264.35165799999999</ele>
        <time>2026-04-07T11:05:58Z</time>
      </trkpt>
      <trkpt lat="50.43277395889163" lon="7.643380975350738">
        <ele>263.80648600000001</ele>
        <time>2026-04-07T11:06:01Z</time>
      </trkpt>
      <trkpt lat="50.432804971933365" lon="7.643617009744048">
        <ele>263.29399799999999</ele>
        <time>2026-04-07T11:06:04Z</time>
      </trkpt>
      <trkpt lat="50.432903962209821" lon="7.644362999126315">
        <ele>261.671132</ele>
        <time>2026-04-07T11:06:14Z</time>
      </trkpt>
      <trkpt lat="50.432941010221839" lon="7.644509011879563">
        <ele>261.33695999999998</ele>
        <time>2026-04-07T11:06:16Z</time>
      </trkpt>
      <trkpt lat="50.432957019656897" lon="7.644669022411108">
        <ele>260.99249900000001</ele>
        <time>2026-04-07T11:06:18Z</time>
      </trkpt>
      <trkpt lat="50.432962970808148" lon="7.644836995750666">
        <ele>260.63458800000001</ele>
        <time>2026-04-07T11:06:20Z</time>
      </trkpt>
      <trkpt lat="50.432946961373091" lon="7.645133966580033">
        <ele>260.00045399999999</ele>
        <time>2026-04-07T11:06:24Z</time>
      </trkpt>
      <trkpt lat="50.432927012443542" lon="7.645423980429769">
        <ele>259.37708199999997</ele>
        <time>2026-04-07T11:06:28Z</time>
      </trkpt>
      <trkpt lat="50.432960959151387" lon="7.645909041166306">
        <ele>258.07000399999998</ele>
        <time>2026-04-07T11:06:35Z</time>
      </trkpt>
      <trkpt lat="50.43307201936841" lon="7.646324029192329">
        <ele>255.49331599999999</ele>
        <time>2026-04-07T11:06:42Z</time>
      </trkpt>
      <trkpt lat="50.433076964691281" lon="7.646703980863094">
        <ele>253.28483199999999</ele>
        <time>2026-04-07T11:07:02Z</time>
      </trkpt>
      <trkpt lat="50.432951990514994" lon="7.647227011620998">
        <ele>250.07009199999999</ele>
        <time>2026-04-07T11:07:17Z</time>
      </trkpt>
      <trkpt lat="50.43287998996675" lon="7.647764962166548">
        <ele>246.90572</ele>
        <time>2026-04-07T11:07:26Z</time>
      </trkpt>
      <trkpt lat="50.4328359849751" lon="7.648297967389226">
        <ele>243.82924499999999</ele>
        <time>2026-04-07T11:07:35Z</time>
      </trkpt>
      <trkpt lat="50.432962970808148" lon="7.648703986778855">
        <ele>240.70527899999999</ele>
        <time>2026-04-07T11:07:46Z</time>
      </trkpt>
      <trkpt lat="50.433063972741365" lon="7.648882018402219">
        <ele>238.848928</ele>
        <time>2026-04-07T11:08:17Z</time>
      </trkpt>
      <trkpt lat="50.433110995218158" lon="7.649023002013564">
        <ele>237.59644900000001</ele>
        <time>2026-04-07T11:08:43Z</time>
      </trkpt>
      <trkpt lat="50.433128010481596" lon="7.649106988683343">
        <ele>236.914323</ele>
        <time>2026-04-07T11:08:48Z</time>
      </trkpt>
      <trkpt lat="50.43322398327291" lon="7.649477971717715">
        <ele>233.85091700000001</ele>
        <time>2026-04-07T11:09:11Z</time>
      </trkpt>
      <trkpt lat="50.43328600935638" lon="7.649872004985809">
        <ele>230.754739</ele>
        <time>2026-04-07T11:09:33Z</time>
      </trkpt>
      <trkpt lat="50.433344012126327" lon="7.650093035772443">
        <ele>228.93036699999999</ele>
        <time>2026-04-07T11:09:46Z</time>
      </trkpt>
      <trkpt lat="50.433346023783088" lon="7.650185991078615">
        <ele>228.222847</ele>
        <time>2026-04-07T11:09:50Z</time>
      </trkpt>
      <trkpt lat="50.433331020176411" lon="7.650567032396793">
        <ele>225.27497399999999</ele>
        <time>2026-04-07T11:10:09Z</time>
      </trkpt>
      <trkpt lat="50.433348035439849" lon="7.650703992694616">
        <ele>224.20756399999999</ele>
        <time>2026-04-07T11:10:16Z</time>
      </trkpt>
      <trkpt lat="50.433397991582751" lon="7.65101102180779">
        <ele>221.780835</ele>
        <time>2026-04-07T11:10:32Z</time>
      </trkpt>
      <trkpt lat="50.433388017117977" lon="7.651186035946012">
        <ele>220.549758</ele>
        <time>2026-04-07T11:10:41Z</time>
      </trkpt>
      <trkpt lat="50.433322973549366" lon="7.651532962918282">
        <ele>218.35757899999999</ele>
        <time>2026-04-07T11:11:02Z</time>
      </trkpt>
      <trkpt lat="50.43328600935638" lon="7.651615021750331">
        <ele>217.760344</ele>
        <time>2026-04-07T11:11:07Z</time>
      </trkpt>
      <trkpt lat="50.433170003816485" lon="7.6518290117383">
        <ele>216.089553</ele>
        <time>2026-04-07T11:11:21Z</time>
      </trkpt>
      <trkpt lat="50.433141002431512" lon="7.651880979537964">
        <ele>215.67987199999999</ele>
        <time>2026-04-07T11:11:25Z</time>
      </trkpt>
      <trkpt lat="50.432979986071587" lon="7.652150960639119">
        <ele>213.48619400000001</ele>
        <time>2026-04-07T11:11:43Z</time>
      </trkpt>
      <trkpt lat="50.432888036593795" lon="7.652231007814407">
        <ele>212.51286300000001</ele>
        <time>2026-04-07T11:11:51Z</time>
      </trkpt>
      <trkpt lat="50.432610008865595" lon="7.652285993099213">
        <ele>209.91743199999999</ele>
        <time>2026-04-07T11:12:16Z</time>
      </trkpt>
      <trkpt lat="50.432597016915679" lon="7.652256991714239">
        <ele>209.67501999999999</ele>
        <time>2026-04-07T11:12:49Z</time>
      </trkpt>
      <trkpt lat="50.432572038844228" lon="7.652249028906226">
        <ele>209.39916400000001</ele>
        <time>2026-04-07T11:12:53Z</time>
      </trkpt>
      <trkpt lat="50.432496014982462" lon="7.652222961187363">
        <ele>208.681467</ele>
        <time>2026-04-07T11:13:00Z</time>
      </trkpt>
      <trkpt lat="50.432414039969444" lon="7.652224972844124">
        <ele>207.92966999999999</ele>
        <time>2026-04-07T11:13:06Z</time>
      </trkpt>
      <trkpt lat="50.43234002776444" lon="7.652198988944292">
        <ele>207.231562</ele>
        <time>2026-04-07T11:13:12Z</time>
      </trkpt>
      <trkpt lat="50.432163001969457" lon="7.652124976739287">
        <ele>205.536157</ele>
        <time>2026-04-07T11:13:27Z</time>
      </trkpt>
      <trkpt lat="50.432100975885987" lon="7.65206404030323">
        <ele>204.861997</ele>
        <time>2026-04-07T11:13:33Z</time>
      </trkpt>
      <trkpt lat="50.432048002257943" lon="7.652014000341296">
        <ele>204.420084</ele>
        <time>2026-04-07T11:13:38Z</time>
      </trkpt>
      <trkpt lat="50.431904001161456" lon="7.651920961216092">
        <ele>203.79431700000001</ele>
        <time>2026-04-07T11:13:51Z</time>
      </trkpt>
      <trkpt lat="50.431775003671646" lon="7.651862958446145">
        <ele>198.33881199999999</ele>
        <time>2026-04-07T11:16:57Z</time>
      </trkpt>
      <trkpt lat="50.431951023638248" lon="7.652220027521253">
        <ele>198.59412800000001</ele>
        <time>2026-04-07T11:17:09Z</time>
      </trkpt>
      <trkpt lat="50.43197700753808" lon="7.652310971170664">
        <ele>198.662339</ele>
        <time>2026-04-07T11:17:36Z</time>
      </trkpt>
      <trkpt lat="50.432003997266293" lon="7.65232396312058">
        <ele>198.704768</ele>
        <time>2026-04-07T11:17:47Z</time>
      </trkpt>
      <trkpt lat="50.432005003094673" lon="7.652371991425753">
        <ele>198.73183900000001</ele>
        <time>2026-04-07T11:17:50Z</time>
      </trkpt>
      <trkpt lat="50.432010032236576" lon="7.652418008074164">
        <ele>198.759085</ele>
        <time>2026-04-07T11:18:07Z</time>
      </trkpt>
      <trkpt lat="50.432012965902686" lon="7.652551028877497">
        <ele>198.83720400000001</ele>
        <time>2026-04-07T11:18:20Z</time>
      </trkpt>
      <trkpt lat="50.432006008923054" lon="7.652575001120567">
        <ele>198.881608</ele>
        <time>2026-04-07T11:18:38Z</time>
      </trkpt>
      <trkpt lat="50.432015983387828" lon="7.652653958648443">
        <ele>198.92738800000001</ele>
        <time>2026-04-07T11:18:44Z</time>
      </trkpt>
      <trkpt lat="50.432029981166124" lon="7.652757978066802">
        <ele>198.989835</ele>
        <time>2026-04-07T11:18:51Z</time>
      </trkpt>
      <trkpt lat="50.431905006989837" lon="7.653007004410029">
        <ele>199.329567</ele>
        <time>2026-04-07T11:19:08Z</time>
      </trkpt>
      <trkpt lat="50.431786989793181" lon="7.653067018836737">
        <ele>199.53556599999999</ele>
        <time>2026-04-07T11:19:17Z</time>
      </trkpt>
      <trkpt lat="50.431691017001867" lon="7.653132984414697">
        <ele>199.75406899999999</ele>
        <time>2026-04-07T11:19:29Z</time>
      </trkpt>
      <trkpt lat="50.431772992014885" lon="7.653213031589985">
        <ele>199.91569000000001</ele>
        <time>2026-04-07T11:19:37Z</time>
      </trkpt>
      <trkpt lat="50.431823031976819" lon="7.653303975239396">
        <ele>200.04222200000001</ele>
        <time>2026-04-07T11:19:43Z</time>
      </trkpt>
      <trkpt lat="50.431852033361793" lon="7.65345904044807">
        <ele>200.21228099999999</ele>
        <time>2026-04-07T11:19:52Z</time>
      </trkpt>
      <trkpt lat="50.431849015876651" lon="7.653563981875777">
        <ele>200.32284799999999</ele>
        <time>2026-04-07T11:19:57Z</time>
      </trkpt>
      <trkpt lat="50.431850021705031" lon="7.653979975730181">
        <ele>200.77372</ele>
        <time>2026-04-07T11:20:14Z</time>
      </trkpt>
      <trkpt lat="50.431617004796863" lon="7.654887987300754">
        <ele>201.81598600000001</ele>
        <time>2026-04-07T11:20:34Z</time>
      </trkpt>
      <trkpt lat="50.43118198402226" lon="7.654756978154182">
        <ele>203.526803</ele>
        <time>2026-04-07T11:20:51Z</time>
      </trkpt>
      <trkpt lat="50.430892976000905" lon="7.653995985165238">
        <ele>205.72310999999999</ele>
        <time>2026-04-07T11:21:18Z</time>
      </trkpt>
      <trkpt lat="50.430760961025953" lon="7.653703959658742">
        <ele>206.628443</ele>
        <time>2026-04-07T11:21:43Z</time>
      </trkpt>
      <trkpt lat="50.4306669998914" lon="7.653737990185618">
        <ele>207.00883300000001</ele>
        <time>2026-04-07T11:21:47Z</time>
      </trkpt>
      <trkpt lat="50.430589970201254" lon="7.653802027925849">
        <ele>207.343346</ele>
        <time>2026-04-07T11:21:52Z</time>
      </trkpt>
      <trkpt lat="50.430539008229971" lon="7.65382600016892">
        <ele>207.546819</ele>
        <time>2026-04-07T11:21:55Z</time>
      </trkpt>
      <trkpt lat="50.43019300326705" lon="7.653422998264432">
        <ele>209.28293400000001</ele>
        <time>2026-04-07T11:22:15Z</time>
      </trkpt>
      <trkpt lat="50.429998962208629" lon="7.652726965025067">
        <ele>210.24006</ele>
        <time>2026-04-07T11:22:25Z</time>
      </trkpt>
      <trkpt lat="50.429917993023992" lon="7.652677008882165">
        <ele>210.42334199999999</ele>
        <time>2026-04-07T11:22:37Z</time>
      </trkpt>
      <trkpt lat="50.429736021906137" lon="7.652884041890502">
        <ele>210.875215</ele>
        <time>2026-04-07T11:22:51Z</time>
      </trkpt>
      <trkpt lat="50.429682964459062" lon="7.652873983606696">
        <ele>211.02878699999999</ele>
        <time>2026-04-07T11:23:12Z</time>
      </trkpt>
      <trkpt lat="50.429666033014655" lon="7.65290399082005">
        <ele>211.114206</ele>
        <time>2026-04-07T11:23:17Z</time>
      </trkpt>
      <trkpt lat="50.429612975567579" lon="7.652956964448094">
        <ele>211.23904200000001</ele>
        <time>2026-04-07T11:23:22Z</time>
      </trkpt>
      <trkpt lat="50.429488001391292" lon="7.653116974979639">
        <ele>211.56136799999999</ele>
        <time>2026-04-07T11:23:35Z</time>
      </trkpt>
      <trkpt lat="50.429255990311503" lon="7.653284026309848">
        <ele>212.07533900000001</ele>
        <time>2026-04-07T11:24:01Z</time>
      </trkpt>
      <trkpt lat="50.429049041122198" lon="7.653560964390636">
        <ele>212.99849</ele>
        <time>2026-04-07T11:24:28Z</time>
      </trkpt>
      <trkpt lat="50.429014004766941" lon="7.653622990474105">
        <ele>213.30728999999999</ele>
        <time>2026-04-07T11:24:52Z</time>
      </trkpt>
      <trkpt lat="50.428982991725206" lon="7.653647968545556">
        <ele>213.49170100000001</ele>
        <time>2026-04-07T11:24:55Z</time>
      </trkpt>
      <trkpt lat="50.428704963997006" lon="7.654120959341526">
        <ele>215.57048599999999</ele>
        <time>2026-04-07T11:25:18Z</time>
      </trkpt>
      <trkpt lat="50.42864796705544" lon="7.654231013730168">
        <ele>216.02904699999999</ele>
        <time>2026-04-07T11:25:23Z</time>
      </trkpt>
      <trkpt lat="50.428622988983989" lon="7.654284993186593">
        <ele>216.244415</ele>
        <time>2026-04-07T11:25:26Z</time>
      </trkpt>
      <trkpt lat="50.428510000929236" lon="7.654526978731155">
        <ele>217.21689599999999</ele>
        <time>2026-04-07T11:25:37Z</time>
      </trkpt>
      <trkpt lat="50.428416961804032" lon="7.65466402284801">
        <ele>217.86237700000001</ele>
        <time>2026-04-07T11:25:44Z</time>
      </trkpt>
      <trkpt lat="50.428137006238103" lon="7.655171966180205">
        <ele>220.03906799999999</ele>
        <time>2026-04-07T11:26:08Z</time>
      </trkpt>
      <trkpt lat="50.428013959899545" lon="7.655570022761822">
        <ele>221.46232499999999</ele>
        <time>2026-04-07T11:26:24Z</time>
      </trkpt>
      <trkpt lat="50.427993005141616" lon="7.655664989724755">
        <ele>221.679889</ele>
        <time>2026-04-07T11:26:28Z</time>
      </trkpt>
      <trkpt lat="50.427869958803058" lon="7.656110990792513">
        <ele>222.72057699999999</ele>
        <time>2026-04-07T11:26:45Z</time>
      </trkpt>
      <trkpt lat="50.427828971296549" lon="7.656345013529062">
        <ele>223.24000699999999</ele>
        <time>2026-04-07T11:26:54Z</time>
      </trkpt>
      <trkpt lat="50.427810028195381" lon="7.656495971605182">
        <ele>223.574724</ele>
        <time>2026-04-07T11:26:59Z</time>
      </trkpt>
      <trkpt lat="50.427785972133279" lon="7.656611977145076">
        <ele>223.834756</ele>
        <time>2026-04-07T11:27:02Z</time>
      </trkpt>
      <trkpt lat="50.427697962149978" lon="7.657048003748059">
        <ele>224.826853</ele>
        <time>2026-04-07T11:27:17Z</time>
      </trkpt>
      <trkpt lat="50.427684970200062" lon="7.657121010124683">
        <ele>224.989959</ele>
        <time>2026-04-07T11:27:20Z</time>
      </trkpt>
      <trkpt lat="50.42759302072227" lon="7.657403983175755">
        <ele>225.67006499999999</ele>
        <time>2026-04-07T11:27:31Z</time>
      </trkpt>
      <trkpt lat="50.427409959957004" lon="7.65767497010529">
        <ele>226.515604</ele>
        <time>2026-04-07T11:27:43Z</time>
      </trkpt>
      <trkpt lat="50.427349023520947" lon="7.657778989523649">
        <ele>226.82195899999999</ele>
        <time>2026-04-07T11:27:48Z</time>
      </trkpt>
      <trkpt lat="50.427322033792734" lon="7.657813020050526">
        <ele>226.938436</ele>
        <time>2026-04-07T11:27:50Z</time>
      </trkpt>
      <trkpt lat="50.427257996052504" lon="7.657860964536667">
        <ele>227.183626</ele>
        <time>2026-04-07T11:27:54Z</time>
      </trkpt>
      <trkpt lat="50.427239974960685" lon="7.657871022820473">
        <ele>227.24748099999999</ele>
        <time>2026-04-07T11:27:55Z</time>
      </trkpt>
      <trkpt lat="50.427137967199087" lon="7.657990967854857">
        <ele>227.92284599999999</ele>
        <time>2026-04-07T11:28:20Z</time>
      </trkpt>
      <trkpt lat="50.4271200299263" lon="7.658004965633154">
        <ele>228.06954300000001</ele>
        <time>2026-04-07T11:28:21Z</time>
      </trkpt>
      <trkpt lat="50.427051968872547" lon="7.658060034736991">
        <ele>228.64409499999999</ele>
        <time>2026-04-07T11:28:27Z</time>
      </trkpt>
      <trkpt lat="50.426953984424472" lon="7.658092975616455">
        <ele>229.382273</ele>
        <time>2026-04-07T11:28:33Z</time>
      </trkpt>
      <trkpt lat="50.426636980846524" lon="7.658190038055182">
        <ele>231.75812400000001</ele>
        <time>2026-04-07T11:28:52Z</time>
      </trkpt>
      <trkpt lat="50.426601022481918" lon="7.658213004469872">
        <ele>232.04465500000001</ele>
        <time>2026-04-07T11:28:55Z</time>
      </trkpt>
      <trkpt lat="50.426374040544033" lon="7.658326998353005">
        <ele>233.796695</ele>
        <time>2026-04-07T11:29:08Z</time>
      </trkpt>
      <trkpt lat="50.426303967833519" lon="7.658483991399407">
        <ele>234.69907799999999</ele>
        <time>2026-04-07T11:29:16Z</time>
      </trkpt>
      <trkpt lat="50.426124008372426" lon="7.658837037160993">
        <ele>236.91385500000001</ele>
        <time>2026-04-07T11:29:36Z</time>
      </trkpt>
      <trkpt lat="50.426107998937368" lon="7.658843994140625">
        <ele>237.03514899999999</ele>
        <time>2026-04-07T11:29:37Z</time>
      </trkpt>
      <trkpt lat="50.426020994782448" lon="7.658948013558984">
        <ele>237.842646</ele>
        <time>2026-04-07T11:29:46Z</time>
      </trkpt>
      <trkpt lat="50.425901971757412" lon="7.659252025187016">
        <ele>239.517732</ele>
        <time>2026-04-07T11:30:00Z</time>
      </trkpt>
      <trkpt lat="50.425823014229536" lon="7.659556036815047">
        <ele>240.984702</ele>
        <time>2026-04-07T11:30:19Z</time>
      </trkpt>
      <trkpt lat="50.425812033936381" lon="7.659651003777981">
        <ele>241.345686</ele>
        <time>2026-04-07T11:30:23Z</time>
      </trkpt>
      <trkpt lat="50.425798958167434" lon="7.659695008769631">
        <ele>241.519361</ele>
        <time>2026-04-07T11:30:25Z</time>
      </trkpt>
      <trkpt lat="50.4257230181247" lon="7.660184009000659">
        <ele>243.33767499999999</ele>
        <time>2026-04-07T11:30:44Z</time>
      </trkpt>
      <trkpt lat="50.425688987597823" lon="7.660639984533191">
        <ele>244.99217200000001</ele>
        <time>2026-04-07T11:31:01Z</time>
      </trkpt>
      <trkpt lat="50.42568001896143" lon="7.660773005336523">
        <ele>245.48384200000001</ele>
        <time>2026-04-07T11:31:06Z</time>
      </trkpt>
      <trkpt lat="50.425669960677624" lon="7.660891022533178">
        <ele>245.91324700000001</ele>
        <time>2026-04-07T11:31:10Z</time>
      </trkpt>
      <trkpt lat="50.425663003697991" lon="7.661651009693742">
        <ele>248.65230500000001</ele>
        <time>2026-04-07T11:31:33Z</time>
      </trkpt>
      <trkpt lat="50.425675995647907" lon="7.661755029112101">
        <ele>249.03339</ele>
        <time>2026-04-07T11:31:37Z</time>
      </trkpt>
      <trkpt lat="50.425708014518023" lon="7.661916967481375">
        <ele>249.64689300000001</ele>
        <time>2026-04-07T11:31:43Z</time>
      </trkpt>
      <trkpt lat="50.42572402395308" lon="7.662060968577862">
        <ele>250.18708899999999</ele>
        <time>2026-04-07T11:31:49Z</time>
      </trkpt>
      <trkpt lat="50.425726035609841" lon="7.662081001326442">
        <ele>250.259503</ele>
        <time>2026-04-07T11:31:50Z</time>
      </trkpt>
      <trkpt lat="50.425706002861261" lon="7.662130035459995">
        <ele>250.47581</ele>
        <time>2026-04-07T11:31:55Z</time>
      </trkpt>
      <trkpt lat="50.425672978162766" lon="7.662154007703066">
        <ele>250.76082600000001</ele>
        <time>2026-04-07T11:32:22Z</time>
      </trkpt>
      <trkpt lat="50.425665015354753" lon="7.662150990217924">
        <ele>251.033964</ele>
        <time>2026-04-07T11:32:46Z</time>
      </trkpt>
      <trkpt lat="50.425663003697991" lon="7.662174962460995">
        <ele>251.17271600000001</ele>
        <time>2026-04-07T11:32:48Z</time>
      </trkpt>
      <trkpt lat="50.425656968727708" lon="7.662170017138124">
        <ele>251.419949</ele>
        <time>2026-04-07T11:33:04Z</time>
      </trkpt>
      <trkpt lat="50.425513973459601" lon="7.662508981302381">
        <ele>253.77105800000001</ele>
        <time>2026-04-07T11:33:24Z</time>
      </trkpt>
      <trkpt lat="50.425505004823208" lon="7.662570001557469">
        <ele>254.13709399999999</ele>
        <time>2026-04-07T11:33:29Z</time>
      </trkpt>
      <trkpt lat="50.425364021211863" lon="7.662789020687342">
        <ele>255.965656</ele>
        <time>2026-04-07T11:33:54Z</time>
      </trkpt>
      <trkpt lat="50.425348011776805" lon="7.662831014022231">
        <ele>256.27740799999998</ele>
        <time>2026-04-07T11:33:58Z</time>
      </trkpt>
      <trkpt lat="50.425355974584818" lon="7.662881975993514">
        <ele>256.58421600000003</ele>
        <time>2026-04-07T11:34:02Z</time>
      </trkpt>
      <trkpt lat="50.425372989848256" lon="7.663113987073302">
        <ele>257.95176600000002</ele>
        <time>2026-04-07T11:34:36Z</time>
      </trkpt>
      <trkpt lat="50.425297971814871" lon="7.663412969559431">
        <ele>259.84547800000001</ele>
        <time>2026-04-07T11:35:00Z</time>
      </trkpt>
      <trkpt lat="50.425209039822221" lon="7.66353802755475">
        <ele>260.92676399999999</ele>
        <time>2026-04-07T11:35:14Z</time>
      </trkpt>
      <trkpt lat="50.425064032897353" lon="7.663759980350733">
        <ele>262.77586100000002</ele>
        <time>2026-04-07T11:35:39Z</time>
      </trkpt>
      <trkpt lat="50.425023967400193" lon="7.663873974233866">
        <ele>263.54260799999997</ele>
        <time>2026-04-07T11:35:50Z</time>
      </trkpt>
      <trkpt lat="50.425006030127406" lon="7.663926025852561">
        <ele>263.89002599999998</ele>
        <time>2026-04-07T11:35:54Z</time>
      </trkpt>
      <trkpt lat="50.424970993772149" lon="7.663998026400805">
        <ele>264.41206499999998</ele>
        <time>2026-04-07T11:36:00Z</time>
      </trkpt>
      <trkpt lat="50.42480100877583" lon="7.66416298225522">
        <ele>266.24926299999998</ele>
        <time>2026-04-07T11:36:20Z</time>
      </trkpt>
      <trkpt lat="50.424576038494706" lon="7.664427012205124">
        <ele>267.92775699999999</ele>
        <time>2026-04-07T11:36:48Z</time>
      </trkpt>
      <trkpt lat="50.424491968005896" lon="7.664494989439845">
        <ele>268.37403599999999</ele>
        <time>2026-04-07T11:36:57Z</time>
      </trkpt>
      <trkpt lat="50.424469001591206" lon="7.664576964452863">
        <ele>268.64194800000001</ele>
        <time>2026-04-07T11:37:03Z</time>
      </trkpt>
      <trkpt lat="50.424275966361165" lon="7.664906037971377">
        <ele>269.97862099999998</ele>
        <time>2026-04-07T11:37:29Z</time>
      </trkpt>
      <trkpt lat="50.424044961109757" lon="7.665227986872196">
        <ele>271.45221199999997</ele>
        <time>2026-04-07T11:37:57Z</time>
      </trkpt>
      <trkpt lat="50.423917975276709" lon="7.665584972128272">
        <ele>272.68104699999998</ele>
        <time>2026-04-07T11:38:20Z</time>
      </trkpt>
      <trkpt lat="50.423772968351841" lon="7.6659220084548">
        <ele>273.897919</ele>
        <time>2026-04-07T11:38:43Z</time>
      </trkpt>
      <trkpt lat="50.423736004158854" lon="7.665985962375999">
        <ele>274.17590100000001</ele>
        <time>2026-04-07T11:39:01Z</time>
      </trkpt>
      <trkpt lat="50.423754025250673" lon="7.666127029806376">
        <ele>274.60641800000002</ele>
        <time>2026-04-07T11:39:10Z</time>
      </trkpt>
      <trkpt lat="50.423765005543828" lon="7.666205987334251">
        <ele>274.91781900000001</ele>
        <time>2026-04-07T11:39:49Z</time>
      </trkpt>
      <trkpt lat="50.423786966130137" lon="7.666269019246101">
        <ele>275.14944700000001</ele>
        <time>2026-04-07T11:39:56Z</time>
      </trkpt>
      <trkpt lat="50.423771040514112" lon="7.666379995644093">
        <ele>275.04877199999999</ele>
        <time>2026-04-07T11:40:01Z</time>
      </trkpt>
      <trkpt lat="50.423759976401925" lon="7.666402962058783">
        <ele>274.99251199999998</ele>
        <time>2026-04-07T11:40:02Z</time>
      </trkpt>
      <trkpt lat="50.423558978363872" lon="7.667079968377948">
        <ele>273.52360599999997</ele>
        <time>2026-04-07T11:40:25Z</time>
      </trkpt>
      <trkpt lat="50.423335013911128" lon="7.667888989672065">
        <ele>271.79159900000002</ele>
        <time>2026-04-07T11:40:52Z</time>
      </trkpt>
      <trkpt lat="50.423129992559552" lon="7.668639002367854">
        <ele>270.18950899999999</ele>
        <time>2026-04-07T11:41:13Z</time>
      </trkpt>
      <trkpt lat="50.423069978132844" lon="7.668772023171186">
        <ele>269.85409800000002</ele>
        <time>2026-04-07T11:41:25Z</time>
      </trkpt>
      <trkpt lat="50.423002000898123" lon="7.668956005945802">
        <ele>268.74035900000001</ele>
        <time>2026-04-07T11:41:34Z</time>
      </trkpt>
      <trkpt lat="50.4229979775846" lon="7.669000010937452">
        <ele>268.43265400000001</ele>
        <time>2026-04-07T11:41:37Z</time>
      </trkpt>
      <trkpt lat="50.422970987856388" lon="7.669083997607231">
        <ele>267.78000100000003</ele>
        <time>2026-04-07T11:41:41Z</time>
      </trkpt>
      <trkpt lat="50.422923965379596" lon="7.669192962348461">
        <ele>266.87161300000002</ele>
        <time>2026-04-07T11:41:48Z</time>
      </trkpt>
      <trkpt lat="50.422894963994622" lon="7.669266974553466">
        <ele>266.26472899999999</ele>
        <time>2026-04-07T11:41:52Z</time>
      </trkpt>
      <trkpt lat="50.422887001186609" lon="7.669297987595201">
        <ele>266.03635100000002</ele>
        <time>2026-04-07T11:41:54Z</time>
      </trkpt>
      <trkpt lat="50.422832015901804" lon="7.669578026980162">
        <ele>264.00554599999998</ele>
        <time>2026-04-07T11:42:07Z</time>
      </trkpt>
      <trkpt lat="50.422797985374928" lon="7.669668970629573">
        <ele>263.28194500000001</ele>
        <time>2026-04-07T11:42:12Z</time>
      </trkpt>
      <trkpt lat="50.422688014805317" lon="7.669699983671308">
        <ele>262.05418600000002</ele>
        <time>2026-04-07T11:42:18Z</time>
      </trkpt>
      <trkpt lat="50.422678040340543" lon="7.669707024469972">
        <ele>261.83884699999999</ele>
        <time>2026-04-07T11:42:36Z</time>
      </trkpt>
      <trkpt lat="50.422622971236706" lon="7.669707024469972">
        <ele>261.24470300000002</ele>
        <time>2026-04-07T11:42:41Z</time>
      </trkpt>
      <trkpt lat="50.422577960416675" lon="7.669701995328069">
        <ele>260.63719800000001</ele>
        <time>2026-04-07T11:42:48Z</time>
      </trkpt>
      <trkpt lat="50.422571003437042" lon="7.669728985056281">
        <ele>260.43361099999998</ele>
        <time>2026-04-07T11:42:50Z</time>
      </trkpt>
      <trkpt lat="50.422554994001985" lon="7.669751029461622">
        <ele>260.203553</ele>
        <time>2026-04-07T11:42:52Z</time>
      </trkpt>
      <trkpt lat="50.422370005398989" lon="7.669974993914366">
        <ele>257.66525899999999</ele>
        <time>2026-04-07T11:43:09Z</time>
      </trkpt>
      <trkpt lat="50.422361958771944" lon="7.670015981420875">
        <ele>257.357392</ele>
        <time>2026-04-07T11:43:12Z</time>
      </trkpt>
      <trkpt lat="50.422356007620692" lon="7.670059986412525">
        <ele>257.04253499999999</ele>
        <time>2026-04-07T11:43:15Z</time>
      </trkpt>
      <trkpt lat="50.422139000147581" lon="7.670267019420862">
        <ele>254.293789</ele>
        <time>2026-04-07T11:43:30Z</time>
      </trkpt>
      <trkpt lat="50.422049984335899" lon="7.670330973342061">
        <ele>253.226471</ele>
        <time>2026-04-07T11:43:38Z</time>
      </trkpt>
      <trkpt lat="50.421936996281147" lon="7.670437004417181">
        <ele>251.783783</ele>
        <time>2026-04-07T11:43:50Z</time>
      </trkpt>
      <trkpt lat="50.421708002686501" lon="7.670688964426518">
        <ele>248.752983</ele>
        <time>2026-04-07T11:44:10Z</time>
      </trkpt>
      <trkpt lat="50.421699034050107" lon="7.670702040195465">
        <ele>248.62280699999999</ele>
        <time>2026-04-07T11:44:11Z</time>
      </trkpt>
      <trkpt lat="50.421497030183673" lon="7.670815028250217">
        <ele>246.161642</ele>
        <time>2026-04-07T11:44:28Z</time>
      </trkpt>
      <trkpt lat="50.421393010765314" lon="7.670805975794792">
        <ele>245.04748799999999</ele>
        <time>2026-04-07T11:44:35Z</time>
      </trkpt>
      <trkpt lat="50.421369038522243" lon="7.67080002464354">
        <ele>244.78845000000001</ele>
        <time>2026-04-07T11:44:37Z</time>
      </trkpt>
      <trkpt lat="50.421322016045451" lon="7.67073699273169">
        <ele>244.11740699999999</ele>
        <time>2026-04-07T11:44:44Z</time>
      </trkpt>
      <trkpt lat="50.421297037974" lon="7.67064998857677">
        <ele>243.468672</ele>
        <time>2026-04-07T11:44:48Z</time>
      </trkpt>
      <trkpt lat="50.421284968033433" lon="7.670611012727022">
        <ele>243.14832200000001</ele>
        <time>2026-04-07T11:44:51Z</time>
      </trkpt>
      <trkpt lat="50.421222019940615" lon="7.670549992471933">
        <ele>242.347059</ele>
        <time>2026-04-07T11:44:58Z</time>
      </trkpt>
      <trkpt lat="50.42116804048419" lon="7.670440021902323">
        <ele>241.404785</ele>
        <time>2026-04-07T11:45:05Z</time>
      </trkpt>
      <trkpt lat="50.421042982488871" lon="7.670274982228875">
        <ele>239.651296</ele>
        <time>2026-04-07T11:45:17Z</time>
      </trkpt>
      <trkpt lat="50.421013981103897" lon="7.670196024700999">
        <ele>239.01737700000001</ele>
        <time>2026-04-07T11:45:21Z</time>
      </trkpt>
      <trkpt lat="50.420999983325601" lon="7.670151013880968">
        <ele>238.65588500000001</ele>
        <time>2026-04-07T11:45:24Z</time>
      </trkpt>
      <trkpt lat="50.420862017199397" lon="7.669866029173136">
        <ele>236.14882299999999</ele>
        <time>2026-04-07T11:45:41Z</time>
      </trkpt>
      <trkpt lat="50.420836033299565" lon="7.66983300447464">
        <ele>235.792708</ele>
        <time>2026-04-07T11:45:43Z</time>
      </trkpt>
      <trkpt lat="50.42080401442945" lon="7.669739965349436">
        <ele>235.06977800000001</ele>
        <time>2026-04-07T11:45:47Z</time>
      </trkpt>
      <trkpt lat="50.420652972534299" lon="7.669456992298365">
        <ele>232.48495700000001</ele>
        <time>2026-04-07T11:46:04Z</time>
      </trkpt>
      <trkpt lat="50.420636041089892" lon="7.669423967599869">
        <ele>232.196448</ele>
        <time>2026-04-07T11:46:06Z</time>
      </trkpt>
      <trkpt lat="50.420512994751334" lon="7.669230010360479">
        <ele>230.43606500000001</ele>
        <time>2026-04-07T11:46:20Z</time>
      </trkpt>
      <trkpt lat="50.420443005859852" lon="7.669069999828935">
        <ele>229.29287500000001</ele>
        <time>2026-04-07T11:46:30Z</time>
      </trkpt>
      <trkpt lat="50.420275032520294" lon="7.668726006522775">
        <ele>226.77666099999999</ele>
        <time>2026-04-07T11:46:51Z</time>
      </trkpt>
      <trkpt lat="50.420237984508276" lon="7.668639002367854">
        <ele>226.17782500000001</ele>
        <time>2026-04-07T11:46:56Z</time>
      </trkpt>
      <trkpt lat="50.420205965638161" lon="7.668597009032965">
        <ele>225.80677399999999</ele>
        <time>2026-04-07T11:47:00Z</time>
      </trkpt>
      <trkpt lat="50.420136982575059" lon="7.668507993221283">
        <ele>224.97881000000001</ele>
        <time>2026-04-07T11:47:07Z</time>
      </trkpt>
      <trkpt lat="50.4200519900769" lon="7.668406991288066">
        <ele>224.035034</ele>
        <time>2026-04-07T11:47:15Z</time>
      </trkpt>
      <trkpt lat="50.419864989817142" lon="7.668099962174892">
        <ele>221.613856</ele>
        <time>2026-04-07T11:47:29Z</time>
      </trkpt>
      <trkpt lat="50.4197290353477" lon="7.667997032403946">
        <ele>220.042946</ele>
        <time>2026-04-07T11:47:38Z</time>
      </trkpt>
      <trkpt lat="50.419760970398784" lon="7.667998038232327">
        <ele>219.668001</ele>
        <time>2026-04-07T11:47:43Z</time>
      </trkpt>
      <trkpt lat="50.419807992875576" lon="7.668128041550517">
        <ele>218.82516200000001</ele>
        <time>2026-04-07T11:47:47Z</time>
      </trkpt>
      <trkpt lat="50.419873036444187" lon="7.668634979054332">
        <ele>215.742357</ele>
        <time>2026-04-07T11:47:58Z</time>
      </trkpt>
      <trkpt lat="50.419712020084262" lon="7.669019037857652">
        <ele>215.27490900000001</ele>
        <time>2026-04-07T11:48:19Z</time>
      </trkpt>
      <trkpt lat="50.419568018987775" lon="7.66929698176682">
        <ele>215.13478000000001</ele>
        <time>2026-04-07T11:48:28Z</time>
      </trkpt>
      <trkpt lat="50.419417982921004" lon="7.669385997578502">
        <ele>215.03952799999999</ele>
        <time>2026-04-07T11:48:32Z</time>
      </trkpt>
      <trkpt lat="50.419254032894969" lon="7.669180976226926">
        <ele>214.90842499999999</ele>
        <time>2026-04-07T11:48:40Z</time>
      </trkpt>
      <trkpt lat="50.418872991576791" lon="7.669001016765833">
        <ele>214.65663900000001</ele>
        <time>2026-04-07T11:49:03Z</time>
      </trkpt>
      <trkpt lat="50.418783975765109" lon="7.669001016765833">
        <ele>214.60378800000001</ele>
        <time>2026-04-07T11:49:08Z</time>
      </trkpt>
      <trkpt lat="50.418555987998843" lon="7.669245013967156">
        <ele>214.433539</ele>
        <time>2026-04-07T11:49:25Z</time>
      </trkpt>
      <trkpt lat="50.418546013534069" lon="7.669336963444948">
        <ele>214.39799400000001</ele>
        <time>2026-04-07T11:49:29Z</time>
      </trkpt>
      <trkpt lat="50.418525980785489" lon="7.669968958944082">
        <ele>216.96577199999999</ele>
        <time>2026-04-07T11:49:55Z</time>
      </trkpt>
      <trkpt lat="50.418410981073976" lon="7.670626016333699">
        <ele>220.055824</ele>
        <time>2026-04-07T11:50:20Z</time>
      </trkpt>
      <trkpt lat="50.418364964425564" lon="7.67090798355639">
        <ele>221.38015799999999</ele>
        <time>2026-04-07T11:50:32Z</time>
      </trkpt>
      <trkpt lat="50.418132031336427" lon="7.671464961022139">
        <ele>224.39502200000001</ele>
        <time>2026-04-07T11:50:58Z</time>
      </trkpt>
      <trkpt lat="50.417909994721413" lon="7.672009030357003">
        <ele>227.43591000000001</ele>
        <time>2026-04-07T11:51:24Z</time>
      </trkpt>
      <trkpt lat="50.417760964483023" lon="7.672380013391376">
        <ele>230.53081299999999</ele>
        <time>2026-04-07T11:51:44Z</time>
      </trkpt>
      <trkpt lat="50.417621992528439" lon="7.672747978940606">
        <ele>233.54707400000001</ele>
        <time>2026-04-07T11:52:04Z</time>
      </trkpt>
      <trkpt lat="50.417471034452319" lon="7.673119967803359">
        <ele>236.67637300000001</ele>
        <time>2026-04-07T11:52:25Z</time>
      </trkpt>
      <trkpt lat="50.41743197478354" lon="7.673231028020382">
        <ele>237.57120599999999</ele>
        <time>2026-04-07T11:52:31Z</time>
      </trkpt>
      <trkpt lat="50.417394004762173" lon="7.673310991376638">
        <ele>238.28188700000001</ele>
        <time>2026-04-07T11:52:36Z</time>
      </trkpt>
      <trkpt lat="50.417251009494066" lon="7.673683986067772">
        <ele>241.358081</ele>
        <time>2026-04-07T11:52:57Z</time>
      </trkpt>
      <trkpt lat="50.417103990912437" lon="7.67406796105206">
        <ele>244.51786999999999</ele>
        <time>2026-04-07T11:53:17Z</time>
      </trkpt>
      <trkpt lat="50.416974993422627" lon="7.67451697960496">
        <ele>247.542778</ele>
        <time>2026-04-07T11:53:39Z</time>
      </trkpt>
      <trkpt lat="50.417128968983889" lon="7.675172025337815">
        <ele>250.28607099999999</ele>
        <time>2026-04-07T11:54:09Z</time>
      </trkpt>
      <trkpt lat="50.417362991720438" lon="7.675835033878684">
        <ele>253.304081</ele>
        <time>2026-04-07T11:54:41Z</time>
      </trkpt>
      <trkpt lat="50.417808992788196" lon="7.676178021356463">
        <ele>256.37093900000002</ele>
        <time>2026-04-07T11:55:07Z</time>
      </trkpt>
      <trkpt lat="50.417963974177837" lon="7.676363009959459">
        <ele>257.57038399999999</ele>
        <time>2026-04-07T11:55:18Z</time>
      </trkpt>
      <trkpt lat="50.417992975562811" lon="7.676425036042929">
        <ele>257.91191400000002</ele>
        <time>2026-04-07T11:55:49Z</time>
      </trkpt>
      <trkpt lat="50.418168995529413" lon="7.676746984943748">
        <ele>257.82497100000001</ele>
        <time>2026-04-07T11:57:49Z</time>
      </trkpt>
      <trkpt lat="50.418553976342082" lon="7.677926989272237">
        <ele>257.56820199999999</ele>
        <time>2026-04-07T11:58:16Z</time>
      </trkpt>
      <trkpt lat="50.418723039329052" lon="7.67866300418973">
        <ele>257.416786</ele>
        <time>2026-04-07T11:58:38Z</time>
      </trkpt>
      <trkpt lat="50.418951027095318" lon="7.679656008258462">
        <ele>257.71603299999998</ele>
        <time>2026-04-07T11:59:05Z</time>
      </trkpt>
      <trkpt lat="50.419083964079618" lon="7.68046997487545">
        <ele>258.07428599999997</ele>
        <time>2026-04-07T11:59:29Z</time>
      </trkpt>
      <trkpt lat="50.41921497322619" lon="7.681202972307801">
        <ele>258.399089</ele>
        <time>2026-04-07T11:59:53Z</time>
      </trkpt>
      <trkpt lat="50.419239029288292" lon="7.681299028918147">
        <ele>258.44434999999999</ele>
        <time>2026-04-07T12:00:16Z</time>
      </trkpt>
      <trkpt lat="50.419253027066588" lon="7.681461973115802">
        <ele>258.51494700000001</ele>
        <time>2026-04-07T12:00:22Z</time>
      </trkpt>
      <trkpt lat="50.419383030384779" lon="7.682355986908078">
        <ele>259.74280800000003</ele>
        <time>2026-04-07T12:00:49Z</time>
      </trkpt>
      <trkpt lat="50.41942996904254" lon="7.683300962671638">
        <ele>261.147989</ele>
        <time>2026-04-07T12:01:20Z</time>
      </trkpt>
      <trkpt lat="50.419437009841204" lon="7.684190031141043">
        <ele>262.46965</ele>
        <time>2026-04-07T12:01:47Z</time>
      </trkpt>
      <trkpt lat="50.419341959059238" lon="7.685064012184739">
        <ele>265.55524200000002</ele>
        <time>2026-04-07T12:02:11Z</time>
      </trkpt>
      <trkpt lat="50.419272975996137" lon="7.68581997603178">
        <ele>268.61436500000002</ele>
        <time>2026-04-07T12:02:31Z</time>
      </trkpt>
      <trkpt lat="50.419234000146389" lon="7.686319034546614">
        <ele>270.63208900000001</ele>
        <time>2026-04-07T12:02:47Z</time>
      </trkpt>
      <trkpt lat="50.419126963242888" lon="7.686321968212724">
        <ele>271.344269</ele>
        <time>2026-04-07T12:02:54Z</time>
      </trkpt>
      <trkpt lat="50.418843990191817" lon="7.686325991526246">
        <ele>273.14622000000003</ele>
        <time>2026-04-07T12:03:12Z</time>
      </trkpt>
      <trkpt lat="50.41855095885694" lon="7.686330014839768">
        <ele>275.80640399999999</ele>
        <time>2026-04-07T12:03:33Z</time>
      </trkpt>
      <trkpt lat="50.418445011600852" lon="7.686342000961304">
        <ele>277.01864799999998</ele>
        <time>2026-04-07T12:03:40Z</time>
      </trkpt>
      <trkpt lat="50.418383991345763" lon="7.68633496016264">
        <ele>277.712603</ele>
        <time>2026-04-07T12:03:45Z</time>
      </trkpt>
      <trkpt lat="50.418317019939423" lon="7.68633303232491">
        <ele>278.472825</ele>
        <time>2026-04-07T12:03:50Z</time>
      </trkpt>
      <trkpt lat="50.418258011341095" lon="7.686337977647781">
        <ele>279.15504600000003</ele>
        <time>2026-04-07T12:03:54Z</time>
      </trkpt>
      <trkpt lat="50.418244013562799" lon="7.686342000961304">
        <ele>279.31532900000002</ele>
        <time>2026-04-07T12:03:55Z</time>
      </trkpt>
      <trkpt lat="50.418138988316059" lon="7.68637896515429">
        <ele>280.55830700000001</ele>
        <time>2026-04-07T12:04:02Z</time>
      </trkpt>
      <trkpt lat="50.41807696223259" lon="7.686425987631083">
        <ele>281.33593400000001</ele>
        <time>2026-04-07T12:04:06Z</time>
      </trkpt>
      <trkpt lat="50.418057013303041" lon="7.686473010107875">
        <ele>281.75018999999998</ele>
        <time>2026-04-07T12:04:09Z</time>
      </trkpt>
      <trkpt lat="50.418028011918068" lon="7.686516009271145">
        <ele>282.19977399999999</ele>
        <time>2026-04-07T12:04:12Z</time>
      </trkpt>
      <trkpt lat="50.417860960587859" lon="7.68667995929718">
        <ele>284.46212800000001</ele>
        <time>2026-04-07T12:04:25Z</time>
      </trkpt>
      <trkpt lat="50.417807986959815" lon="7.686753971502185">
        <ele>285.26946299999997</ele>
        <time>2026-04-07T12:04:30Z</time>
      </trkpt>
      <trkpt lat="50.417674966156483" lon="7.686897972598672">
        <ele>287.09920599999998</ele>
        <time>2026-04-07T12:04:41Z</time>
      </trkpt>
      <trkpt lat="50.417596008628607" lon="7.686984976753593">
        <ele>288.21505000000002</ele>
        <time>2026-04-07T12:04:47Z</time>
      </trkpt>
      <trkpt lat="50.417371038347483" lon="7.687215982005">
        <ele>291.27333900000002</ele>
        <time>2026-04-07T12:05:03Z</time>
      </trkpt>
      <trkpt lat="50.417143972590566" lon="7.687445981428027">
        <ele>294.29113000000001</ele>
        <time>2026-04-07T12:05:18Z</time>
      </trkpt>
      <trkpt lat="50.416735019534826" lon="7.687887959182262">
        <ele>295.86025999999998</ele>
        <time>2026-04-07T12:05:45Z</time>
      </trkpt>
      <trkpt lat="50.416240990161896" lon="7.688479973003268">
        <ele>297.82603499999999</ele>
        <time>2026-04-07T12:06:13Z</time>
      </trkpt>
      <trkpt lat="50.41612297296524" lon="7.688637971878052">
        <ele>298.33952099999999</ele>
        <time>2026-04-07T12:06:35Z</time>
      </trkpt>
      <trkpt lat="50.416124984622002" lon="7.688636966049671">
        <ele>298.39767999999998</ele>
        <time>2026-04-07T12:06:41Z</time>
      </trkpt>
      <trkpt lat="50.416160020977259" lon="7.688717013224959">
        <ele>298.62250499999999</ele>
        <time>2026-04-07T12:07:04Z</time>
      </trkpt>
      <trkpt lat="50.416148034855723" lon="7.688980959355831">
        <ele>299.22025100000002</ele>
        <time>2026-04-07T12:07:53Z</time>
      </trkpt>
      <trkpt lat="50.416139988228679" lon="7.688994035124779">
        <ele>299.26238699999999</ele>
        <time>2026-04-07T12:09:05Z</time>
      </trkpt>
      <trkpt lat="50.416172007098794" lon="7.68893301486969">
        <ele>299.43021499999998</ele>
        <time>2026-04-07T12:09:12Z</time>
      </trkpt>
      <trkpt lat="50.416144011542201" lon="7.688701003789902">
        <ele>299.92943600000001</ele>
        <time>2026-04-07T12:09:20Z</time>
      </trkpt>
      <trkpt lat="50.416088020429015" lon="7.688620034605265">
        <ele>300.07349699999997</ele>
        <time>2026-04-07T12:09:24Z</time>
      </trkpt>
      <trkpt lat="50.416009984910488" lon="7.688669990748167">
        <ele>300.23400299999997</ele>
        <time>2026-04-07T12:09:28Z</time>
      </trkpt>
      <trkpt lat="50.415475973859429" lon="7.689263010397553">
        <ele>301.46042199999999</ele>
        <time>2026-04-07T12:09:54Z</time>
      </trkpt>
      <trkpt lat="50.415001977235079" lon="7.689917972311378">
        <ele>302.64240100000001</ele>
        <time>2026-04-07T12:10:22Z</time>
      </trkpt>
      <trkpt lat="50.415001977235079" lon="7.689916966482997">
        <ele>302.64358600000003</ele>
        <time>2026-04-07T12:10:37Z</time>
      </trkpt>
      <trkpt lat="50.414627976715565" lon="7.690090974792838">
        <ele>303.477532</ele>
        <time>2026-04-07T12:10:56Z</time>
      </trkpt>
      <trkpt lat="50.413813004270196" lon="7.690482996404171">
        <ele>306.52931899999999</ele>
        <time>2026-04-07T12:11:25Z</time>
      </trkpt>
      <trkpt lat="50.413373960182071" lon="7.690531024709344">
        <ele>308.13859300000001</ele>
        <time>2026-04-07T12:11:38Z</time>
      </trkpt>
      <trkpt lat="50.413042958825827" lon="7.690848028287292">
        <ele>309.63904200000002</ele>
        <time>2026-04-07T12:11:50Z</time>
      </trkpt>
      <trkpt lat="50.411859015002847" lon="7.691497039049864">
        <ele>311.87898799999999</ele>
        <time>2026-04-07T12:12:23Z</time>
      </trkpt>
      <trkpt lat="50.411488031968474" lon="7.69164296798408">
        <ele>312.55277899999999</ele>
        <time>2026-04-07T12:12:31Z</time>
      </trkpt>
      <trkpt lat="50.411059968173504" lon="7.691729972139001">
        <ele>314.618403</ele>
        <time>2026-04-07T12:12:43Z</time>
      </trkpt>
      <trkpt lat="50.411015963181853" lon="7.691884031519294">
        <ele>315.38669800000002</ele>
        <time>2026-04-07T12:12:47Z</time>
      </trkpt>
      <trkpt lat="50.410918984562159" lon="7.692475039511919">
        <ele>317.98866500000003</ele>
        <time>2026-04-07T12:13:10Z</time>
      </trkpt>
      <trkpt lat="50.410919990390539" lon="7.692504962906241">
        <ele>318.11403799999999</ele>
        <time>2026-04-07T12:13:11Z</time>
      </trkpt>
      <trkpt lat="50.411000037565827" lon="7.69280000589788">
        <ele>319.54312900000002</ele>
        <time>2026-04-07T12:13:23Z</time>
      </trkpt>
      <trkpt lat="50.411164993420243" lon="7.692961022257805">
        <ele>320.82423699999998</ele>
        <time>2026-04-07T12:13:33Z</time>
      </trkpt>
      <trkpt lat="50.411448972299695" lon="7.693206025287509">
        <ele>323.39512200000001</ele>
        <time>2026-04-07T12:13:52Z</time>
      </trkpt>
      <trkpt lat="50.411445032805204" lon="7.693262016400695">
        <ele>323.63163200000002</ele>
        <time>2026-04-07T12:13:54Z</time>
      </trkpt>
      <trkpt lat="50.411360962316394" lon="7.693442981690168">
        <ele>324.570717</ele>
        <time>2026-04-07T12:14:01Z</time>
      </trkpt>
      <trkpt lat="50.411334978416562" lon="7.693483969196677">
        <ele>324.76086299999997</ele>
        <time>2026-04-07T12:14:03Z</time>
      </trkpt>
      <trkpt lat="50.411313017830253" lon="7.693580025807023">
        <ele>325.07523900000001</ele>
        <time>2026-04-07T12:14:08Z</time>
      </trkpt>
      <trkpt lat="50.411268007010221" lon="7.693665018305183">
        <ele>325.41465799999997</ele>
        <time>2026-04-07T12:14:12Z</time>
      </trkpt>
      <trkpt lat="50.41109399870038" lon="7.693915972486138">
        <ele>326.57272499999999</ele>
        <time>2026-04-07T12:14:25Z</time>
      </trkpt>
      <trkpt lat="50.410810019820929" lon="7.694385023787618">
        <ele>328.56079599999998</ele>
        <time>2026-04-07T12:14:47Z</time>
      </trkpt>
      <trkpt lat="50.410742964595556" lon="7.694501029327512">
        <ele>329.044355</ele>
        <time>2026-04-07T12:14:51Z</time>
      </trkpt>
      <trkpt lat="50.410445993766189" lon="7.694882992655039">
        <ele>330.89529399999998</ele>
        <time>2026-04-07T12:15:04Z</time>
      </trkpt>
      <trkpt lat="50.410240972414613" lon="7.69520603120327">
        <ele>332.31046600000002</ele>
        <time>2026-04-07T12:15:14Z</time>
      </trkpt>
      <trkpt lat="50.410366030409932" lon="7.695452962070704">
        <ele>333.429709</ele>
        <time>2026-04-07T12:15:23Z</time>
      </trkpt>
      <trkpt lat="50.41070600040257" lon="7.695803996175528">
        <ele>336.47790600000002</ele>
        <time>2026-04-07T12:15:45Z</time>
      </trkpt>
      <trkpt lat="50.410690996795893" lon="7.695910027250648">
        <ele>336.90649400000001</ele>
        <time>2026-04-07T12:15:49Z</time>
      </trkpt>
      <trkpt lat="50.410603992640972" lon="7.696585021913052">
        <ele>339.62606599999998</ele>
        <time>2026-04-07T12:16:11Z</time>
      </trkpt>
      <trkpt lat="50.41051497682929" lon="7.697336040437222">
        <ele>342.62695600000001</ele>
        <time>2026-04-07T12:16:34Z</time>
      </trkpt>
      <trkpt lat="50.410431995987892" lon="7.698182025924325">
        <ele>345.72435300000001</ele>
        <time>2026-04-07T12:17:00Z</time>
      </trkpt>
      <trkpt lat="50.410437025129795" lon="7.699087020009756">
        <ele>348.786813</ele>
        <time>2026-04-07T12:17:26Z</time>
      </trkpt>
      <trkpt lat="50.410501984879375" lon="7.699309978634119">
        <ele>349.59652</ele>
        <time>2026-04-07T12:17:33Z</time>
      </trkpt>
      <trkpt lat="50.410824017599225" lon="7.699993019923568">
        <ele>352.41349100000002</ele>
        <time>2026-04-07T12:17:56Z</time>
      </trkpt>
      <trkpt lat="50.410893000662327" lon="7.700799023732543">
        <ele>354.56383699999998</ele>
        <time>2026-04-07T12:18:17Z</time>
      </trkpt>
      <trkpt lat="50.410456974059343" lon="7.701307972893119">
        <ele>355.992728</ele>
        <time>2026-04-07T12:18:36Z</time>
      </trkpt>
      <trkpt lat="50.409887004643679" lon="7.701851036399603">
        <ele>357.74299500000001</ele>
        <time>2026-04-07T12:18:57Z</time>
      </trkpt>
      <trkpt lat="50.409432034939528" lon="7.702211039140821">
        <ele>360.86533600000001</ele>
        <time>2026-04-07T12:19:15Z</time>
      </trkpt>
      <trkpt lat="50.409405967220664" lon="7.70225596614182">
        <ele>361.21056499999997</ele>
        <time>2026-04-07T12:19:17Z</time>
      </trkpt>
      <trkpt lat="50.409437986090779" lon="7.702311035245657">
        <ele>361.71417000000002</ele>
        <time>2026-04-07T12:19:21Z</time>
      </trkpt>
      <trkpt lat="50.409470004960895" lon="7.702326960861683">
        <ele>362.01040399999999</ele>
        <time>2026-04-07T12:19:23Z</time>
      </trkpt>
      <trkpt lat="50.409491965547204" lon="7.702356968075037">
        <ele>362.26737500000002</ele>
        <time>2026-04-07T12:19:25Z</time>
      </trkpt>
      <trkpt lat="50.409637978300452" lon="7.702453024685383">
        <ele>363.70092499999998</ele>
        <time>2026-04-07T12:19:34Z</time>
      </trkpt>
      <trkpt lat="50.409722970798612" lon="7.702512033283711">
        <ele>364.53567600000002</ele>
        <time>2026-04-07T12:19:39Z</time>
      </trkpt>
      <trkpt lat="50.409893961623311" lon="7.702644970268011">
        <ele>366.22723400000001</ele>
        <time>2026-04-07T12:19:49Z</time>
      </trkpt>
      <trkpt lat="50.410225968807936" lon="7.702801041305065">
        <ele>369.31830400000001</ele>
        <time>2026-04-07T12:20:08Z</time>
      </trkpt>
      <trkpt lat="50.410379022359848" lon="7.702971026301384">
        <ele>370.99966799999999</ele>
        <time>2026-04-07T12:20:20Z</time>
      </trkpt>
      <trkpt lat="50.410400982946157" lon="7.703494979068637">
        <ele>374.05607099999997</ele>
        <time>2026-04-07T12:20:43Z</time>
      </trkpt>
      <trkpt lat="50.410397965461016" lon="7.703516017645598">
        <ele>374.176962</ele>
        <time>2026-04-07T12:20:44Z</time>
      </trkpt>
      <trkpt lat="50.410413974896073" lon="7.703747022897005">
        <ele>376.27559600000001</ele>
        <time>2026-04-07T12:20:55Z</time>
      </trkpt>
      <trkpt lat="50.410392014309764" lon="7.703917007893324">
        <ele>377.82870400000002</ele>
        <time>2026-04-07T12:21:03Z</time>
      </trkpt>
      <trkpt lat="50.410402994602919" lon="7.704167040064931">
        <ele>380.10261300000002</ele>
        <time>2026-04-07T12:21:15Z</time>
      </trkpt>
      <trkpt lat="50.410397965461016" lon="7.704186988994479">
        <ele>380.292734</ele>
        <time>2026-04-07T12:21:16Z</time>
      </trkpt>
      <trkpt lat="50.410402994602919" lon="7.704325960949063">
        <ele>381.52799199999998</ele>
        <time>2026-04-07T12:21:22Z</time>
      </trkpt>
      <trkpt lat="50.41040500625968" lon="7.704346999526024">
        <ele>381.71589399999999</ele>
        <time>2026-04-07T12:21:23Z</time>
      </trkpt>
      <trkpt lat="50.410400982946157" lon="7.704452024772763">
        <ele>382.66751299999999</ele>
        <time>2026-04-07T12:21:28Z</time>
      </trkpt>
      <trkpt lat="50.410401988774538" lon="7.704475997015834">
        <ele>382.88035300000001</ele>
        <time>2026-04-07T12:21:29Z</time>
      </trkpt>
      <trkpt lat="50.410395031794906" lon="7.704578004777432">
        <ele>383.79868099999999</ele>
        <time>2026-04-07T12:21:34Z</time>
      </trkpt>
      <trkpt lat="50.410394025966525" lon="7.704931972548366">
        <ele>386.97133000000002</ele>
        <time>2026-04-07T12:21:50Z</time>
      </trkpt>
      <trkpt lat="50.410390002653003" lon="7.705274960026145">
        <ele>390.02622500000001</ele>
        <time>2026-04-07T12:22:06Z</time>
      </trkpt>
      <trkpt lat="50.410388996824622" lon="7.705295998603106">
        <ele>390.212582</ele>
        <time>2026-04-07T12:22:07Z</time>
      </trkpt>
      <trkpt lat="50.410399977117777" lon="7.705375961959362">
        <ele>390.95832899999999</ele>
        <time>2026-04-07T12:22:11Z</time>
      </trkpt>
      <trkpt lat="50.410396037623286" lon="7.705500014126301">
        <ele>392.06908099999998</ele>
        <time>2026-04-07T12:22:17Z</time>
      </trkpt>
      <trkpt lat="50.410388996824622" lon="7.705665975809097">
        <ele>393.55634600000002</ele>
        <time>2026-04-07T12:22:24Z</time>
      </trkpt>
      <trkpt lat="50.410390002653003" lon="7.705930005759001">
        <ele>395.95356700000002</ele>
        <time>2026-04-07T12:22:36Z</time>
      </trkpt>
      <trkpt lat="50.410397965461016" lon="7.706209039315581">
        <ele>398.46119099999999</ele>
        <time>2026-04-07T12:22:48Z</time>
      </trkpt>
      <trkpt lat="50.410400982946157" lon="7.70622898824513">
        <ele>398.64301699999999</ele>
        <time>2026-04-07T12:22:49Z</time>
      </trkpt>
      <trkpt lat="50.410395031794906" lon="7.706298977136612">
        <ele>399.23789199999999</ele>
        <time>2026-04-07T12:22:52Z</time>
      </trkpt>
      <trkpt lat="50.410391008481383" lon="7.706473991274834">
        <ele>400.38533899999999</ele>
        <time>2026-04-07T12:23:00Z</time>
      </trkpt>
      <trkpt lat="50.410395031794906" lon="7.706617992371321">
        <ele>401.32592299999999</ele>
        <time>2026-04-07T12:23:07Z</time>
      </trkpt>
      <trkpt lat="50.410398971289396" lon="7.706768028438091">
        <ele>402.28915899999998</ele>
        <time>2026-04-07T12:23:14Z</time>
      </trkpt>
      <trkpt lat="50.410393020138144" lon="7.706946982070804">
        <ele>403.45324699999998</ele>
        <time>2026-04-07T12:23:22Z</time>
      </trkpt>
      <trkpt lat="50.410391008481383" lon="7.707111015915871">
        <ele>404.51216399999998</ele>
        <time>2026-04-07T12:23:30Z</time>
      </trkpt>
      <trkpt lat="50.410396037623286" lon="7.707154015079141">
        <ele>404.79062699999997</ele>
        <time>2026-04-07T12:23:32Z</time>
      </trkpt>
      <trkpt lat="50.410394025966525" lon="7.707396000623703">
        <ele>406.355929</ele>
        <time>2026-04-07T12:23:43Z</time>
      </trkpt>
      <trkpt lat="50.41038203984499" lon="7.707868991419673">
        <ele>409.38951600000001</ele>
        <time>2026-04-07T12:24:04Z</time>
      </trkpt>
      <trkpt lat="50.410408023744822" lon="7.708307029679418">
        <ele>412.22542199999998</ele>
        <time>2026-04-07T12:24:23Z</time>
      </trkpt>
      <trkpt lat="50.410454040393233" lon="7.708391016349196">
        <ele>412.97772900000001</ele>
        <time>2026-04-07T12:24:56Z</time>
      </trkpt>
      <trkpt lat="50.410445993766189" lon="7.708397973328829">
        <ele>413.15784600000001</ele>
        <time>2026-04-07T12:25:49Z</time>
      </trkpt>
      <trkpt lat="50.410587983205914" lon="7.708687987178564">
        <ele>415.84073699999999</ele>
        <time>2026-04-07T12:26:05Z</time>
      </trkpt>
      <trkpt lat="50.410889983177185" lon="7.709200959652662">
        <ele>418.85773499999999</ele>
        <time>2026-04-07T12:26:26Z</time>
      </trkpt>
      <trkpt lat="50.411271024495363" lon="7.70979599095881">
        <ele>421.784243</ele>
        <time>2026-04-07T12:26:52Z</time>
      </trkpt>
      <trkpt lat="50.411452995613217" lon="7.710144007578492">
        <ele>423.35477400000002</ele>
        <time>2026-04-07T12:27:18Z</time>
      </trkpt>
      <trkpt lat="50.411452995613217" lon="7.710141995921731">
        <ele>423.36170099999998</ele>
        <time>2026-04-07T12:29:32Z</time>
      </trkpt>
      <trkpt lat="50.411294996738434" lon="7.710230005905032">
        <ele>424.47869300000002</ele>
        <time>2026-04-07T12:29:49Z</time>
      </trkpt>
      <trkpt lat="50.411115037277341" lon="7.710363026708365">
        <ele>425.56494099999998</ele>
        <time>2026-04-07T12:30:06Z</time>
      </trkpt>
      <trkpt lat="50.410808008164167" lon="7.71052798256278">
        <ele>426.70985000000002</ele>
        <time>2026-04-07T12:30:34Z</time>
      </trkpt>
      <trkpt lat="50.410761991515756" lon="7.710654968395829">
        <ele>426.39660700000002</ele>
        <time>2026-04-07T12:31:18Z</time>
      </trkpt>
      <trkpt lat="50.410652020946145" lon="7.710725963115692">
        <ele>426.10181899999998</ele>
        <time>2026-04-07T12:31:47Z</time>
      </trkpt>
      <trkpt lat="50.41042503900826" lon="7.710882034152746">
        <ele>425.52186799999998</ele>
        <time>2026-04-07T12:32:10Z</time>
      </trkpt>
      <trkpt lat="50.410386985167861" lon="7.710900977253914">
        <ele>425.42972400000002</ele>
        <time>2026-04-07T12:32:13Z</time>
      </trkpt>
      <trkpt lat="50.410315990447998" lon="7.71091103553772">
        <ele>425.264229</ele>
        <time>2026-04-07T12:32:19Z</time>
      </trkpt>
      <trkpt lat="50.410235021263361" lon="7.7109569683671">
        <ele>425.06116600000001</ele>
        <time>2026-04-07T12:32:28Z</time>
      </trkpt>
      <trkpt lat="50.410011978819966" lon="7.711071968078613">
        <ele>424.50813099999999</ele>
        <time>2026-04-07T12:32:47Z</time>
      </trkpt>
      <trkpt lat="50.409884992986917" lon="7.711180010810494">
        <ele>424.15598999999997</ele>
        <time>2026-04-07T12:33:03Z</time>
      </trkpt>
      <trkpt lat="50.409841993823647" lon="7.711214041337371">
        <ele>424.04103199999997</ele>
        <time>2026-04-07T12:33:07Z</time>
      </trkpt>
      <trkpt lat="50.409778961911798" lon="7.711251005530357">
        <ele>423.88235300000002</ele>
        <time>2026-04-07T12:33:13Z</time>
      </trkpt>
      <trkpt lat="50.409758007153869" lon="7.711271960288286">
        <ele>423.82293199999998</ele>
        <time>2026-04-07T12:33:16Z</time>
      </trkpt>
      <trkpt lat="50.409620041027665" lon="7.711330968886614">
        <ele>423.48818599999998</ele>
        <time>2026-04-07T12:33:28Z</time>
      </trkpt>
      <trkpt lat="50.409594979137182" lon="7.711361981928349">
        <ele>423.41413499999999</ele>
        <time>2026-04-07T12:33:31Z</time>
      </trkpt>
      <trkpt lat="50.409548040479422" lon="7.71138402633369">
        <ele>423.29539399999999</ele>
        <time>2026-04-07T12:33:37Z</time>
      </trkpt>
      <trkpt lat="50.40952599607408" lon="7.711402969434857">
        <ele>423.23348700000003</ele>
        <time>2026-04-07T12:33:40Z</time>
      </trkpt>
      <trkpt lat="50.409313011914492" lon="7.711529033258557">
        <ele>422.57844399999999</ele>
        <time>2026-04-07T12:34:02Z</time>
      </trkpt>
      <trkpt lat="50.409171022474766" lon="7.711619976907969">
        <ele>421.41857399999998</ele>
        <time>2026-04-07T12:34:19Z</time>
      </trkpt>
      <trkpt lat="50.409146966412663" lon="7.71164202131331">
        <ele>421.20625999999999</ele>
        <time>2026-04-07T12:34:22Z</time>
      </trkpt>
      <trkpt lat="50.408958960324526" lon="7.711789961904287">
        <ele>419.58800600000001</ele>
        <time>2026-04-07T12:34:45Z</time>
      </trkpt>
      <trkpt lat="50.408950997516513" lon="7.71181502379477">
        <ele>419.45503600000001</ele>
        <time>2026-04-07T12:34:49Z</time>
      </trkpt>
      <trkpt lat="50.408722003921866" lon="7.711930023506284">
        <ele>417.63003500000002</ele>
        <time>2026-04-07T12:35:10Z</time>
      </trkpt>
      <trkpt lat="50.408664001151919" lon="7.711978973820806">
        <ele>417.06455199999999</ele>
        <time>2026-04-07T12:35:51Z</time>
      </trkpt>
      <trkpt lat="50.408541038632393" lon="7.712071007117629">
        <ele>416.04207500000001</ele>
        <time>2026-04-07T12:36:03Z</time>
      </trkpt>
      <trkpt lat="50.408522011712193" lon="7.712117023766041">
        <ele>415.761392</ele>
        <time>2026-04-07T12:36:07Z</time>
      </trkpt>
      <trkpt lat="50.408509019762278" lon="7.712178966030479">
        <ele>415.407892</ele>
        <time>2026-04-07T12:36:13Z</time>
      </trkpt>
      <trkpt lat="50.408501978963614" lon="7.712214002385736">
        <ele>415.16560600000003</ele>
        <time>2026-04-07T12:36:17Z</time>
      </trkpt>
      <trkpt lat="50.408455962315202" lon="7.712237974628806">
        <ele>414.80605700000001</ele>
        <time>2026-04-07T12:36:21Z</time>
      </trkpt>
      <trkpt lat="50.408293018117547" lon="7.712263036519289">
        <ele>413.53167400000001</ele>
        <time>2026-04-07T12:36:41Z</time>
      </trkpt>
      <trkpt lat="50.408220011740923" lon="7.71233000792563">
        <ele>412.88995999999997</ele>
        <time>2026-04-07T12:36:49Z</time>
      </trkpt>
      <trkpt lat="50.408148011192679" lon="7.712407959625125">
        <ele>412.23566199999999</ele>
        <time>2026-04-07T12:36:57Z</time>
      </trkpt>
      <trkpt lat="50.407967967912555" lon="7.712500998750329">
        <ele>410.81950799999998</ele>
        <time>2026-04-07T12:37:11Z</time>
      </trkpt>
      <trkpt lat="50.407923040911555" lon="7.712537962943316">
        <ele>410.44259299999999</ele>
        <time>2026-04-07T12:37:14Z</time>
      </trkpt>
      <trkpt lat="50.407894039526582" lon="7.71256797015667">
        <ele>410.17724099999998</ele>
        <time>2026-04-07T12:37:17Z</time>
      </trkpt>
      <trkpt lat="50.407795971259475" lon="7.712691016495228">
        <ele>409.256888</ele>
        <time>2026-04-07T12:37:30Z</time>
      </trkpt>
      <trkpt lat="50.407777028158307" lon="7.712720017880201">
        <ele>409.071639</ele>
        <time>2026-04-07T12:37:33Z</time>
      </trkpt>
      <trkpt lat="50.407736962661147" lon="7.712786989286542">
        <ele>408.63426099999998</ele>
        <time>2026-04-07T12:38:07Z</time>
      </trkpt>
      <trkpt lat="50.407733023166656" lon="7.712810961529613">
        <ele>408.530396</ele>
        <time>2026-04-07T12:39:18Z</time>
      </trkpt>
      <trkpt lat="50.407437980175018" lon="7.712385999038816">
        <ele>405.879661</ele>
        <time>2026-04-07T12:39:32Z</time>
      </trkpt>
      <trkpt lat="50.407425994053483" lon="7.712399996817112">
        <ele>405.75360899999998</ele>
        <time>2026-04-07T12:39:37Z</time>
      </trkpt>
      <trkpt lat="50.40744099766016" lon="7.712401002645493">
        <ele>405.54873800000001</ele>
        <time>2026-04-07T12:39:55Z</time>
      </trkpt>
      <trkpt lat="50.407435968518257" lon="7.712404020130634">
        <ele>405.442387</ele>
        <time>2026-04-07T12:40:05Z</time>
      </trkpt>
      <trkpt lat="50.407409984618425" lon="7.712351968511939">
        <ele>405.156699</ele>
        <time>2026-04-07T12:40:11Z</time>
      </trkpt>
      <trkpt lat="50.407089041545987" lon="7.7119430154562">
        <ele>402.42958499999997</ele>
        <time>2026-04-07T12:40:24Z</time>
      </trkpt>
      <trkpt lat="50.406921990215778" lon="7.711746040731669">
        <ele>401.05803100000003</ele>
        <time>2026-04-07T12:40:29Z</time>
      </trkpt>
      <trkpt lat="50.406797016039491" lon="7.71155996248126">
        <ele>399.92646000000002</ele>
        <time>2026-04-07T12:40:33Z</time>
      </trkpt>
      <trkpt lat="50.406657960265875" lon="7.711400035768747">
        <ele>398.79467</ele>
        <time>2026-04-07T12:40:37Z</time>
      </trkpt>
      <trkpt lat="50.406528962776065" lon="7.711203983053565">
        <ele>397.61255999999997</ele>
        <time>2026-04-07T12:40:41Z</time>
      </trkpt>
      <trkpt lat="50.406500967219472" lon="7.711157966405153">
        <ele>397.22875199999999</ele>
        <time>2026-04-07T12:40:42Z</time>
      </trkpt>
      <trkpt lat="50.406455034390092" lon="7.711032992228866">
        <ele>396.35759899999999</ele>
        <time>2026-04-07T12:40:44Z</time>
      </trkpt>
      <trkpt lat="50.406260993331671" lon="7.710707020014525">
        <ele>393.64753999999999</ele>
        <time>2026-04-07T12:40:52Z</time>
      </trkpt>
      <trkpt lat="50.406029988080263" lon="7.710313992574811">
        <ele>390.41287299999999</ele>
        <time>2026-04-07T12:41:02Z</time>
      </trkpt>
      <trkpt lat="50.405840976163745" lon="7.709938986226916">
        <ele>387.50532399999997</ele>
        <time>2026-04-07T12:41:11Z</time>
      </trkpt>
      <trkpt lat="50.405627992004156" lon="7.709511006250978">
        <ele>384.21738499999998</ele>
        <time>2026-04-07T12:41:21Z</time>
      </trkpt>
      <trkpt lat="50.405412996187806" lon="7.709106998518109">
        <ele>381.03501199999999</ele>
        <time>2026-04-07T12:41:32Z</time>
      </trkpt>
      <trkpt lat="50.405191965401173" lon="7.708611963316798">
        <ele>377.937119</ele>
        <time>2026-04-07T12:41:44Z</time>
      </trkpt>
      <trkpt lat="50.40494604036212" lon="7.708128998056054">
        <ele>374.85058099999998</ele>
        <time>2026-04-07T12:41:55Z</time>
      </trkpt>
      <trkpt lat="50.404697014018893" lon="7.707618959248066">
        <ele>371.64451200000002</ele>
        <time>2026-04-07T12:42:06Z</time>
      </trkpt>
      <trkpt lat="50.404445976018906" lon="7.707125013694167">
        <ele>368.49152400000003</ele>
        <time>2026-04-07T12:42:17Z</time>
      </trkpt>
      <trkpt lat="50.404146993532777" lon="7.706631990149617">
        <ele>366.01739700000002</ele>
        <time>2026-04-07T12:42:30Z</time>
      </trkpt>
      <trkpt lat="50.404060995206237" lon="7.706789989024401">
        <ele>365.59591899999998</ele>
        <time>2026-04-07T12:42:37Z</time>
      </trkpt>
      <trkpt lat="50.404159985482693" lon="7.707473030313849">
        <ele>364.33581900000001</ele>
        <time>2026-04-07T12:42:52Z</time>
      </trkpt>
      <trkpt lat="50.404233997687697" lon="7.707706969231367">
        <ele>363.87796200000003</ele>
        <time>2026-04-07T12:42:56Z</time>
      </trkpt>
      <trkpt lat="50.404299963265657" lon="7.707963958382607">
        <ele>363.39194300000003</ele>
        <time>2026-04-07T12:43:00Z</time>
      </trkpt>
      <trkpt lat="50.404441030696034" lon="7.708307029679418">
        <ele>362.67372</ele>
        <time>2026-04-07T12:43:06Z</time>
      </trkpt>
      <trkpt lat="50.404537003487349" lon="7.708676001057029">
        <ele>361.97564999999997</ele>
        <time>2026-04-07T12:43:12Z</time>
      </trkpt>
      <trkpt lat="50.404587965458632" lon="7.708947993814945">
        <ele>361.54343999999998</ele>
        <time>2026-04-07T12:43:16Z</time>
      </trkpt>
      <trkpt lat="50.40462501347065" lon="7.709245970472693">
        <ele>361.31111199999998</ele>
        <time>2026-04-07T12:43:21Z</time>
      </trkpt>
      <trkpt lat="50.404765997081995" lon="7.710412982851267">
        <ele>360.40240999999997</ele>
        <time>2026-04-07T12:43:43Z</time>
      </trkpt>
      <trkpt lat="50.404770020395517" lon="7.711302973330021">
        <ele>359.71807100000001</ele>
        <time>2026-04-07T12:44:05Z</time>
      </trkpt>
      <trkpt lat="50.404778989031911" lon="7.712303018197417">
        <ele>360.03675399999997</ele>
        <time>2026-04-07T12:44:25Z</time>
      </trkpt>
      <trkpt lat="50.40477697737515" lon="7.712350962683559">
        <ele>360.08169199999998</ele>
        <time>2026-04-07T12:44:26Z</time>
      </trkpt>
      <trkpt lat="50.405006976798177" lon="7.713106004521251">
        <ele>360.87410299999999</ele>
        <time>2026-04-07T12:44:44Z</time>
      </trkpt>
      <trkpt lat="50.405424982309341" lon="7.713955007493496">
        <ele>361.88051899999999</ele>
        <time>2026-04-07T12:45:07Z</time>
      </trkpt>
      <trkpt lat="50.405863020569086" lon="7.714869976043701">
        <ele>363.56777499999998</ele>
        <time>2026-04-07T12:45:31Z</time>
      </trkpt>
      <trkpt lat="50.406272979453206" lon="7.715692995116115">
        <ele>365.23362100000003</ele>
        <time>2026-04-07T12:45:54Z</time>
      </trkpt>
      <trkpt lat="50.406499961391091" lon="7.716208985075355">
        <ele>366.23686199999997</ele>
        <time>2026-04-07T12:46:07Z</time>
      </trkpt>
      <trkpt lat="50.406577996909618" lon="7.716358015313745">
        <ele>366.54497700000002</ele>
        <time>2026-04-07T12:46:11Z</time>
      </trkpt>
      <trkpt lat="50.406959038227797" lon="7.717111967504025">
        <ele>365.32708100000002</ele>
        <time>2026-04-07T12:46:32Z</time>
      </trkpt>
      <trkpt lat="50.407129023224115" lon="7.717748992145062">
        <ele>364.42066999999997</ele>
        <time>2026-04-07T12:46:45Z</time>
      </trkpt>
      <trkpt lat="50.407089041545987" lon="7.7181959990412">
        <ele>363.83666199999999</ele>
        <time>2026-04-07T12:46:52Z</time>
      </trkpt>
      <trkpt lat="50.407114019617438" lon="7.718859007582068">
        <ele>362.97117500000002</ele>
        <time>2026-04-07T12:47:04Z</time>
      </trkpt>
      <trkpt lat="50.407146960496902" lon="7.719175005331636">
        <ele>362.58685200000002</ele>
        <time>2026-04-07T12:47:09Z</time>
      </trkpt>
      <trkpt lat="50.407319040969014" lon="7.71937801502645">
        <ele>362.17497100000003</ele>
        <time>2026-04-07T12:47:15Z</time>
      </trkpt>
      <trkpt lat="50.407345024868846" lon="7.719387989491224">
        <ele>362.12525399999998</ele>
        <time>2026-04-07T12:47:16Z</time>
      </trkpt>
      <trkpt lat="50.407141009345651" lon="7.719555040821433">
        <ele>361.48428000000001</ele>
        <time>2026-04-07T12:47:28Z</time>
      </trkpt>
      <trkpt lat="50.407104967162013" lon="7.71952997893095">
        <ele>361.41116599999998</ele>
        <time>2026-04-07T12:47:29Z</time>
      </trkpt>
      <trkpt lat="50.406970018520951" lon="7.719316994771361">
        <ele>361.050724</ele>
        <time>2026-04-07T12:47:34Z</time>
      </trkpt>
      <trkpt lat="50.406908998265862" lon="7.719101998955011">
        <ele>360.770824</ele>
        <time>2026-04-07T12:47:38Z</time>
      </trkpt>
      <trkpt lat="50.406634993851185" lon="7.717762989923358">
        <ele>358.87710600000003</ele>
        <time>2026-04-07T12:48:01Z</time>
      </trkpt>
      <trkpt lat="50.406599035486579" lon="7.717648996040225">
        <ele>358.65575200000001</ele>
        <time>2026-04-07T12:48:03Z</time>
      </trkpt>
      <trkpt lat="50.406545978039503" lon="7.717533996328712">
        <ele>358.40898399999998</ele>
        <time>2026-04-07T12:48:05Z</time>
      </trkpt>
      <trkpt lat="50.406414968892932" lon="7.717340961098671">
        <ele>357.91816</ele>
        <time>2026-04-07T12:48:09Z</time>
      </trkpt>
      <trkpt lat="50.406197961419821" lon="7.717137029394507">
        <ele>357.227913</ele>
        <time>2026-04-07T12:48:14Z</time>
      </trkpt>
      <trkpt lat="50.405934015288949" lon="7.716982970014215">
        <ele>356.45851599999997</ele>
        <time>2026-04-07T12:48:19Z</time>
      </trkpt>
      <trkpt lat="50.405605025589466" lon="7.717096963897348">
        <ele>355.51685700000002</ele>
        <time>2026-04-07T12:48:25Z</time>
      </trkpt>
      <trkpt lat="50.40533303283155" lon="7.717435006052256">
        <ele>354.48324600000001</ele>
        <time>2026-04-07T12:48:31Z</time>
      </trkpt>
      <trkpt lat="50.405167993158102" lon="7.717567021027207">
        <ele>353.57577900000001</ele>
        <time>2026-04-07T12:48:34Z</time>
      </trkpt>
      <trkpt lat="50.404845960438251" lon="7.717634998261929">
        <ele>351.97840400000001</ele>
        <time>2026-04-07T12:48:39Z</time>
      </trkpt>
      <trkpt lat="50.404204996302724" lon="7.717471970245242">
        <ele>348.78027400000002</ele>
        <time>2026-04-07T12:48:50Z</time>
      </trkpt>
      <trkpt lat="50.404111035168171" lon="7.717392006888986">
        <ele>348.25752699999998</ele>
        <time>2026-04-07T12:48:52Z</time>
      </trkpt>
      <trkpt lat="50.403963010758162" lon="7.717214981094003">
        <ele>347.329632</ele>
        <time>2026-04-07T12:49:15Z</time>
      </trkpt>
      <trkpt lat="50.403965022414923" lon="7.717211041599512">
        <ele>347.31379299999998</ele>
        <time>2026-04-07T12:49:36Z</time>
      </trkpt>
      <trkpt lat="50.403886986896396" lon="7.717012977227569">
        <ele>346.58538700000003</ele>
        <time>2026-04-07T12:49:41Z</time>
      </trkpt>
      <trkpt lat="50.403651958331466" lon="7.71594000980258">
        <ele>343.33894900000001</ele>
        <time>2026-04-07T12:49:55Z</time>
      </trkpt>
      <trkpt lat="50.403426988050342" lon="7.714861007407308">
        <ele>340.16308800000002</ele>
        <time>2026-04-07T12:50:07Z</time>
      </trkpt>
      <trkpt lat="50.403219033032656" lon="7.713879989460111">
        <ele>337.14960000000002</ele>
        <time>2026-04-07T12:50:18Z</time>
      </trkpt>
      <trkpt lat="50.403076959773898" lon="7.713194014504552">
        <ele>334.79405300000002</ele>
        <time>2026-04-07T12:50:26Z</time>
      </trkpt>
      <trkpt lat="50.40297201834619" lon="7.71273803897202">
        <ele>333.20692100000002</ele>
        <time>2026-04-07T12:50:32Z</time>
      </trkpt>
      <trkpt lat="50.402924995869398" lon="7.71260803565383">
        <ele>332.71890300000001</ele>
        <time>2026-04-07T12:50:34Z</time>
      </trkpt>
      <trkpt lat="50.402549989521503" lon="7.712319027632475">
        <ele>330.31638900000002</ele>
        <time>2026-04-07T12:50:46Z</time>
      </trkpt>
      <trkpt lat="50.402469020336866" lon="7.712339982390404">
        <ele>329.895691</ele>
        <time>2026-04-07T12:50:48Z</time>
      </trkpt>
      <trkpt lat="50.402265004813671" lon="7.712321961298585">
        <ele>328.844157</ele>
        <time>2026-04-07T12:50:53Z</time>
      </trkpt>
      <trkpt lat="50.402179006487131" lon="7.712327996268868">
        <ele>328.208843</ele>
        <time>2026-04-07T12:50:55Z</time>
      </trkpt>
      <trkpt lat="50.40194196626544" lon="7.712303018197417">
        <ele>326.36477500000001</ele>
        <time>2026-04-07T12:51:00Z</time>
      </trkpt>
      <trkpt lat="50.401591015979648" lon="7.712318021804094">
        <ele>323.63583199999999</ele>
        <time>2026-04-07T12:51:07Z</time>
      </trkpt>
      <trkpt lat="50.401338972151279" lon="7.712320033460856">
        <ele>321.68119899999999</ele>
        <time>2026-04-07T12:51:12Z</time>
      </trkpt>
      <trkpt lat="50.401143003255129" lon="7.712303018197417">
        <ele>320.15855599999998</ele>
        <time>2026-04-07T12:51:16Z</time>
      </trkpt>
      <trkpt lat="50.400726003572345" lon="7.712283991277218">
        <ele>316.91533399999997</ele>
        <time>2026-04-07T12:51:26Z</time>
      </trkpt>
      <trkpt lat="50.400472031906247" lon="7.712363032624126">
        <ele>314.78487999999999</ele>
        <time>2026-04-07T12:51:41Z</time>
      </trkpt>
      <trkpt lat="50.400484018027782" lon="7.712521031498909">
        <ele>314.09614199999999</ele>
        <time>2026-04-07T12:51:46Z</time>
      </trkpt>
      <trkpt lat="50.400601029396057" lon="7.713248999789357">
        <ele>310.846248</ele>
        <time>2026-04-07T12:52:04Z</time>
      </trkpt>
      <trkpt lat="50.400678981095552" lon="7.71346801891923">
        <ele>309.76575000000003</ele>
        <time>2026-04-07T12:52:08Z</time>
      </trkpt>
      <trkpt lat="50.400718040764332" lon="7.713571032509208">
        <ele>309.25104700000003</ele>
        <time>2026-04-07T12:52:10Z</time>
      </trkpt>
      <trkpt lat="50.400975029915571" lon="7.714163968339562">
        <ele>306.16882299999997</ele>
        <time>2026-04-07T12:52:21Z</time>
      </trkpt>
      <trkpt lat="50.401002019643784" lon="7.714492036029697">
        <ele>304.73609199999999</ele>
        <time>2026-04-07T12:52:26Z</time>
      </trkpt>
      <trkpt lat="50.400872016325593" lon="7.715205000713468">
        <ele>301.64405599999998</ele>
        <time>2026-04-07T12:52:40Z</time>
      </trkpt>
      <trkpt lat="50.400862041860819" lon="7.71520902402699">
        <ele>301.57138300000003</ele>
        <time>2026-04-07T12:53:23Z</time>
      </trkpt>
      <trkpt lat="50.400856006890535" lon="7.715218998491764">
        <ele>301.51804600000003</ele>
        <time>2026-04-07T12:53:51Z</time>
      </trkpt>
      <trkpt lat="50.400873022153974" lon="7.715654019266367">
        <ele>299.80398000000002</ele>
        <time>2026-04-07T12:54:02Z</time>
      </trkpt>
      <trkpt lat="50.400890959426761" lon="7.715762984007597">
        <ele>299.36463900000001</ele>
        <time>2026-04-07T12:54:04Z</time>
      </trkpt>
      <trkpt lat="50.400835974141955" lon="7.716260030865669">
        <ele>297.39900399999999</ele>
        <time>2026-04-07T12:54:12Z</time>
      </trkpt>
      <trkpt lat="50.400925995782018" lon="7.716721035540104">
        <ele>295.44480399999998</ele>
        <time>2026-04-07T12:54:21Z</time>
      </trkpt>
      <trkpt lat="50.401255991309881" lon="7.716826982796192">
        <ele>293.36692599999998</ele>
        <time>2026-04-07T12:54:32Z</time>
      </trkpt>
      <trkpt lat="50.40168103761971" lon="7.717161001637578">
        <ele>290.30221599999999</ele>
        <time>2026-04-07T12:54:43Z</time>
      </trkpt>
      <trkpt lat="50.401692017912865" lon="7.717222021892667">
        <ele>290.05408299999999</ele>
        <time>2026-04-07T12:54:44Z</time>
      </trkpt>
      <trkpt lat="50.401960993185639" lon="7.717663999646902">
        <ele>287.57502799999997</ele>
        <time>2026-04-07T12:54:55Z</time>
      </trkpt>
      <trkpt lat="50.40226299315691" lon="7.717888969928026">
        <ele>285.51918799999999</ele>
        <time>2026-04-07T12:55:03Z</time>
      </trkpt>
      <trkpt lat="50.402697008103132" lon="7.718250984326005">
        <ele>282.49943100000002</ele>
        <time>2026-04-07T12:55:14Z</time>
      </trkpt>
      <trkpt lat="50.402887025848031" lon="7.718467991799116">
        <ele>281.03466700000001</ele>
        <time>2026-04-07T12:55:23Z</time>
      </trkpt>
      <trkpt lat="50.402902029454708" lon="7.718495987355709">
        <ele>280.61746499999998</ele>
        <time>2026-04-07T12:55:40Z</time>
      </trkpt>
      <trkpt lat="50.402894988656044" lon="7.718503028154373">
        <ele>280.59195399999999</ele>
        <time>2026-04-07T12:55:43Z</time>
      </trkpt>
      <trkpt lat="50.402805972844362" lon="7.71838802844286">
        <ele>278.644203</ele>
        <time>2026-04-07T12:57:41Z</time>
      </trkpt>
      <trkpt lat="50.40331500582397" lon="7.718749959021807">
        <ele>279.63391799999999</ele>
        <time>2026-04-07T12:57:58Z</time>
      </trkpt>
      <trkpt lat="50.403350964188576" lon="7.718772003427148">
        <ele>279.706097</ele>
        <time>2026-04-07T12:58:24Z</time>
      </trkpt>
      <trkpt lat="50.403490019962192" lon="7.718916004523635">
        <ele>280.00111399999997</ele>
        <time>2026-04-07T12:58:31Z</time>
      </trkpt>
      <trkpt lat="50.403501000255346" lon="7.719133011996746">
        <ele>280.28091599999999</ele>
        <time>2026-04-07T12:58:37Z</time>
      </trkpt>
      <trkpt lat="50.403449032455683" lon="7.719193026423454">
        <ele>280.39583499999998</ele>
        <time>2026-04-07T12:58:39Z</time>
      </trkpt>
      <trkpt lat="50.403286004438996" lon="7.719236025586724">
        <ele>280.68750499999999</ele>
        <time>2026-04-07T12:58:44Z</time>
      </trkpt>
      <trkpt lat="50.402861963957548" lon="7.719287993386388">
        <ele>281.44254999999998</ele>
        <time>2026-04-07T12:59:01Z</time>
      </trkpt>
      <trkpt lat="50.402410011738539" lon="7.719152960926294">
        <ele>282.09744000000001</ele>
        <time>2026-04-07T12:59:20Z</time>
      </trkpt>
      <trkpt lat="50.401851022616029" lon="7.718971995636821">
        <ele>282.71218399999998</ele>
        <time>2026-04-07T12:59:41Z</time>
      </trkpt>
      <trkpt lat="50.401268983259797" lon="7.718959003686905">
        <ele>283.338977</ele>
        <time>2026-04-07T13:00:03Z</time>
      </trkpt>
      <trkpt lat="50.401071002706885" lon="7.71888398565352">
        <ele>283.55760600000002</ele>
        <time>2026-04-07T13:00:11Z</time>
      </trkpt>
      <trkpt lat="50.400933958590031" lon="7.718899995088577">
        <ele>283.70644099999998</ele>
        <time>2026-04-07T13:00:17Z</time>
      </trkpt>
      <trkpt lat="50.400847960263491" lon="7.718978030607104">
        <ele>283.74143600000002</ele>
        <time>2026-04-07T13:00:21Z</time>
      </trkpt>
      <trkpt lat="50.400813007727265" lon="7.719038967043161">
        <ele>283.68431500000003</ele>
        <time>2026-04-07T13:00:43Z</time>
      </trkpt>
      <trkpt lat="50.400575967505574" lon="7.719814041629434">
        <ele>283.30550199999999</ele>
        <time>2026-04-07T13:01:02Z</time>
      </trkpt>
      <trkpt lat="50.400385027751327" lon="7.720683999359608">
        <ele>282.90131400000001</ele>
        <time>2026-04-07T13:01:25Z</time>
      </trkpt>
      <trkpt lat="50.400243038311601" lon="7.72144197486341">
        <ele>282.55462</ele>
        <time>2026-04-07T13:01:45Z</time>
      </trkpt>
      <trkpt lat="50.400325013324618" lon="7.721761995926499">
        <ele>282.83370100000002</ele>
        <time>2026-04-07T13:02:07Z</time>
      </trkpt>
      <trkpt lat="50.400332976132631" lon="7.721775993704796">
        <ele>282.85463299999998</ele>
        <time>2026-04-07T13:02:18Z</time>
      </trkpt>
      <trkpt lat="50.400248989462852" lon="7.722124010324478">
        <ele>283.233361</ele>
        <time>2026-04-07T13:02:28Z</time>
      </trkpt>
      <trkpt lat="50.400203978642821" lon="7.722243033349514">
        <ele>283.37586299999998</ele>
        <time>2026-04-07T13:02:32Z</time>
      </trkpt>
      <trkpt lat="50.400171959772706" lon="7.722339006140828">
        <ele>283.48415799999998</ele>
        <time>2026-04-07T13:02:35Z</time>
      </trkpt>
      <trkpt lat="50.399947995319963" lon="7.722650980576873">
        <ele>283.95724300000001</ele>
        <time>2026-04-07T13:02:47Z</time>
      </trkpt>
      <trkpt lat="50.399908013641834" lon="7.722748965024948">
        <ele>284.07508999999999</ele>
        <time>2026-04-07T13:02:51Z</time>
      </trkpt>
      <trkpt lat="50.399840036407113" lon="7.722862036898732">
        <ele>284.23030599999998</ele>
        <time>2026-04-07T13:02:55Z</time>
      </trkpt>
      <trkpt lat="50.399606013670564" lon="7.722904030233622">
        <ele>284.62700599999999</ele>
        <time>2026-04-07T13:03:18Z</time>
      </trkpt>
      <trkpt lat="50.399606013670564" lon="7.722904030233622">
        <ele>284.62700599999999</ele>
        <time>2026-04-07T13:03:26Z</time>
      </trkpt>
      <trkpt lat="50.399573994800448" lon="7.722931019961834">
        <ele>284.68519400000002</ele>
        <time>2026-04-07T13:03:30Z</time>
      </trkpt>
      <trkpt lat="50.399548010900617" lon="7.722857007756829">
        <ele>284.77012300000001</ele>
        <time>2026-04-07T13:03:33Z</time>
      </trkpt>
      <trkpt lat="50.399420019239187" lon="7.722830018028617">
        <ele>285.00805100000002</ele>
        <time>2026-04-07T13:03:47Z</time>
      </trkpt>
      <trkpt lat="50.399419013410807" lon="7.722828006371856">
        <ele>285.01058399999999</ele>
        <time>2026-04-07T13:03:49Z</time>
      </trkpt>
      <trkpt lat="50.399446003139019" lon="7.72275198251009">
        <ele>285.09967899999998</ele>
        <time>2026-04-07T13:03:53Z</time>
      </trkpt>
      <trkpt lat="50.399643983691931" lon="7.722269017249346">
        <ele>286.45356099999998</ele>
        <time>2026-04-07T13:04:06Z</time>
      </trkpt>
      <trkpt lat="50.399601990357041" lon="7.721578013151884">
        <ele>288.777647</ele>
        <time>2026-04-07T13:04:29Z</time>
      </trkpt>
      <trkpt lat="50.399606013670564" lon="7.721366034820676">
        <ele>289.48673000000002</ele>
        <time>2026-04-07T13:04:37Z</time>
      </trkpt>
      <trkpt lat="50.399622023105621" lon="7.721311971545219">
        <ele>289.68469299999998</ele>
        <time>2026-04-07T13:04:39Z</time>
      </trkpt>
      <trkpt lat="50.3995989728719" lon="7.720965966582298">
        <ele>290.85172799999998</ele>
        <time>2026-04-07T13:04:51Z</time>
      </trkpt>
      <trkpt lat="50.399550022557378" lon="7.720759017392993">
        <ele>291.612438</ele>
        <time>2026-04-07T13:05:16Z</time>
      </trkpt>
      <trkpt lat="50.399550022557378" lon="7.720742002129555">
        <ele>291.67703999999998</ele>
        <time>2026-04-07T13:05:18Z</time>
      </trkpt>
      <trkpt lat="50.399520015344024" lon="7.720415024086833">
        <ele>292.84339799999998</ele>
        <time>2026-04-07T13:05:39Z</time>
      </trkpt>
      <trkpt lat="50.399381965398788" lon="7.719943961128593">
        <ele>294.59132399999999</ele>
        <time>2026-04-07T13:05:57Z</time>
      </trkpt>
      <trkpt lat="50.399265959858894" lon="7.719791997224093">
        <ele>295.48464100000001</ele>
        <time>2026-04-07T13:06:05Z</time>
      </trkpt>
      <trkpt lat="50.39912598207593" lon="7.719703987240791">
        <ele>296.379841</ele>
        <time>2026-04-07T13:06:14Z</time>
      </trkpt>
      <trkpt lat="50.398869998753071" lon="7.719647996127605">
        <ele>297.93451700000003</ele>
        <time>2026-04-07T13:06:29Z</time>
      </trkpt>
      <trkpt lat="50.398721974343061" lon="7.719560991972685">
        <ele>298.87897400000003</ele>
        <time>2026-04-07T13:06:37Z</time>
      </trkpt>
      <trkpt lat="50.398678975179791" lon="7.719531990587711">
        <ele>299.157263</ele>
        <time>2026-04-07T13:06:40Z</time>
      </trkpt>
      <trkpt lat="50.398598005995154" lon="7.719482034444809">
        <ele>299.67809</ele>
        <time>2026-04-07T13:06:45Z</time>
      </trkpt>
      <trkpt lat="50.39854696020484" lon="7.719444986432791">
        <ele>300.01021200000002</ele>
        <time>2026-04-07T13:06:48Z</time>
      </trkpt>
      <trkpt lat="50.398409999907017" lon="7.719339039176703">
        <ele>300.92037299999998</ele>
        <time>2026-04-07T13:06:57Z</time>
      </trkpt>
      <trkpt lat="50.398215958848596" lon="7.719169976189733">
        <ele>302.24179299999997</ele>
        <time>2026-04-07T13:07:08Z</time>
      </trkpt>
      <trkpt lat="50.398141024634242" lon="7.719081966206431">
        <ele>302.81685499999998</ele>
        <time>2026-04-07T13:07:14Z</time>
      </trkpt>
      <trkpt lat="50.398118980228901" lon="7.719051958993077">
        <ele>302.98872899999998</ele>
        <time>2026-04-07T13:07:16Z</time>
      </trkpt>
      <trkpt lat="50.398057959973812" lon="7.719020023941994">
        <ele>303.36878000000002</ele>
        <time>2026-04-07T13:07:20Z</time>
      </trkpt>
      <trkpt lat="50.397968022152781" lon="7.718985993415117">
        <ele>303.91583500000002</ele>
        <time>2026-04-07T13:07:26Z</time>
      </trkpt>
      <trkpt lat="50.397667028009892" lon="7.718882979825139">
        <ele>305.73453999999998</ele>
        <time>2026-04-07T13:07:43Z</time>
      </trkpt>
      <trkpt lat="50.397583963349462" lon="7.71851803176105">
        <ele>307.07573100000002</ele>
        <time>2026-04-07T13:07:56Z</time>
      </trkpt>
      <trkpt lat="50.39757901802659" lon="7.718463968485594">
        <ele>307.26211899999998</ele>
        <time>2026-04-07T13:07:58Z</time>
      </trkpt>
      <trkpt lat="50.397545993328094" lon="7.718300018459559">
        <ele>307.86632400000002</ele>
        <time>2026-04-07T13:08:04Z</time>
      </trkpt>
      <trkpt lat="50.397524032741785" lon="7.718220977112651">
        <ele>308.16226499999999</ele>
        <time>2026-04-07T13:08:07Z</time>
      </trkpt>
      <trkpt lat="50.397468041628599" lon="7.718032971024513">
        <ele>308.87900100000002</ele>
        <time>2026-04-07T13:08:15Z</time>
      </trkpt>
      <trkpt lat="50.397448008880019" lon="7.718020984902978">
        <ele>309.01991299999997</ele>
        <time>2026-04-07T13:08:45Z</time>
      </trkpt>
      <trkpt lat="50.397271988913417" lon="7.717855023220182">
        <ele>310.14768199999997</ele>
        <time>2026-04-07T13:08:59Z</time>
      </trkpt>
      <trkpt lat="50.397179033607244" lon="7.717787967994809">
        <ele>310.69826699999999</ele>
        <time>2026-04-07T13:09:04Z</time>
      </trkpt>
      <trkpt lat="50.397096974775195" lon="7.71772300824523">
        <ele>311.20203299999997</ele>
        <time>2026-04-07T13:09:10Z</time>
      </trkpt>
      <trkpt lat="50.396941993385553" lon="7.71770398132503">
        <ele>312.03712100000001</ele>
        <time>2026-04-07T13:09:20Z</time>
      </trkpt>
      <trkpt lat="50.396829005330801" lon="7.7177469804883">
        <ele>312.66143199999999</ele>
        <time>2026-04-07T13:09:27Z</time>
      </trkpt>
      <trkpt lat="50.396775025874376" lon="7.717780005186796">
        <ele>312.98161299999998</ele>
        <time>2026-04-07T13:09:31Z</time>
      </trkpt>
      <trkpt lat="50.396746024489403" lon="7.717787967994809">
        <ele>313.139002</ele>
        <time>2026-04-07T13:09:33Z</time>
      </trkpt>
      <trkpt lat="50.396651979535818" lon="7.717868015170097">
        <ele>313.73646300000001</ele>
        <time>2026-04-07T13:09:41Z</time>
      </trkpt>
      <trkpt lat="50.396405970677733" lon="7.718060966581106">
        <ele>315.23465199999998</ele>
        <time>2026-04-07T13:09:58Z</time>
      </trkpt>
      <trkpt lat="50.396322989836335" lon="7.718122992664576">
        <ele>315.761235</ele>
        <time>2026-04-07T13:10:02Z</time>
      </trkpt>
      <trkpt lat="50.396282002329826" lon="7.718178983777762">
        <ele>316.08261499999998</ele>
        <time>2026-04-07T13:10:06Z</time>
      </trkpt>
      <trkpt lat="50.396221987903118" lon="7.718237992376089">
        <ele>316.488449</ele>
        <time>2026-04-07T13:10:10Z</time>
      </trkpt>
      <trkpt lat="50.395871959626675" lon="7.718409989029169">
        <ele>318.64304399999997</ele>
        <time>2026-04-07T13:10:31Z</time>
      </trkpt>
      <trkpt lat="50.39562301710248" lon="7.718516020104289">
        <ele>320.12439899999998</ele>
        <time>2026-04-07T13:10:45Z</time>
      </trkpt>
      <trkpt lat="50.395521009340882" lon="7.718572011217475">
        <ele>320.75008200000002</ele>
        <time>2026-04-07T13:10:50Z</time>
      </trkpt>
      <trkpt lat="50.395439034327865" lon="7.718611992895603">
        <ele>321.24365</ele>
        <time>2026-04-07T13:10:54Z</time>
      </trkpt>
      <trkpt lat="50.395336020737886" lon="7.718688016757369">
        <ele>321.901388</ele>
        <time>2026-04-07T13:11:01Z</time>
      </trkpt>
      <trkpt lat="50.39532202295959" lon="7.718704026192427">
        <ele>322.00028800000001</ele>
        <time>2026-04-07T13:11:02Z</time>
      </trkpt>
      <trkpt lat="50.39510996080935" lon="7.718801004812121">
        <ele>323.26427799999999</ele>
        <time>2026-04-07T13:11:13Z</time>
      </trkpt>
      <trkpt lat="50.394879961386323" lon="7.71869296208024">
        <ele>324.64634999999998</ele>
        <time>2026-04-07T13:11:26Z</time>
      </trkpt>
      <trkpt lat="50.394471008330584" lon="7.718638982623816">
        <ele>327.14057600000001</ele>
        <time>2026-04-07T13:11:49Z</time>
      </trkpt>
      <trkpt lat="50.394312003627419" lon="7.71869296208024">
        <ele>328.15360700000002</ele>
        <time>2026-04-07T13:11:58Z</time>
      </trkpt>
      <trkpt lat="50.393875977024436" lon="7.71873202174902">
        <ele>330.82958000000002</ele>
        <time>2026-04-07T13:12:21Z</time>
      </trkpt>
      <trkpt lat="50.393654024228454" lon="7.718809973448515">
        <ele>332.22027800000001</ele>
        <time>2026-04-07T13:12:35Z</time>
      </trkpt>
      <trkpt lat="50.393479010090232" lon="7.718914998695254">
        <ele>333.37302599999998</ele>
        <time>2026-04-07T13:12:47Z</time>
      </trkpt>
      <trkpt lat="50.393124036490917" lon="7.71912002004683">
        <ele>335.688626</ele>
        <time>2026-04-07T13:13:06Z</time>
      </trkpt>
      <trkpt lat="50.392989004030824" lon="7.719171987846494">
        <ele>336.74019600000003</ele>
        <time>2026-04-07T13:13:13Z</time>
      </trkpt>
      <trkpt lat="50.392890013754368" lon="7.719181040301919">
        <ele>337.59622100000001</ele>
        <time>2026-04-07T13:13:19Z</time>
      </trkpt>
      <trkpt lat="50.392822036519647" lon="7.719203000888228">
        <ele>338.21959500000003</ele>
        <time>2026-04-07T13:13:24Z</time>
      </trkpt>
      <trkpt lat="50.392690021544695" lon="7.719171987846494">
        <ele>339.370091</ele>
        <time>2026-04-07T13:13:32Z</time>
      </trkpt>
      <trkpt lat="50.392520958557725" lon="7.71927097812295">
        <ele>340.97328499999998</ele>
        <time>2026-04-07T13:13:43Z</time>
      </trkpt>
      <trkpt lat="50.39246597327292" lon="7.719312971457839">
        <ele>341.498808</ele>
        <time>2026-04-07T13:13:46Z</time>
      </trkpt>
      <trkpt lat="50.392342004925013" lon="7.719468036666513">
        <ele>342.88926099999998</ele>
        <time>2026-04-07T13:13:56Z</time>
      </trkpt>
      <trkpt lat="50.39220898412168" lon="7.719685966148973">
        <ele>344.55692599999998</ele>
        <time>2026-04-07T13:14:07Z</time>
      </trkpt>
      <trkpt lat="50.392162967473269" lon="7.719809012487531">
        <ele>345.35509100000002</ele>
        <time>2026-04-07T13:14:13Z</time>
      </trkpt>
      <trkpt lat="50.392117034643888" lon="7.719944966956973">
        <ele>346.209204</ele>
        <time>2026-04-07T13:14:19Z</time>
      </trkpt>
      <trkpt lat="50.392094990238547" lon="7.720038006082177">
        <ele>346.75658099999998</ele>
        <time>2026-04-07T13:14:23Z</time>
      </trkpt>
      <trkpt lat="50.392069006338716" lon="7.720211008563638">
        <ele>347.73333600000001</ele>
        <time>2026-04-07T13:14:30Z</time>
      </trkpt>
      <trkpt lat="50.392123991623521" lon="7.720299018546939">
        <ele>348.42483399999998</ele>
        <time>2026-04-07T13:14:35Z</time>
      </trkpt>
      <trkpt lat="50.39229498244822" lon="7.720565982162952">
        <ele>350.503826</ele>
        <time>2026-04-07T13:14:49Z</time>
      </trkpt>
      <trkpt lat="50.392843997105956" lon="7.720360960811377">
        <ele>352.48029500000001</ele>
        <time>2026-04-07T13:15:12Z</time>
      </trkpt>
      <trkpt lat="50.393634997308254" lon="7.720557013526559">
        <ele>354.23213500000003</ele>
        <time>2026-04-07T13:15:36Z</time>
      </trkpt>
      <trkpt lat="50.394207984209061" lon="7.720848033204675">
        <ele>355.50141200000002</ele>
        <time>2026-04-07T13:15:55Z</time>
      </trkpt>
      <trkpt lat="50.395008036866784" lon="7.721168976277113">
        <ele>356.70266500000002</ele>
        <time>2026-04-07T13:16:20Z</time>
      </trkpt>
      <trkpt lat="50.39523895829916" lon="7.721252962946892">
        <ele>357.04710399999999</ele>
        <time>2026-04-07T13:16:27Z</time>
      </trkpt>
      <trkpt lat="50.395992994308472" lon="7.721509030088782">
        <ele>358.12936400000001</ele>
        <time>2026-04-07T13:16:52Z</time>
      </trkpt>
      <trkpt lat="50.396621972322464" lon="7.721833996474743">
        <ele>358.87776600000001</ele>
        <time>2026-04-07T13:17:17Z</time>
      </trkpt>
      <trkpt lat="50.397304007783532" lon="7.722174972295761">
        <ele>359.69216299999999</ele>
        <time>2026-04-07T13:17:42Z</time>
      </trkpt>
      <trkpt lat="50.397524032741785" lon="7.722336994484067">
        <ele>359.96854300000001</ele>
        <time>2026-04-07T13:18:08Z</time>
      </trkpt>
      <trkpt lat="50.397520009428263" lon="7.722341017797589">
        <ele>359.97380500000003</ele>
        <time>2026-04-07T13:19:01Z</time>
      </trkpt>
      <trkpt lat="50.397520009428263" lon="7.722433973103762">
        <ele>360.04185999999999</ele>
        <time>2026-04-07T13:19:33Z</time>
      </trkpt>
      <trkpt lat="50.397634003311396" lon="7.722960021346808">
        <ele>360.46217200000001</ele>
        <time>2026-04-07T13:19:50Z</time>
      </trkpt>
      <trkpt lat="50.397181967273355" lon="7.724119992926717">
        <ele>361.474242</ele>
        <time>2026-04-07T13:20:17Z</time>
      </trkpt>
      <trkpt lat="50.396892037242651" lon="7.725551035255194">
        <ele>363.26155199999999</ele>
        <time>2026-04-07T13:20:47Z</time>
      </trkpt>
      <trkpt lat="50.396435977891088" lon="7.726462986320257">
        <ele>365.198263</ele>
        <time>2026-04-07T13:21:13Z</time>
      </trkpt>
      <trkpt lat="50.395869025960565" lon="7.727117026224732">
        <ele>367.24951099999998</ele>
        <time>2026-04-07T13:21:35Z</time>
      </trkpt>
      <trkpt lat="50.395679008215666" lon="7.72726496681571">
        <ele>368.19002499999999</ele>
        <time>2026-04-07T13:21:42Z</time>
      </trkpt>
      <trkpt lat="50.395195037126541" lon="7.727541988715529">
        <ele>370.47448100000003</ele>
        <time>2026-04-07T13:22:01Z</time>
      </trkpt>
      <trkpt lat="50.395056987181306" lon="7.727664029225707">
        <ele>371.180924</ele>
        <time>2026-04-07T13:22:09Z</time>
      </trkpt>
      <trkpt lat="50.394953973591328" lon="7.727728988975287">
        <ele>371.68923799999999</ele>
        <time>2026-04-07T13:22:14Z</time>
      </trkpt>
      <trkpt lat="50.394913991913199" lon="7.727724965661764">
        <ele>371.86665399999998</ele>
        <time>2026-04-07T13:22:16Z</time>
      </trkpt>
      <trkpt lat="50.39489203132689" lon="7.727739969268441">
        <ele>371.972576</ele>
        <time>2026-04-07T13:22:57Z</time>
      </trkpt>
      <trkpt lat="50.394864035770297" lon="7.727768970653415">
        <ele>372.12072000000001</ele>
        <time>2026-04-07T13:23:10Z</time>
      </trkpt>
      <trkpt lat="50.394664965569973" lon="7.727878019213677">
        <ele>373.07814000000002</ele>
        <time>2026-04-07T13:23:26Z</time>
      </trkpt>
      <trkpt lat="50.394259029999375" lon="7.728311028331518">
        <ele>375.30060900000001</ele>
        <time>2026-04-07T13:23:46Z</time>
      </trkpt>
      <trkpt lat="50.393815040588379" lon="7.728235004469752">
        <ele>377.22458799999998</ele>
        <time>2026-04-07T13:24:04Z</time>
      </trkpt>
      <trkpt lat="50.393481021746993" lon="7.728278003633022">
        <ele>378.696709</ele>
        <time>2026-04-07T13:24:28Z</time>
      </trkpt>
      <trkpt lat="50.393471969291568" lon="7.728279009461403">
        <ele>378.74164100000002</ele>
        <time>2026-04-07T13:24:33Z</time>
      </trkpt>
      <trkpt lat="50.393461994826794" lon="7.728868005797267">
        <ele>380.42257999999998</ele>
        <time>2026-04-07T13:24:50Z</time>
      </trkpt>
      <trkpt lat="50.393526032567024" lon="7.729421965777874">
        <ele>381.98543699999999</ele>
        <time>2026-04-07T13:25:09Z</time>
      </trkpt>
      <trkpt lat="50.393660981208086" lon="7.73009997792542">
        <ele>384.44478800000002</ele>
        <time>2026-04-07T13:25:31Z</time>
      </trkpt>
      <trkpt lat="50.394031964242458" lon="7.730639018118382">
        <ele>387.22831400000001</ele>
        <time>2026-04-07T13:25:55Z</time>
      </trkpt>
      <trkpt lat="50.394447958096862" lon="7.731189960613847">
        <ele>390.22436699999997</ele>
        <time>2026-04-07T13:26:20Z</time>
      </trkpt>
      <trkpt lat="50.394965959712863" lon="7.73198900744319">
        <ele>392.75889899999999</ele>
        <time>2026-04-07T13:26:48Z</time>
      </trkpt>
      <trkpt lat="50.395267959684134" lon="7.732774978503585">
        <ele>393.68651799999998</ele>
        <time>2026-04-07T13:27:08Z</time>
      </trkpt>
      <trkpt lat="50.395453032106161" lon="7.734028995037079">
        <ele>394.99987700000003</ele>
        <time>2026-04-07T13:27:33Z</time>
      </trkpt>
      <trkpt lat="50.395511034876108" lon="7.735629016533494">
        <ele>395.68375900000001</ele>
        <time>2026-04-07T13:28:02Z</time>
      </trkpt>
      <trkpt lat="50.395578006282449" lon="7.736942041665316">
        <ele>396.35338999999999</ele>
        <time>2026-04-07T13:28:27Z</time>
      </trkpt>
      <trkpt lat="50.395619999617338" lon="7.738162027671933">
        <ele>398.33505600000001</ele>
        <time>2026-04-07T13:28:53Z</time>
      </trkpt>
      <trkpt lat="50.395670961588621" lon="7.739512016996741">
        <ele>400.52287899999999</ele>
        <time>2026-04-07T13:29:20Z</time>
      </trkpt>
      <trkpt lat="50.395712032914162" lon="7.740537039935589">
        <ele>400.752364</ele>
        <time>2026-04-07T13:29:39Z</time>
      </trkpt>
      <trkpt lat="50.395744973793626" lon="7.741835983470082">
        <ele>400.74027599999999</ele>
        <time>2026-04-07T13:30:03Z</time>
      </trkpt>
      <trkpt lat="50.395803982391953" lon="7.743431981652975">
        <ele>398.72883200000001</ele>
        <time>2026-04-07T13:30:33Z</time>
      </trkpt>
      <trkpt lat="50.395854022353888" lon="7.744264975190163">
        <ele>396.99068199999999</ele>
        <time>2026-04-07T13:30:47Z</time>
      </trkpt>
      <trkpt lat="50.395750002935529" lon="7.74432398378849">
        <ele>396.56913500000002</ele>
        <time>2026-04-07T13:30:52Z</time>
      </trkpt>
      <trkpt lat="50.39536502212286" lon="7.744120974093676">
        <ele>395.24199700000003</ele>
        <time>2026-04-07T13:31:06Z</time>
      </trkpt>
      <trkpt lat="50.395282041281462" lon="7.744122985750437">
        <ele>394.96720599999998</ele>
        <time>2026-04-07T13:31:32Z</time>
      </trkpt>
      <trkpt lat="50.395180033519864" lon="7.744056014344096">
        <ele>394.28744399999999</ele>
        <time>2026-04-07T13:31:36Z</time>
      </trkpt>
      <trkpt lat="50.39482899941504" lon="7.743867002427578">
        <ele>391.65582000000001</ele>
        <time>2026-04-07T13:31:46Z</time>
      </trkpt>
      <trkpt lat="50.394675023853779" lon="7.743793996050954">
        <ele>390.51597099999998</ele>
        <time>2026-04-07T13:31:50Z</time>
      </trkpt>
      <trkpt lat="50.394491041079164" lon="7.743705986067653">
        <ele>389.15024799999998</ele>
        <time>2026-04-07T13:31:55Z</time>
      </trkpt>
      <trkpt lat="50.394450975582004" lon="7.743684025481343">
        <ele>388.85054000000002</ele>
        <time>2026-04-07T13:31:56Z</time>
      </trkpt>
      <trkpt lat="50.394245032221079" lon="7.74357296526432">
        <ele>387.30624999999998</ele>
        <time>2026-04-07T13:32:01Z</time>
      </trkpt>
      <trkpt lat="50.394203960895538" lon="7.74354999884963">
        <ele>386.99837200000002</ele>
        <time>2026-04-07T13:32:02Z</time>
      </trkpt>
      <trkpt lat="50.393981002271175" lon="7.74344002828002">
        <ele>385.34260399999999</ele>
        <time>2026-04-07T13:32:07Z</time>
      </trkpt>
      <trkpt lat="50.393772963434458" lon="7.743325028568506">
        <ele>383.78189700000001</ele>
        <time>2026-04-07T13:32:12Z</time>
      </trkpt>
      <trkpt lat="50.393648995086551" lon="7.743272976949811">
        <ele>382.87304699999999</ele>
        <time>2026-04-07T13:32:15Z</time>
      </trkpt>
      <trkpt lat="50.393385970965028" lon="7.743116989731789">
        <ele>380.19944800000002</ele>
        <time>2026-04-07T13:32:21Z</time>
      </trkpt>
      <trkpt lat="50.393168041482568" lon="7.742973994463682">
        <ele>377.62997799999999</ele>
        <time>2026-04-07T13:32:26Z</time>
      </trkpt>
      <trkpt lat="50.393086988478899" lon="7.742915991693735">
        <ele>376.666088</ele>
        <time>2026-04-07T13:32:28Z</time>
      </trkpt>
      <trkpt lat="50.392840979620814" lon="7.742696972563863">
        <ele>373.57748099999998</ele>
        <time>2026-04-07T13:32:35Z</time>
      </trkpt>
      <trkpt lat="50.392735032364726" lon="7.742593958973885">
        <ele>372.22231900000003</ele>
        <time>2026-04-07T13:32:38Z</time>
      </trkpt>
      <trkpt lat="50.392606034874916" lon="7.742495974525809">
        <ele>370.67027300000001</ele>
        <time>2026-04-07T13:32:41Z</time>
      </trkpt>
      <trkpt lat="50.392463961616158" lon="7.742430008947849">
        <ele>369.06701399999997</ele>
        <time>2026-04-07T13:32:44Z</time>
      </trkpt>
      <trkpt lat="50.392295988276601" lon="7.742382986471057">
        <ele>367.213753</ele>
        <time>2026-04-07T13:32:48Z</time>
      </trkpt>
      <trkpt lat="50.392217030748725" lon="7.742352979257703">
        <ele>366.33382899999998</ele>
        <time>2026-04-07T13:32:50Z</time>
      </trkpt>
      <trkpt lat="50.392047967761755" lon="7.742320038378239">
        <ele>364.47531500000002</ele>
        <time>2026-04-07T13:32:54Z</time>
      </trkpt>
      <trkpt lat="50.391926011070609" lon="7.742272010073066">
        <ele>363.10955799999999</ele>
        <time>2026-04-07T13:32:57Z</time>
      </trkpt>
      <trkpt lat="50.391704980283976" lon="7.742210989817977">
        <ele>361.19147400000003</ele>
        <time>2026-04-07T13:33:02Z</time>
      </trkpt>
      <trkpt lat="50.391572965309024" lon="7.742174025624991">
        <ele>360.10152900000003</ele>
        <time>2026-04-07T13:33:06Z</time>
      </trkpt>
      <trkpt lat="50.391321005299687" lon="7.742074029520154">
        <ele>357.906882</ele>
        <time>2026-04-07T13:33:25Z</time>
      </trkpt>
      <trkpt lat="50.391268031671643" lon="7.742029018700123">
        <ele>357.408254</ele>
        <time>2026-04-07T13:33:43Z</time>
      </trkpt>
      <trkpt lat="50.391182033345103" lon="7.74155099876225">
        <ele>354.84407900000002</ele>
        <time>2026-04-07T13:33:52Z</time>
      </trkpt>
      <trkpt lat="50.390883972868323" lon="7.741139028221369">
        <ele>351.56603699999999</ele>
        <time>2026-04-07T13:34:03Z</time>
      </trkpt>
      <trkpt lat="50.390688003972173" lon="7.741060992702842">
        <ele>349.91712000000001</ele>
        <time>2026-04-07T13:34:25Z</time>
      </trkpt>
      <trkpt lat="50.390347028151155" lon="7.74105504155159">
        <ele>346.84916299999998</ele>
        <time>2026-04-07T13:34:52Z</time>
      </trkpt>
      <trkpt lat="50.390186011791229" lon="7.7410579752177">
        <ele>345.14950499999998</ele>
        <time>2026-04-07T13:35:18Z</time>
      </trkpt>
      <trkpt lat="50.389884011819959" lon="7.741064010187984">
        <ele>342.04789599999998</ele>
        <time>2026-04-07T13:35:38Z</time>
      </trkpt>
      <trkpt lat="50.389537001028657" lon="7.741067027673125">
        <ele>338.48500999999999</ele>
        <time>2026-04-07T13:35:44Z</time>
      </trkpt>
      <trkpt lat="50.389365004375577" lon="7.74107800796628">
        <ele>336.71731999999997</ele>
        <time>2026-04-07T13:35:47Z</time>
      </trkpt>
      <trkpt lat="50.389050012454391" lon="7.740976000204682">
        <ele>333.402243</ele>
        <time>2026-04-07T13:35:53Z</time>
      </trkpt>
      <trkpt lat="50.388771984726191" lon="7.740716999396682">
        <ele>330.076617</ele>
        <time>2026-04-07T13:35:59Z</time>
      </trkpt>
      <trkpt lat="50.388499991968274" lon="7.740446012467146">
        <ele>326.89553999999998</ele>
        <time>2026-04-07T13:36:05Z</time>
      </trkpt>
      <trkpt lat="50.388252977281809" lon="7.740155998617411">
        <ele>323.85622999999998</ele>
        <time>2026-04-07T13:36:11Z</time>
      </trkpt>
      <trkpt lat="50.388077041134238" lon="7.739763977006078">
        <ele>320.84909900000002</ele>
        <time>2026-04-07T13:36:18Z</time>
      </trkpt>
      <trkpt lat="50.388020966202021" lon="7.739601032808423">
        <ele>319.68808899999999</ele>
        <time>2026-04-07T13:36:22Z</time>
      </trkpt>
      <trkpt lat="50.387909989804029" lon="7.73961796425283">
        <ele>318.45233000000002</ele>
        <time>2026-04-07T13:36:27Z</time>
      </trkpt>
      <trkpt lat="50.3876300342381" lon="7.739930022507906">
        <ele>315.075019</ele>
        <time>2026-04-07T13:36:37Z</time>
      </trkpt>
      <trkpt lat="50.387381007894874" lon="7.740214001387358">
        <ele>312.03837399999998</ele>
        <time>2026-04-07T13:36:46Z</time>
      </trkpt>
      <trkpt lat="50.387099962681532" lon="7.740263035520911">
        <ele>309.87043899999998</ele>
        <time>2026-04-07T13:36:54Z</time>
      </trkpt>
      <trkpt lat="50.386702995747328" lon="7.740215007215738">
        <ele>306.80458499999997</ele>
        <time>2026-04-07T13:37:07Z</time>
      </trkpt>
      <trkpt lat="50.386515995487571" lon="7.740117022767663">
        <ele>305.24966699999999</ele>
        <time>2026-04-07T13:37:33Z</time>
      </trkpt>
      <trkpt lat="50.386303011327982" lon="7.740030018612742">
        <ele>303.57003099999997</ele>
        <time>2026-04-07T13:37:38Z</time>
      </trkpt>
      <trkpt lat="50.386122968047857" lon="7.739946031942964">
        <ele>302.13541900000001</ele>
        <time>2026-04-07T13:37:42Z</time>
      </trkpt>
      <trkpt lat="50.385737987235188" lon="7.739719972014427">
        <ele>298.98674099999999</ele>
        <time>2026-04-07T13:37:52Z</time>
      </trkpt>
      <trkpt lat="50.385589962825179" lon="7.739720977842808">
        <ele>298.05671000000001</ele>
        <time>2026-04-07T13:37:56Z</time>
      </trkpt>
      <trkpt lat="50.385499019175768" lon="7.739754002541304">
        <ele>297.64931799999999</ele>
        <time>2026-04-07T13:37:58Z</time>
      </trkpt>
      <trkpt lat="50.385318975895643" lon="7.739798007532954">
        <ele>296.85299099999997</ele>
        <time>2026-04-07T13:38:02Z</time>
      </trkpt>
      <trkpt lat="50.385054023936391" lon="7.739878976717591">
        <ele>295.66942799999998</ele>
        <time>2026-04-07T13:38:28Z</time>
      </trkpt>
      <trkpt lat="50.384718999266624" lon="7.740004034712911">
        <ele>294.163141</ele>
        <time>2026-04-07T13:38:49Z</time>
      </trkpt>
      <trkpt lat="50.384270986542106" lon="7.740148035809398">
        <ele>292.13968599999998</ele>
        <time>2026-04-07T13:39:03Z</time>
      </trkpt>
      <trkpt lat="50.383880976587534" lon="7.739717960357666">
        <ele>290.909265</ele>
        <time>2026-04-07T13:39:16Z</time>
      </trkpt>
      <trkpt lat="50.383834959939122" lon="7.739716032519937">
        <ele>291.088347</ele>
        <time>2026-04-07T13:39:18Z</time>
      </trkpt>
      <trkpt lat="50.383665980771184" lon="7.739718966186047">
        <ele>291.84195899999997</ele>
        <time>2026-04-07T13:39:36Z</time>
      </trkpt>
      <trkpt lat="50.383524997159839" lon="7.739818040281534">
        <ele>292.45565699999997</ele>
        <time>2026-04-07T13:40:12Z</time>
      </trkpt>
      <trkpt lat="50.383508987724781" lon="7.739836983382702">
        <ele>292.53499799999997</ele>
        <time>2026-04-07T13:40:14Z</time>
      </trkpt>
      <trkpt lat="50.383230037987232" lon="7.740053990855813">
        <ele>293.75200000000001</ele>
        <time>2026-04-07T13:40:48Z</time>
      </trkpt>
      <trkpt lat="50.382945975288749" lon="7.740237973630428">
        <ele>294.95363800000001</ele>
        <time>2026-04-07T13:41:20Z</time>
      </trkpt>
      <trkpt lat="50.382800968363881" lon="7.740355990827084">
        <ele>295.59978100000001</ele>
        <time>2026-04-07T13:41:36Z</time>
      </trkpt>
      <trkpt lat="50.382793005555868" lon="7.740620020776987">
        <ele>296.270242</ele>
        <time>2026-04-07T13:41:53Z</time>
      </trkpt>
      <trkpt lat="50.382769033312798" lon="7.740703001618385">
        <ele>296.51550500000002</ele>
        <time>2026-04-07T13:42:33Z</time>
      </trkpt>
      <trkpt lat="50.382768027484417" lon="7.740703001618385">
        <ele>296.51939700000003</ele>
        <time>2026-04-07T13:44:54Z</time>
      </trkpt>
      <trkpt lat="50.382516989484429" lon="7.740718005225062">
        <ele>297.469874</ele>
        <time>2026-04-07T13:45:10Z</time>
      </trkpt>
      <trkpt lat="50.381734035909176" lon="7.740868963301182">
        <ele>294.48447599999997</ele>
        <time>2026-04-07T13:45:36Z</time>
      </trkpt>
      <trkpt lat="50.381168005988002" lon="7.740930989384651">
        <ele>292.33055999999999</ele>
        <time>2026-04-07T13:45:58Z</time>
      </trkpt>
      <trkpt lat="50.380981005728245" lon="7.740997038781643">
        <ele>291.59197899999998</ele>
        <time>2026-04-07T13:46:24Z</time>
      </trkpt>
      <trkpt lat="50.380964996293187" lon="7.740997960790992">
        <ele>291.53140400000001</ele>
        <time>2026-04-07T13:46:33Z</time>
      </trkpt>
      <trkpt lat="50.380611028522253" lon="7.740810960531235">
        <ele>289.563692</ele>
        <time>2026-04-07T13:46:53Z</time>
      </trkpt>
      <trkpt lat="50.380179025232792" lon="7.740652039647102">
        <ele>286.39132799999999</ele>
        <time>2026-04-07T13:47:08Z</time>
      </trkpt>
      <trkpt lat="50.379761019721627" lon="7.740432014688849">
        <ele>283.22682800000001</ele>
        <time>2026-04-07T13:47:22Z</time>
      </trkpt>
      <trkpt lat="50.379387019202113" lon="7.740120962262154">
        <ele>280.20361200000002</ele>
        <time>2026-04-07T13:47:36Z</time>
      </trkpt>
      <trkpt lat="50.379137992858887" lon="7.739900015294552">
        <ele>278.13395600000001</ele>
        <time>2026-04-07T13:47:46Z</time>
      </trkpt>
      <trkpt lat="50.378847979009151" lon="7.739867996424437">
        <ele>275.77022899999997</ele>
        <time>2026-04-07T13:47:58Z</time>
      </trkpt>
      <trkpt lat="50.378891984000802" lon="7.740095984190702">
        <ele>274.53873800000002</ele>
        <time>2026-04-07T13:48:05Z</time>
      </trkpt>
      <trkpt lat="50.379181997850537" lon="7.740535028278828">
        <ele>271.53503000000001</ele>
        <time>2026-04-07T13:48:17Z</time>
      </trkpt>
      <trkpt lat="50.379512999206781" lon="7.740958984941244">
        <ele>268.36132800000001</ele>
        <time>2026-04-07T13:48:29Z</time>
      </trkpt>
      <trkpt lat="50.379692036658525" lon="7.741237012669444">
        <ele>266.469675</ele>
        <time>2026-04-07T13:48:50Z</time>
      </trkpt>
      <trkpt lat="50.379711985588074" lon="7.741288980469108">
        <ele>266.18227400000001</ele>
        <time>2026-04-07T13:48:59Z</time>
      </trkpt>
      <trkpt lat="50.379775017499924" lon="7.741371039301157">
        <ele>265.548472</ele>
        <time>2026-04-07T13:49:03Z</time>
      </trkpt>
      <trkpt lat="50.380037035793066" lon="7.741863979026675">
        <ele>262.533996</ele>
        <time>2026-04-07T13:49:16Z</time>
      </trkpt>
      <trkpt lat="50.380483958870173" lon="7.741812011227012">
        <ele>259.40328699999998</ele>
        <time>2026-04-07T13:49:31Z</time>
      </trkpt>
      <trkpt lat="50.380832981318235" lon="7.742220964282751">
        <ele>256.323285</ele>
        <time>2026-04-07T13:49:43Z</time>
      </trkpt>
      <trkpt lat="50.380960972979665" lon="7.742863018065691">
        <ele>253.29778899999999</ele>
        <time>2026-04-07T13:49:55Z</time>
      </trkpt>
      <trkpt lat="50.380959967151284" lon="7.742994027212262">
        <ele>252.717772</ele>
        <time>2026-04-07T13:49:57Z</time>
      </trkpt>
      <trkpt lat="50.380926020443439" lon="7.743611019104719">
        <ele>249.67447300000001</ele>
        <time>2026-04-07T13:50:08Z</time>
      </trkpt>
      <trkpt lat="50.380783025175333" lon="7.744173025712371">
        <ele>246.587478</ele>
        <time>2026-04-07T13:50:20Z</time>
      </trkpt>
      <trkpt lat="50.380717981606722" lon="7.744393972679973">
        <ele>245.36032399999999</ele>
        <time>2026-04-07T13:50:26Z</time>
      </trkpt>
      <trkpt lat="50.380925014615059" lon="7.74492597207427">
        <ele>242.160235</ele>
        <time>2026-04-07T13:50:41Z</time>
      </trkpt>
      <trkpt lat="50.380990980193019" lon="7.745082965120673">
        <ele>241.10626600000001</ele>
        <time>2026-04-07T13:51:09Z</time>
      </trkpt>
      <trkpt lat="50.381227014586329" lon="7.745558973401785">
        <ele>238.06367299999999</ele>
        <time>2026-04-07T13:51:21Z</time>
      </trkpt>
      <trkpt lat="50.381479980424047" lon="7.746073035523295">
        <ele>234.82195200000001</ele>
        <time>2026-04-07T13:51:33Z</time>
      </trkpt>
      <trkpt lat="50.381801007315516" lon="7.746185017749667">
        <ele>231.77450200000001</ele>
        <time>2026-04-07T13:51:47Z</time>
      </trkpt>
      <trkpt lat="50.382080040872097" lon="7.745743962004781">
        <ele>228.68014600000001</ele>
        <time>2026-04-07T13:51:58Z</time>
      </trkpt>
      <trkpt lat="50.382111975923181" lon="7.745700040832162">
        <ele>228.34812700000001</ele>
        <time>2026-04-07T13:51:59Z</time>
      </trkpt>
      <trkpt lat="50.382240973412991" lon="7.745469035580754">
        <ele>226.81920400000001</ele>
        <time>2026-04-07T13:52:04Z</time>
      </trkpt>
      <trkpt lat="50.382334012538195" lon="7.7453319914639">
        <ele>225.823094</ele>
        <time>2026-04-07T13:52:07Z</time>
      </trkpt>
      <trkpt lat="50.382477007806301" lon="7.745090005919337">
        <ele>224.14436799999999</ele>
        <time>2026-04-07T13:52:29Z</time>
      </trkpt>
      <trkpt lat="50.382480025291443" lon="7.745085982605815">
        <ele>224.11364800000001</ele>
        <time>2026-04-07T13:52:52Z</time>
      </trkpt>
      <trkpt lat="50.382757969200611" lon="7.745522009208798">
        <ele>221.107674</ele>
        <time>2026-04-07T13:53:06Z</time>
      </trkpt>
      <trkpt lat="50.38264699280262" lon="7.745774975046516">
        <ele>219.73944499999999</ele>
        <time>2026-04-07T13:53:11Z</time>
      </trkpt>
      <trkpt lat="50.382450018078089" lon="7.745958035811782">
        <ele>218.17832100000001</ele>
        <time>2026-04-07T13:53:17Z</time>
      </trkpt>
      <trkpt lat="50.382312973961234" lon="7.746198009699583">
        <ele>216.77736400000001</ele>
        <time>2026-04-07T13:53:22Z</time>
      </trkpt>
      <trkpt lat="50.382084986194968" lon="7.74683696217835">
        <ele>213.61038300000001</ele>
        <time>2026-04-07T13:53:35Z</time>
      </trkpt>
      <trkpt lat="50.381994964554906" lon="7.747424030676484">
        <ele>211.06485900000001</ele>
        <time>2026-04-07T13:53:46Z</time>
      </trkpt>
      <trkpt lat="50.381997982040048" lon="7.748056026175618">
        <ele>208.619248</ele>
        <time>2026-04-07T13:53:57Z</time>
      </trkpt>
      <trkpt lat="50.382195040583611" lon="7.748388033360243">
        <ele>206.87126799999999</ele>
        <time>2026-04-07T13:54:04Z</time>
      </trkpt>
      <trkpt lat="50.382423028349876" lon="7.748715011402965">
        <ele>204.986052</ele>
        <time>2026-04-07T13:54:11Z</time>
      </trkpt>
      <trkpt lat="50.382613968104124" lon="7.7492640260607">
        <ele>202.60190900000001</ele>
        <time>2026-04-07T13:54:19Z</time>
      </trkpt>
      <trkpt lat="50.382747994735837" lon="7.749735005199909">
        <ele>200.76443499999999</ele>
        <time>2026-04-07T13:54:25Z</time>
      </trkpt>
      <trkpt lat="50.382799040526152" lon="7.750279996544123">
        <ele>199.66916599999999</ele>
        <time>2026-04-07T13:54:31Z</time>
      </trkpt>
      <trkpt lat="50.382794011384249" lon="7.750431960448623">
        <ele>199.36794499999999</ele>
        <time>2026-04-07T13:54:33Z</time>
      </trkpt>
      <trkpt lat="50.382811026647687" lon="7.750630024820566">
        <ele>198.97206</ele>
        <time>2026-04-07T13:54:36Z</time>
      </trkpt>
      <trkpt lat="50.382434008643031" lon="7.750967983156443">
        <ele>197.48613599999999</ele>
        <time>2026-04-07T13:54:46Z</time>
      </trkpt>
      <trkpt lat="50.381894968450069" lon="7.750369012355804">
        <ele>195.37073599999999</ele>
        <time>2026-04-07T13:55:06Z</time>
      </trkpt>
      <trkpt lat="50.381768988445401" lon="7.750061983242631">
        <ele>194.89007899999999</ele>
        <time>2026-04-07T13:55:11Z</time>
      </trkpt>
      <trkpt lat="50.381460031494498" lon="7.749667027965188">
        <ele>194.09253200000001</ele>
        <time>2026-04-07T13:55:19Z</time>
      </trkpt>
      <trkpt lat="50.381067004054785" lon="7.749231001362205">
        <ele>193.12978000000001</ele>
        <time>2026-04-07T13:55:27Z</time>
      </trkpt>
      <trkpt lat="50.380907999351621" lon="7.748904023319483">
        <ele>192.605782</ele>
        <time>2026-04-07T13:55:31Z</time>
      </trkpt>
      <trkpt lat="50.380731979385018" lon="7.74831997230649">
        <ele>191.781443</ele>
        <time>2026-04-07T13:55:37Z</time>
      </trkpt>
      <trkpt lat="50.38041103631258" lon="7.747971033677459">
        <ele>191.67095399999999</ele>
        <time>2026-04-07T13:55:43Z</time>
      </trkpt>
      <trkpt lat="50.380138959735632" lon="7.747851004824042">
        <ele>191.620531</ele>
        <time>2026-04-07T13:55:48Z</time>
      </trkpt>
      <trkpt lat="50.379945002496243" lon="7.747810017317534">
        <ele>191.58562599999999</ele>
        <time>2026-04-07T13:55:52Z</time>
      </trkpt>
      <trkpt lat="50.379692958667874" lon="7.74771798402071">
        <ele>191.53933599999999</ele>
        <time>2026-04-07T13:55:58Z</time>
      </trkpt>
      <trkpt lat="50.378978988155723" lon="7.747624022886157">
        <ele>191.581277</ele>
        <time>2026-04-07T13:56:16Z</time>
      </trkpt>
      <trkpt lat="50.378803974017501" lon="7.747483039274812">
        <ele>192.566181</ele>
        <time>2026-04-07T13:56:21Z</time>
      </trkpt>
      <trkpt lat="50.378646980971098" lon="7.747083976864815">
        <ele>194.06372500000001</ele>
        <time>2026-04-07T13:56:38Z</time>
      </trkpt>
      <trkpt lat="50.378603981807828" lon="7.746868981048465">
        <ele>194.778333</ele>
        <time>2026-04-07T13:56:43Z</time>
      </trkpt>
      <trkpt lat="50.378510020673275" lon="7.746552983298898">
        <ele>195.882294</ele>
        <time>2026-04-07T13:56:50Z</time>
      </trkpt>
      <trkpt lat="50.37828303873539" lon="7.746605034917593">
        <ele>197.12169299999999</ele>
        <time>2026-04-07T13:56:59Z</time>
      </trkpt>
      <trkpt lat="50.377903003245592" lon="7.746876021847129">
        <ele>199.208663</ele>
        <time>2026-04-07T13:57:21Z</time>
      </trkpt>
      <trkpt lat="50.377484997734427" lon="7.746636969968677">
        <ele>202.331345</ele>
        <time>2026-04-07T13:57:41Z</time>
      </trkpt>
      <trkpt lat="50.377164976671338" lon="7.746443012729287">
        <ele>205.42738600000001</ele>
        <time>2026-04-07T13:57:56Z</time>
      </trkpt>
      <trkpt lat="50.376849984750152" lon="7.74627797305584">
        <ele>208.43432999999999</ele>
        <time>2026-04-07T13:58:10Z</time>
      </trkpt>
      <trkpt lat="50.376538010314107" lon="7.746093990281224">
        <ele>211.451121</ele>
        <time>2026-04-07T13:58:23Z</time>
      </trkpt>
      <trkpt lat="50.376316979527473" lon="7.745932973921299">
        <ele>213.658908</ele>
        <time>2026-04-07T13:58:33Z</time>
      </trkpt>
      <trkpt lat="50.376199968159199" lon="7.746031964197755">
        <ele>214.95067399999999</ele>
        <time>2026-04-07T13:58:39Z</time>
      </trkpt>
      <trkpt lat="50.376183036714792" lon="7.746089966967702">
        <ele>215.31860699999999</ele>
        <time>2026-04-07T13:58:41Z</time>
      </trkpt>
      <trkpt lat="50.376321002840996" lon="7.746649961918593">
        <ele>218.49346199999999</ele>
        <time>2026-04-07T13:58:58Z</time>
      </trkpt>
      <trkpt lat="50.376336006447673" lon="7.746890019625425">
        <ele>219.81805900000001</ele>
        <time>2026-04-07T13:59:05Z</time>
      </trkpt>
      <trkpt lat="50.37620197981596" lon="7.746887002140284">
        <ele>220.917451</ele>
        <time>2026-04-07T13:59:11Z</time>
      </trkpt>
      <trkpt lat="50.375850023701787" lon="7.746588019654155">
        <ele>224.039671</ele>
        <time>2026-04-07T13:59:29Z</time>
      </trkpt>
      <trkpt lat="50.375690013170242" lon="7.74653303436935">
        <ele>225.33283800000001</ele>
        <time>2026-04-07T13:59:36Z</time>
      </trkpt>
      <trkpt lat="50.375574007630348" lon="7.746565975248814">
        <ele>226.25917000000001</ele>
        <time>2026-04-07T14:00:12Z</time>
      </trkpt>
      <trkpt lat="50.375168994069099" lon="7.746628001332283">
        <ele>229.440281</ele>
        <time>2026-04-07T14:00:28Z</time>
      </trkpt>
      <trkpt lat="50.374722993001342" lon="7.746780971065164">
        <ele>232.54029800000001</ele>
        <time>2026-04-07T14:00:46Z</time>
      </trkpt>
      <trkpt lat="50.374259976670146" lon="7.746925977990031">
        <ele>235.552967</ele>
        <time>2026-04-07T14:01:05Z</time>
      </trkpt>
      <trkpt lat="50.373848006129265" lon="7.747306013479829">
        <ele>238.65420499999999</ele>
        <time>2026-04-07T14:01:24Z</time>
      </trkpt>
      <trkpt lat="50.373523039743304" lon="7.747861985117197">
        <ele>241.72591600000001</ele>
        <time>2026-04-07T14:01:45Z</time>
      </trkpt>
      <trkpt lat="50.373307960107923" lon="7.748361965641379">
        <ele>244.915347</ele>
        <time>2026-04-07T14:02:02Z</time>
      </trkpt>
      <trkpt lat="50.373132023960352" lon="7.748883990570903">
        <ele>248.09086500000001</ele>
        <time>2026-04-07T14:02:18Z</time>
      </trkpt>
      <trkpt lat="50.37291300483048" lon="7.749324962496758">
        <ele>251.12280100000001</ele>
        <time>2026-04-07T14:02:33Z</time>
      </trkpt>
      <trkpt lat="50.372619973495603" lon="7.749696029350162">
        <ele>254.30692199999999</ele>
        <time>2026-04-07T14:02:49Z</time>
      </trkpt>
      <trkpt lat="50.372352004051208" lon="7.750087967142463">
        <ele>257.38112699999999</ele>
        <time>2026-04-07T14:03:05Z</time>
      </trkpt>
      <trkpt lat="50.372056039050221" lon="7.750497004017234">
        <ele>260.48456099999999</ele>
        <time>2026-04-07T14:03:22Z</time>
      </trkpt>
      <trkpt lat="50.37177499383688" lon="7.750933030620217">
        <ele>263.58812699999999</ele>
        <time>2026-04-07T14:03:39Z</time>
      </trkpt>
      <trkpt lat="50.371414991095662" lon="7.751149032264948">
        <ele>266.69861400000002</ele>
        <time>2026-04-07T14:03:56Z</time>
      </trkpt>
      <trkpt lat="50.371101005002856" lon="7.750821970403194">
        <ele>269.82091000000003</ele>
        <time>2026-04-07T14:04:12Z</time>
      </trkpt>
      <trkpt lat="50.37106697447598" lon="7.750215958803892">
        <ele>272.83451400000001</ele>
        <time>2026-04-07T14:04:28Z</time>
      </trkpt>
      <trkpt lat="50.371078038588166" lon="7.74956502020359">
        <ele>275.95617600000003</ele>
        <time>2026-04-07T14:04:45Z</time>
      </trkpt>
      <trkpt lat="50.371008971706033" lon="7.748936964198947">
        <ele>279.02822700000002</ele>
        <time>2026-04-07T14:05:02Z</time>
      </trkpt>
      <trkpt lat="50.370756005868316" lon="7.748461961746216">
        <ele>282.12150300000002</ele>
        <time>2026-04-07T14:05:19Z</time>
      </trkpt>
      <trkpt lat="50.37040002644062" lon="7.748194998130202">
        <ele>285.17688900000002</ele>
        <time>2026-04-07T14:05:38Z</time>
      </trkpt>
      <trkpt lat="50.370065001770854" lon="7.748251995071769">
        <ele>288.38263999999998</ele>
        <time>2026-04-07T14:05:52Z</time>
      </trkpt>
      <trkpt lat="50.370083022862673" lon="7.748773014172912">
        <ele>291.40423600000003</ele>
        <time>2026-04-07T14:06:06Z</time>
      </trkpt>
      <trkpt lat="50.370088974013925" lon="7.749097980558872">
        <ele>293.25449500000002</ele>
        <time>2026-04-07T14:06:16Z</time>
      </trkpt>
      <trkpt lat="50.37005502730608" lon="7.749222032725811">
        <ele>294.02242899999999</ele>
        <time>2026-04-07T14:06:20Z</time>
      </trkpt>
      <trkpt lat="50.369784962385893" lon="7.749568959698081">
        <ele>297.175072</ele>
        <time>2026-04-07T14:06:36Z</time>
      </trkpt>
      <trkpt lat="50.36958497017622" lon="7.749984031543136">
        <ele>300.19674900000001</ele>
        <time>2026-04-07T14:06:51Z</time>
      </trkpt>
      <trkpt lat="50.36966904066503" lon="7.750590965151787">
        <ele>303.35546299999999</ele>
        <time>2026-04-07T14:07:09Z</time>
      </trkpt>
      <trkpt lat="50.369675997644663" lon="7.751000002026558">
        <ele>305.82739700000002</ele>
        <time>2026-04-07T14:07:23Z</time>
      </trkpt>
      <trkpt lat="50.369626963511109" lon="7.750980975106359">
        <ele>306.20079099999998</ele>
        <time>2026-04-07T14:07:25Z</time>
      </trkpt>
      <trkpt lat="50.369282970204949" lon="7.750583002343774">
        <ele>309.38766800000002</ele>
        <time>2026-04-07T14:07:42Z</time>
      </trkpt>
      <trkpt lat="50.368918022140861" lon="7.750283014029265">
        <ele>312.43900200000002</ele>
        <time>2026-04-07T14:07:57Z</time>
      </trkpt>
      <trkpt lat="50.368516026064754" lon="7.749955030158162">
        <ele>315.46132299999999</ele>
        <time>2026-04-07T14:08:13Z</time>
      </trkpt>
      <trkpt lat="50.368035994470119" lon="7.749645989388228">
        <ele>318.60505499999999</ele>
        <time>2026-04-07T14:08:31Z</time>
      </trkpt>
      <trkpt lat="50.367553029209375" lon="7.749656969681382">
        <ele>321.69228099999998</ele>
        <time>2026-04-07T14:08:49Z</time>
      </trkpt>
      <trkpt lat="50.367386983707547" lon="7.750407988205552">
        <ele>324.72043400000001</ele>
        <time>2026-04-07T14:09:10Z</time>
      </trkpt>
      <trkpt lat="50.367419002577662" lon="7.75167097337544">
        <ele>324.72043400000001</ele>
        <time>2026-04-07T14:09:42Z</time>
      </trkpt>
      <trkpt lat="50.367740029469132" lon="7.752597006037831">
        <ele>324.72043400000001</ele>
        <time>2026-04-07T14:10:08Z</time>
      </trkpt>
      <trkpt lat="50.368138002231717" lon="7.753261020407081">
        <ele>324.72043400000001</ele>
        <time>2026-04-07T14:10:31Z</time>
      </trkpt>
      <trkpt lat="50.3683150280267" lon="7.753685982897878">
        <ele>324.72043400000001</ele>
        <time>2026-04-07T14:10:47Z</time>
      </trkpt>
      <trkpt lat="50.368346041068435" lon="7.753659998998046">
        <ele>324.72043400000001</ele>
        <time>2026-04-07T14:11:20Z</time>
      </trkpt>
      <trkpt lat="50.368346041068435" lon="7.753659998998046">
        <ele>324.72043400000001</ele>
        <time>2026-04-07T14:13:07Z</time>
      </trkpt>
    </trkseg>
  </trk>

</gpx>